<?xml version="1.0" encoding="UTF-8" standalone="yes"?>
<gpx
 xmlns="http://www.topografix.com/GPX/1/1"
 creator="OziExplorer Version 3956f - http://www.oziexplorer.com"
 version="1.1"
 xmlns:xsi="http://www.w3.org/2001/XMLSchema-instance"
 xsi:schemaLocation="http://www.topografix.com/GPX/1/1 http://www.topografix.com/GPX/1/1/gpx.xsd">
<metadata>
 <time>2020-03-01T16:49:05Z</time>
 <bounds minlat="31.303014" minlon="34.429125" maxlat="31.444788" maxlon="34.500809"/>
</metadata>
<trk>
 <name>Beeri-Eshkol,70km.,560m</name>
 <desc>Beeri-Eshkol,70km.,560m</desc>
<trkseg>
<trkpt lat="31.4277500" lon="34.4939060">
<ele>91.000000</ele>
<time>2020-03-01T00:00:00.000Z</time>
</trkpt>
<trkpt lat="31.4281320" lon="34.4945610">
<ele>91.000000</ele>
<time>2020-03-01T00:00:54.000Z</time>
</trkpt>
<trkpt lat="31.4282880" lon="34.4943830">
<ele>91.000000</ele>
<time>2020-03-01T00:01:12.000Z</time>
</trkpt>
<trkpt lat="31.4290140" lon="34.4955450">
<ele>91.000000</ele>
<time>2020-03-01T00:02:50.000Z</time>
</trkpt>
<trkpt lat="31.4293250" lon="34.4952540">
<ele>92.000000</ele>
<time>2020-03-01T00:03:22.000Z</time>
</trkpt>
<trkpt lat="31.4294630" lon="34.4950440">
<ele>93.000000</ele>
<time>2020-03-01T00:03:40.000Z</time>
</trkpt>
<trkpt lat="31.4293990" lon="34.4947330">
<ele>93.000000</ele>
<time>2020-03-01T00:04:02.000Z</time>
</trkpt>
<trkpt lat="31.4294870" lon="34.4943950">
<ele>94.000000</ele>
<time>2020-03-01T00:04:26.000Z</time>
</trkpt>
<trkpt lat="31.4297370" lon="34.4941410">
<ele>96.000000</ele>
<time>2020-03-01T00:04:53.000Z</time>
</trkpt>
<trkpt lat="31.4300890" lon="34.4938980">
<ele>96.999992</ele>
<time>2020-03-01T00:05:26.000Z</time>
</trkpt>
<trkpt lat="31.4301480" lon="34.4937090">
<ele>96.000000</ele>
<time>2020-03-01T00:05:39.000Z</time>
</trkpt>
<trkpt lat="31.4300890" lon="34.4938980">
<ele>96.999992</ele>
<time>2020-03-01T00:05:53.000Z</time>
</trkpt>
<trkpt lat="31.4297370" lon="34.4941410">
<ele>96.000000</ele>
<time>2020-03-01T00:06:26.000Z</time>
</trkpt>
<trkpt lat="31.4294870" lon="34.4943950">
<ele>94.000000</ele>
<time>2020-03-01T00:06:52.000Z</time>
</trkpt>
<trkpt lat="31.4293990" lon="34.4947330">
<ele>93.000000</ele>
<time>2020-03-01T00:07:17.000Z</time>
</trkpt>
<trkpt lat="31.4294630" lon="34.4950440">
<ele>93.000000</ele>
<time>2020-03-01T00:07:38.000Z</time>
</trkpt>
<trkpt lat="31.4293250" lon="34.4952540">
<ele>92.000000</ele>
<time>2020-03-01T00:07:57.000Z</time>
</trkpt>
<trkpt lat="31.4290140" lon="34.4955450">
<ele>91.000000</ele>
<time>2020-03-01T00:08:28.000Z</time>
</trkpt>
<trkpt lat="31.4291660" lon="34.4957900">
<ele>92.000000</ele>
<time>2020-03-01T00:08:49.000Z</time>
</trkpt>
<trkpt lat="31.4304660" lon="34.4951660">
<ele>95.000000</ele>
<time>2020-03-01T00:10:42.000Z</time>
</trkpt>
<trkpt lat="31.4306950" lon="34.4950160">
<ele>96.000000</ele>
<time>2020-03-01T00:11:03.000Z</time>
</trkpt>
<trkpt lat="31.4307910" lon="34.4947980">
<ele>96.000000</ele>
<time>2020-03-01T00:11:20.000Z</time>
</trkpt>
<trkpt lat="31.4307910" lon="34.4943580">
<ele>96.999992</ele>
<time>2020-03-01T00:11:50.000Z</time>
</trkpt>
<trkpt lat="31.4308990" lon="34.4939890">
<ele>96.000000</ele>
<time>2020-03-01T00:12:17.000Z</time>
</trkpt>
<trkpt lat="31.4308620" lon="34.4937140">
<ele>96.000000</ele>
<time>2020-03-01T00:12:36.000Z</time>
</trkpt>
<trkpt lat="31.4308840" lon="34.4934580">
<ele>95.000000</ele>
<time>2020-03-01T00:12:53.000Z</time>
</trkpt>
<trkpt lat="31.4309240" lon="34.4933320">
<ele>95.000000</ele>
<time>2020-03-01T00:13:02.000Z</time>
</trkpt>
<trkpt lat="31.4312470" lon="34.4928770">
<ele>93.000000</ele>
<time>2020-03-01T00:13:43.000Z</time>
</trkpt>
<trkpt lat="31.4312860" lon="34.4926320">
<ele>92.000000</ele>
<time>2020-03-01T00:14:00.000Z</time>
</trkpt>
<trkpt lat="31.4313930" lon="34.4924130">
<ele>91.000000</ele>
<time>2020-03-01T00:14:18.000Z</time>
</trkpt>
<trkpt lat="31.4315730" lon="34.4922990">
<ele>91.000000</ele>
<time>2020-03-01T00:14:34.000Z</time>
</trkpt>
<trkpt lat="31.4317350" lon="34.4922580">
<ele>91.000000</ele>
<time>2020-03-01T00:14:47.000Z</time>
</trkpt>
<trkpt lat="31.4319920" lon="34.4922540">
<ele>92.000000</ele>
<time>2020-03-01T00:15:08.000Z</time>
</trkpt>
<trkpt lat="31.4323540" lon="34.4923320">
<ele>93.000000</ele>
<time>2020-03-01T00:15:37.000Z</time>
</trkpt>
<trkpt lat="31.4324960" lon="34.4922510">
<ele>93.000000</ele>
<time>2020-03-01T00:15:50.000Z</time>
</trkpt>
<trkpt lat="31.4326960" lon="34.4920460">
<ele>93.000000</ele>
<time>2020-03-01T00:16:12.000Z</time>
</trkpt>
<trkpt lat="31.4328360" lon="34.4919820">
<ele>92.000000</ele>
<time>2020-03-01T00:16:24.000Z</time>
</trkpt>
<trkpt lat="31.4329680" lon="34.4919900">
<ele>92.000000</ele>
<time>2020-03-01T00:16:34.000Z</time>
</trkpt>
<trkpt lat="31.4333210" lon="34.4921450">
<ele>94.000000</ele>
<time>2020-03-01T00:17:05.000Z</time>
</trkpt>
<trkpt lat="31.4335500" lon="34.4921170">
<ele>94.000000</ele>
<time>2020-03-01T00:17:23.000Z</time>
</trkpt>
<trkpt lat="31.4337880" lon="34.4918670">
<ele>93.000000</ele>
<time>2020-03-01T00:17:49.000Z</time>
</trkpt>
<trkpt lat="31.4340410" lon="34.4917180">
<ele>93.000000</ele>
<time>2020-03-01T00:18:12.000Z</time>
</trkpt>
<trkpt lat="31.4341510" lon="34.4915830">
<ele>93.000000</ele>
<time>2020-03-01T00:18:25.000Z</time>
</trkpt>
<trkpt lat="31.4341480" lon="34.4914130">
<ele>94.000000</ele>
<time>2020-03-01T00:18:36.000Z</time>
</trkpt>
<trkpt lat="31.4335740" lon="34.4902480">
<ele>91.000000</ele>
<time>2020-03-01T00:20:08.000Z</time>
</trkpt>
<trkpt lat="31.4333300" lon="34.4898160">
<ele>91.000000</ele>
<time>2020-03-01T00:20:44.000Z</time>
</trkpt>
<trkpt lat="31.4330230" lon="34.4895220">
<ele>89.000000</ele>
<time>2020-03-01T00:21:16.000Z</time>
</trkpt>
<trkpt lat="31.4329980" lon="34.4894460">
<ele>89.000000</ele>
<time>2020-03-01T00:21:22.000Z</time>
</trkpt>
<trkpt lat="31.4329610" lon="34.4890290">
<ele>90.000008</ele>
<time>2020-03-01T00:21:51.000Z</time>
</trkpt>
<trkpt lat="31.4326640" lon="34.4887960">
<ele>87.999992</ele>
<time>2020-03-01T00:22:20.000Z</time>
</trkpt>
<trkpt lat="31.4325000" lon="34.4884350">
<ele>87.999992</ele>
<time>2020-03-01T00:22:48.000Z</time>
</trkpt>
<trkpt lat="31.4324120" lon="34.4883200">
<ele>87.000000</ele>
<time>2020-03-01T00:22:58.000Z</time>
</trkpt>
<trkpt lat="31.4323310" lon="34.4880340">
<ele>87.000000</ele>
<time>2020-03-01T00:23:19.000Z</time>
</trkpt>
<trkpt lat="31.4319980" lon="34.4876190">
<ele>87.000000</ele>
<time>2020-03-01T00:23:58.000Z</time>
</trkpt>
<trkpt lat="31.4319420" lon="34.4870580">
<ele>85.000000</ele>
<time>2020-03-01T00:24:36.000Z</time>
</trkpt>
<trkpt lat="31.4316290" lon="34.4868490">
<ele>83.000000</ele>
<time>2020-03-01T00:25:05.000Z</time>
</trkpt>
<trkpt lat="31.4315490" lon="34.4867540">
<ele>82.000000</ele>
<time>2020-03-01T00:25:14.000Z</time>
</trkpt>
<trkpt lat="31.4313340" lon="34.4866040">
<ele>80.000000</ele>
<time>2020-03-01T00:25:34.000Z</time>
</trkpt>
<trkpt lat="31.4311910" lon="34.4864460">
<ele>79.000000</ele>
<time>2020-03-01T00:25:50.000Z</time>
</trkpt>
<trkpt lat="31.4308580" lon="34.4858910">
<ele>77.000000</ele>
<time>2020-03-01T00:26:36.000Z</time>
</trkpt>
<trkpt lat="31.4306620" lon="34.4854430">
<ele>75.000000</ele>
<time>2020-03-01T00:27:11.000Z</time>
</trkpt>
<trkpt lat="31.4304540" lon="34.4850920">
<ele>74.000000</ele>
<time>2020-03-01T00:27:40.000Z</time>
</trkpt>
<trkpt lat="31.4304690" lon="34.4837670">
<ele>72.000000</ele>
<time>2020-03-01T00:29:11.000Z</time>
</trkpt>
<trkpt lat="31.4300300" lon="34.4829510">
<ele>70.000000</ele>
<time>2020-03-01T00:30:17.000Z</time>
</trkpt>
<trkpt lat="31.4298800" lon="34.4820550">
<ele>69.000000</ele>
<time>2020-03-01T00:31:19.000Z</time>
</trkpt>
<trkpt lat="31.4295890" lon="34.4816110">
<ele>69.000000</ele>
<time>2020-03-01T00:31:57.000Z</time>
</trkpt>
<trkpt lat="31.4295670" lon="34.4813420">
<ele>68.000000</ele>
<time>2020-03-01T00:32:16.000Z</time>
</trkpt>
<trkpt lat="31.4298660" lon="34.4805850">
<ele>66.000000</ele>
<time>2020-03-01T00:33:13.000Z</time>
</trkpt>
<trkpt lat="31.4300000" lon="34.4797890">
<ele>65.000000</ele>
<time>2020-03-01T00:34:09.000Z</time>
</trkpt>
<trkpt lat="31.4303220" lon="34.4796090">
<ele>65.000000</ele>
<time>2020-03-01T00:34:37.000Z</time>
</trkpt>
<trkpt lat="31.4305720" lon="34.4792060">
<ele>62.000000</ele>
<time>2020-03-01T00:35:11.000Z</time>
</trkpt>
<trkpt lat="31.4306640" lon="34.4789070">
<ele>62.000000</ele>
<time>2020-03-01T00:35:33.000Z</time>
</trkpt>
<trkpt lat="31.4311550" lon="34.4783380">
<ele>63.000000</ele>
<time>2020-03-01T00:36:28.000Z</time>
</trkpt>
<trkpt lat="31.4317400" lon="34.4771330">
<ele>60.000000</ele>
<time>2020-03-01T00:38:03.000Z</time>
</trkpt>
<trkpt lat="31.4318700" lon="34.4763580">
<ele>60.000000</ele>
<time>2020-03-01T00:38:57.000Z</time>
</trkpt>
<trkpt lat="31.4321210" lon="34.4755480">
<ele>59.000000</ele>
<time>2020-03-01T00:39:56.000Z</time>
</trkpt>
<trkpt lat="31.4320560" lon="34.4747330">
<ele>58.000000</ele>
<time>2020-03-01T00:40:52.000Z</time>
</trkpt>
<trkpt lat="31.4322070" lon="34.4740030">
<ele>60.000000</ele>
<time>2020-03-01T00:41:43.000Z</time>
</trkpt>
<trkpt lat="31.4324860" lon="34.4735530">
<ele>59.000000</ele>
<time>2020-03-01T00:42:21.000Z</time>
</trkpt>
<trkpt lat="31.4333010" lon="34.4732310">
<ele>57.000000</ele>
<time>2020-03-01T00:43:30.000Z</time>
</trkpt>
<trkpt lat="31.4332150" lon="34.4727410">
<ele>59.000000</ele>
<time>2020-03-01T00:44:05.000Z</time>
</trkpt>
<trkpt lat="31.4332010" lon="34.4722830">
<ele>61.000004</ele>
<time>2020-03-01T00:44:36.000Z</time>
</trkpt>
<trkpt lat="31.4313790" lon="34.4716930">
<ele>71.000000</ele>
<time>2020-03-01T00:47:08.000Z</time>
</trkpt>
<trkpt lat="31.4312940" lon="34.4716340">
<ele>71.000000</ele>
<time>2020-03-01T00:47:16.000Z</time>
</trkpt>
<trkpt lat="31.4314390" lon="34.4714760">
<ele>70.000000</ele>
<time>2020-03-01T00:47:31.000Z</time>
</trkpt>
<trkpt lat="31.4315200" lon="34.4712650">
<ele>69.000000</ele>
<time>2020-03-01T00:47:48.000Z</time>
</trkpt>
<trkpt lat="31.4315300" lon="34.4709990">
<ele>69.000000</ele>
<time>2020-03-01T00:48:06.000Z</time>
</trkpt>
<trkpt lat="31.4314020" lon="34.4706280">
<ele>68.000000</ele>
<time>2020-03-01T00:48:33.000Z</time>
</trkpt>
<trkpt lat="31.4313490" lon="34.4702750">
<ele>67.000000</ele>
<time>2020-03-01T00:48:58.000Z</time>
</trkpt>
<trkpt lat="31.4314230" lon="34.4698480">
<ele>67.000000</ele>
<time>2020-03-01T00:49:28.000Z</time>
</trkpt>
<trkpt lat="31.4316520" lon="34.4695110">
<ele>66.000000</ele>
<time>2020-03-01T00:49:57.000Z</time>
</trkpt>
<trkpt lat="31.4317570" lon="34.4694830">
<ele>65.000000</ele>
<time>2020-03-01T00:50:07.000Z</time>
</trkpt>
<trkpt lat="31.4317760" lon="34.4697510">
<ele>65.000000</ele>
<time>2020-03-01T00:50:26.000Z</time>
</trkpt>
<trkpt lat="31.4318510" lon="34.4697840">
<ele>65.000000</ele>
<time>2020-03-01T00:50:32.000Z</time>
</trkpt>
<trkpt lat="31.4320550" lon="34.4696210">
<ele>64.000000</ele>
<time>2020-03-01T00:50:52.000Z</time>
</trkpt>
<trkpt lat="31.4323160" lon="34.4692970">
<ele>61.000004</ele>
<time>2020-03-01T00:51:23.000Z</time>
</trkpt>
<trkpt lat="31.4323360" lon="34.4691610">
<ele>60.000000</ele>
<time>2020-03-01T00:51:32.000Z</time>
</trkpt>
<trkpt lat="31.4322310" lon="34.4688730">
<ele>61.000004</ele>
<time>2020-03-01T00:51:53.000Z</time>
</trkpt>
<trkpt lat="31.4322240" lon="34.4687590">
<ele>61.000004</ele>
<time>2020-03-01T00:52:01.000Z</time>
</trkpt>
<trkpt lat="31.4322400" lon="34.4686950">
<ele>61.000004</ele>
<time>2020-03-01T00:52:06.000Z</time>
</trkpt>
<trkpt lat="31.4323130" lon="34.4686390">
<ele>61.000004</ele>
<time>2020-03-01T00:52:13.000Z</time>
</trkpt>
<trkpt lat="31.4325030" lon="34.4689060">
<ele>59.000000</ele>
<time>2020-03-01T00:52:37.000Z</time>
</trkpt>
<trkpt lat="31.4328460" lon="34.4691300">
<ele>59.000000</ele>
<time>2020-03-01T00:53:08.000Z</time>
</trkpt>
<trkpt lat="31.4329060" lon="34.4693680">
<ele>60.000000</ele>
<time>2020-03-01T00:53:25.000Z</time>
</trkpt>
<trkpt lat="31.4332790" lon="34.4695670">
<ele>62.000000</ele>
<time>2020-03-01T00:53:58.000Z</time>
</trkpt>
<trkpt lat="31.4339020" lon="34.4702960">
<ele>65.000000</ele>
<time>2020-03-01T00:55:08.000Z</time>
</trkpt>
<trkpt lat="31.4341380" lon="34.4704200">
<ele>65.000000</ele>
<time>2020-03-01T00:55:29.000Z</time>
</trkpt>
<trkpt lat="31.4340640" lon="34.4706570">
<ele>65.000000</ele>
<time>2020-03-01T00:55:46.000Z</time>
</trkpt>
<trkpt lat="31.4340940" lon="34.4707560">
<ele>65.000000</ele>
<time>2020-03-01T00:55:54.000Z</time>
</trkpt>
<trkpt lat="31.4341720" lon="34.4708400">
<ele>65.000000</ele>
<time>2020-03-01T00:56:02.000Z</time>
</trkpt>
<trkpt lat="31.4351270" lon="34.4712360">
<ele>58.000000</ele>
<time>2020-03-01T00:57:23.000Z</time>
</trkpt>
<trkpt lat="31.4355110" lon="34.4710000">
<ele>57.000000</ele>
<time>2020-03-01T00:57:58.000Z</time>
</trkpt>
<trkpt lat="31.4361030" lon="34.4714280">
<ele>55.000000</ele>
<time>2020-03-01T00:58:54.000Z</time>
</trkpt>
<trkpt lat="31.4361730" lon="34.4714210">
<ele>55.000000</ele>
<time>2020-03-01T00:59:00.000Z</time>
</trkpt>
<trkpt lat="31.4363470" lon="34.4713110">
<ele>55.000000</ele>
<time>2020-03-01T00:59:16.000Z</time>
</trkpt>
<trkpt lat="31.4368420" lon="34.4711580">
<ele>55.000000</ele>
<time>2020-03-01T00:59:57.000Z</time>
</trkpt>
<trkpt lat="31.4369920" lon="34.4710140">
<ele>57.000000</ele>
<time>2020-03-01T01:00:12.000Z</time>
</trkpt>
<trkpt lat="31.4371250" lon="34.4708060">
<ele>58.000000</ele>
<time>2020-03-01T01:00:30.000Z</time>
</trkpt>
<trkpt lat="31.4374480" lon="34.4705490">
<ele>59.000000</ele>
<time>2020-03-01T01:01:02.000Z</time>
</trkpt>
<trkpt lat="31.4375950" lon="34.4705220">
<ele>60.000000</ele>
<time>2020-03-01T01:01:14.000Z</time>
</trkpt>
<trkpt lat="31.4379180" lon="34.4705470">
<ele>62.000000</ele>
<time>2020-03-01T01:01:40.000Z</time>
</trkpt>
<trkpt lat="31.4380100" lon="34.4706400">
<ele>63.000000</ele>
<time>2020-03-01T01:01:50.000Z</time>
</trkpt>
<trkpt lat="31.4380370" lon="34.4708850">
<ele>63.000000</ele>
<time>2020-03-01T01:02:07.000Z</time>
</trkpt>
<trkpt lat="31.4381510" lon="34.4711170">
<ele>63.000000</ele>
<time>2020-03-01T01:02:25.000Z</time>
</trkpt>
<trkpt lat="31.4381850" lon="34.4714060">
<ele>62.000000</ele>
<time>2020-03-01T01:02:45.000Z</time>
</trkpt>
<trkpt lat="31.4382900" lon="34.4716910">
<ele>62.000000</ele>
<time>2020-03-01T01:03:06.000Z</time>
</trkpt>
<trkpt lat="31.4382740" lon="34.4721230">
<ele>62.000000</ele>
<time>2020-03-01T01:03:36.000Z</time>
</trkpt>
<trkpt lat="31.4383820" lon="34.4723240">
<ele>62.000000</ele>
<time>2020-03-01T01:03:52.000Z</time>
</trkpt>
<trkpt lat="31.4384010" lon="34.4724370">
<ele>62.000000</ele>
<time>2020-03-01T01:04:00.000Z</time>
</trkpt>
<trkpt lat="31.4383580" lon="34.4725840">
<ele>62.000000</ele>
<time>2020-03-01T01:04:11.000Z</time>
</trkpt>
<trkpt lat="31.4381250" lon="34.4729600">
<ele>62.000000</ele>
<time>2020-03-01T01:04:43.000Z</time>
</trkpt>
<trkpt lat="31.4381170" lon="34.4730420">
<ele>62.000000</ele>
<time>2020-03-01T01:04:48.000Z</time>
</trkpt>
<trkpt lat="31.4381740" lon="34.4731710">
<ele>62.000000</ele>
<time>2020-03-01T01:04:58.000Z</time>
</trkpt>
<trkpt lat="31.4386140" lon="34.4734760">
<ele>65.000000</ele>
<time>2020-03-01T01:05:40.000Z</time>
</trkpt>
<trkpt lat="31.4387620" lon="34.4736260">
<ele>65.000000</ele>
<time>2020-03-01T01:05:55.000Z</time>
</trkpt>
<trkpt lat="31.4390530" lon="34.4740470">
<ele>64.000000</ele>
<time>2020-03-01T01:06:32.000Z</time>
</trkpt>
<trkpt lat="31.4391510" lon="34.4744300">
<ele>65.000000</ele>
<time>2020-03-01T01:07:00.000Z</time>
</trkpt>
<trkpt lat="31.4392460" lon="34.4745600">
<ele>65.000000</ele>
<time>2020-03-01T01:07:12.000Z</time>
</trkpt>
<trkpt lat="31.4393200" lon="34.4745740">
<ele>66.000000</ele>
<time>2020-03-01T01:07:18.000Z</time>
</trkpt>
<trkpt lat="31.4393740" lon="34.4745380">
<ele>66.000000</ele>
<time>2020-03-01T01:07:23.000Z</time>
</trkpt>
<trkpt lat="31.4394600" lon="34.4743760">
<ele>66.000000</ele>
<time>2020-03-01T01:07:36.000Z</time>
</trkpt>
<trkpt lat="31.4395410" lon="34.4743220">
<ele>67.000000</ele>
<time>2020-03-01T01:07:43.000Z</time>
</trkpt>
<trkpt lat="31.4399970" lon="34.4741910">
<ele>70.000000</ele>
<time>2020-03-01T01:08:21.000Z</time>
</trkpt>
<trkpt lat="31.4401040" lon="34.4742460">
<ele>70.000000</ele>
<time>2020-03-01T01:08:31.000Z</time>
</trkpt>
<trkpt lat="31.4402340" lon="34.4745100">
<ele>70.000000</ele>
<time>2020-03-01T01:08:52.000Z</time>
</trkpt>
<trkpt lat="31.4404500" lon="34.4746470">
<ele>71.000000</ele>
<time>2020-03-01T01:09:11.000Z</time>
</trkpt>
<trkpt lat="31.4405770" lon="34.4746850">
<ele>71.000000</ele>
<time>2020-03-01T01:09:22.000Z</time>
</trkpt>
<trkpt lat="31.4407700" lon="34.4746700">
<ele>72.000000</ele>
<time>2020-03-01T01:09:37.000Z</time>
</trkpt>
<trkpt lat="31.4409450" lon="34.4747060">
<ele>71.000000</ele>
<time>2020-03-01T01:09:51.000Z</time>
</trkpt>
<trkpt lat="31.4410110" lon="34.4746860">
<ele>71.000000</ele>
<time>2020-03-01T01:09:57.000Z</time>
</trkpt>
<trkpt lat="31.4410680" lon="34.4746300">
<ele>71.000000</ele>
<time>2020-03-01T01:10:03.000Z</time>
</trkpt>
<trkpt lat="31.4412980" lon="34.4740690">
<ele>73.000000</ele>
<time>2020-03-01T01:10:46.000Z</time>
</trkpt>
<trkpt lat="31.4413230" lon="34.4739170">
<ele>72.000000</ele>
<time>2020-03-01T01:10:56.000Z</time>
</trkpt>
<trkpt lat="31.4413050" lon="34.4735010">
<ele>72.000000</ele>
<time>2020-03-01T01:11:25.000Z</time>
</trkpt>
<trkpt lat="31.4411130" lon="34.4731080">
<ele>71.000000</ele>
<time>2020-03-01T01:11:56.000Z</time>
</trkpt>
<trkpt lat="31.4409570" lon="34.4728980">
<ele>71.000000</ele>
<time>2020-03-01T01:12:15.000Z</time>
</trkpt>
<trkpt lat="31.4408230" lon="34.4728510">
<ele>71.000000</ele>
<time>2020-03-01T01:12:26.000Z</time>
</trkpt>
<trkpt lat="31.4407860" lon="34.4727270">
<ele>70.000000</ele>
<time>2020-03-01T01:12:36.000Z</time>
</trkpt>
<trkpt lat="31.4408880" lon="34.4726130">
<ele>69.000000</ele>
<time>2020-03-01T01:12:47.000Z</time>
</trkpt>
<trkpt lat="31.4410320" lon="34.4726330">
<ele>69.000000</ele>
<time>2020-03-01T01:12:59.000Z</time>
</trkpt>
<trkpt lat="31.4411010" lon="34.4726120">
<ele>69.000000</ele>
<time>2020-03-01T01:13:05.000Z</time>
</trkpt>
<trkpt lat="31.4412880" lon="34.4724370">
<ele>68.000000</ele>
<time>2020-03-01T01:13:24.000Z</time>
</trkpt>
<trkpt lat="31.4413350" lon="34.4723550">
<ele>67.000000</ele>
<time>2020-03-01T01:13:31.000Z</time>
</trkpt>
<trkpt lat="31.4413330" lon="34.4722670">
<ele>67.000000</ele>
<time>2020-03-01T01:13:37.000Z</time>
</trkpt>
<trkpt lat="31.4411870" lon="34.4718920">
<ele>66.000000</ele>
<time>2020-03-01T01:14:05.000Z</time>
</trkpt>
<trkpt lat="31.4409700" lon="34.4716970">
<ele>65.000000</ele>
<time>2020-03-01T01:14:27.000Z</time>
</trkpt>
<trkpt lat="31.4409370" lon="34.4716140">
<ele>65.000000</ele>
<time>2020-03-01T01:14:33.000Z</time>
</trkpt>
<trkpt lat="31.4409260" lon="34.4709600">
<ele>61.000004</ele>
<time>2020-03-01T01:15:18.000Z</time>
</trkpt>
<trkpt lat="31.4407870" lon="34.4707240">
<ele>60.000000</ele>
<time>2020-03-01T01:15:38.000Z</time>
</trkpt>
<trkpt lat="31.4406980" lon="34.4704770">
<ele>60.000000</ele>
<time>2020-03-01T01:15:56.000Z</time>
</trkpt>
<trkpt lat="31.4405210" lon="34.4703610">
<ele>59.000000</ele>
<time>2020-03-01T01:16:13.000Z</time>
</trkpt>
<trkpt lat="31.4403120" lon="34.4701170">
<ele>58.000000</ele>
<time>2020-03-01T01:16:36.000Z</time>
</trkpt>
<trkpt lat="31.4402560" lon="34.4699790">
<ele>57.000000</ele>
<time>2020-03-01T01:16:47.000Z</time>
</trkpt>
<trkpt lat="31.4402070" lon="34.4696210">
<ele>57.000000</ele>
<time>2020-03-01T01:17:11.000Z</time>
</trkpt>
<trkpt lat="31.4401330" lon="34.4694220">
<ele>57.000000</ele>
<time>2020-03-01T01:17:26.000Z</time>
</trkpt>
<trkpt lat="31.4398320" lon="34.4690950">
<ele>56.000000</ele>
<time>2020-03-01T01:17:59.000Z</time>
</trkpt>
<trkpt lat="31.4396750" lon="34.4690620">
<ele>56.000000</ele>
<time>2020-03-01T01:18:13.000Z</time>
</trkpt>
<trkpt lat="31.4395340" lon="34.4691250">
<ele>56.000000</ele>
<time>2020-03-01T01:18:25.000Z</time>
</trkpt>
<trkpt lat="31.4394350" lon="34.4694300">
<ele>57.000000</ele>
<time>2020-03-01T01:18:48.000Z</time>
</trkpt>
<trkpt lat="31.4393430" lon="34.4695100">
<ele>58.000000</ele>
<time>2020-03-01T01:18:57.000Z</time>
</trkpt>
<trkpt lat="31.4392260" lon="34.4695110">
<ele>58.000000</ele>
<time>2020-03-01T01:19:06.000Z</time>
</trkpt>
<trkpt lat="31.4391380" lon="34.4694290">
<ele>58.000000</ele>
<time>2020-03-01T01:19:15.000Z</time>
</trkpt>
<trkpt lat="31.4390370" lon="34.4692260">
<ele>57.000000</ele>
<time>2020-03-01T01:19:32.000Z</time>
</trkpt>
<trkpt lat="31.4388550" lon="34.4689990">
<ele>56.000000</ele>
<time>2020-03-01T01:19:53.000Z</time>
</trkpt>
<trkpt lat="31.4387910" lon="34.4688540">
<ele>56.000000</ele>
<time>2020-03-01T01:20:04.000Z</time>
</trkpt>
<trkpt lat="31.4387870" lon="34.4687220">
<ele>55.000000</ele>
<time>2020-03-01T01:20:13.000Z</time>
</trkpt>
<trkpt lat="31.4389140" lon="34.4684430">
<ele>54.000000</ele>
<time>2020-03-01T01:20:35.000Z</time>
</trkpt>
<trkpt lat="31.4389480" lon="34.4681260">
<ele>53.000004</ele>
<time>2020-03-01T01:20:56.000Z</time>
</trkpt>
<trkpt lat="31.4388400" lon="34.4679310">
<ele>53.000004</ele>
<time>2020-03-01T01:21:13.000Z</time>
</trkpt>
<trkpt lat="31.4387910" lon="34.4677240">
<ele>53.000004</ele>
<time>2020-03-01T01:21:27.000Z</time>
</trkpt>
<trkpt lat="31.4388560" lon="34.4675760">
<ele>53.000004</ele>
<time>2020-03-01T01:21:39.000Z</time>
</trkpt>
<trkpt lat="31.4389700" lon="34.4674970">
<ele>51.999996</ele>
<time>2020-03-01T01:21:50.000Z</time>
</trkpt>
<trkpt lat="31.4391660" lon="34.4676690">
<ele>51.999996</ele>
<time>2020-03-01T01:22:10.000Z</time>
</trkpt>
<trkpt lat="31.4392540" lon="34.4676890">
<ele>53.000004</ele>
<time>2020-03-01T01:22:17.000Z</time>
</trkpt>
<trkpt lat="31.4394580" lon="34.4675520">
<ele>53.000004</ele>
<time>2020-03-01T01:22:36.000Z</time>
</trkpt>
<trkpt lat="31.4395430" lon="34.4675380">
<ele>53.000004</ele>
<time>2020-03-01T01:22:42.000Z</time>
</trkpt>
<trkpt lat="31.4401320" lon="34.4677580">
<ele>55.000000</ele>
<time>2020-03-01T01:23:32.000Z</time>
</trkpt>
<trkpt lat="31.4404150" lon="34.4676690">
<ele>55.000000</ele>
<time>2020-03-01T01:23:56.000Z</time>
</trkpt>
<trkpt lat="31.4405080" lon="34.4676100">
<ele>55.000000</ele>
<time>2020-03-01T01:24:04.000Z</time>
</trkpt>
<trkpt lat="31.4407670" lon="34.4671400">
<ele>57.000000</ele>
<time>2020-03-01T01:24:43.000Z</time>
</trkpt>
<trkpt lat="31.4408620" lon="34.4670340">
<ele>58.000000</ele>
<time>2020-03-01T01:24:53.000Z</time>
</trkpt>
<trkpt lat="31.4413380" lon="34.4667470">
<ele>59.000000</ele>
<time>2020-03-01T01:25:36.000Z</time>
</trkpt>
<trkpt lat="31.4415830" lon="34.4663500">
<ele>60.000000</ele>
<time>2020-03-01T01:26:10.000Z</time>
</trkpt>
<trkpt lat="31.4416580" lon="34.4660560">
<ele>60.000000</ele>
<time>2020-03-01T01:26:31.000Z</time>
</trkpt>
<trkpt lat="31.4417970" lon="34.4658480">
<ele>62.000000</ele>
<time>2020-03-01T01:26:49.000Z</time>
</trkpt>
<trkpt lat="31.4418340" lon="34.4657030">
<ele>63.000000</ele>
<time>2020-03-01T01:26:59.000Z</time>
</trkpt>
<trkpt lat="31.4419850" lon="34.4655080">
<ele>66.000000</ele>
<time>2020-03-01T01:27:17.000Z</time>
</trkpt>
<trkpt lat="31.4420010" lon="34.4654310">
<ele>66.000000</ele>
<time>2020-03-01T01:27:22.000Z</time>
</trkpt>
<trkpt lat="31.4419700" lon="34.4652170">
<ele>68.000000</ele>
<time>2020-03-01T01:27:37.000Z</time>
</trkpt>
<trkpt lat="31.4419200" lon="34.4651210">
<ele>68.000000</ele>
<time>2020-03-01T01:27:45.000Z</time>
</trkpt>
<trkpt lat="31.4416750" lon="34.4649420">
<ele>68.000000</ele>
<time>2020-03-01T01:28:08.000Z</time>
</trkpt>
<trkpt lat="31.4415350" lon="34.4649480">
<ele>67.000000</ele>
<time>2020-03-01T01:28:20.000Z</time>
</trkpt>
<trkpt lat="31.4412710" lon="34.4651020">
<ele>64.000000</ele>
<time>2020-03-01T01:28:43.000Z</time>
</trkpt>
<trkpt lat="31.4411240" lon="34.4650640">
<ele>63.000000</ele>
<time>2020-03-01T01:28:56.000Z</time>
</trkpt>
<trkpt lat="31.4410160" lon="34.4648880">
<ele>62.000000</ele>
<time>2020-03-01T01:29:11.000Z</time>
</trkpt>
<trkpt lat="31.4410050" lon="34.4647380">
<ele>62.000000</ele>
<time>2020-03-01T01:29:21.000Z</time>
</trkpt>
<trkpt lat="31.4410480" lon="34.4642840">
<ele>62.000000</ele>
<time>2020-03-01T01:29:52.000Z</time>
</trkpt>
<trkpt lat="31.4411430" lon="34.4641540">
<ele>62.000000</ele>
<time>2020-03-01T01:30:04.000Z</time>
</trkpt>
<trkpt lat="31.4415060" lon="34.4639550">
<ele>64.000000</ele>
<time>2020-03-01T01:30:36.000Z</time>
</trkpt>
<trkpt lat="31.4418710" lon="34.4638340">
<ele>65.000000</ele>
<time>2020-03-01T01:31:06.000Z</time>
</trkpt>
<trkpt lat="31.4420500" lon="34.4638220">
<ele>65.000000</ele>
<time>2020-03-01T01:31:21.000Z</time>
</trkpt>
<trkpt lat="31.4423230" lon="34.4639710">
<ele>66.000000</ele>
<time>2020-03-01T01:31:45.000Z</time>
</trkpt>
<trkpt lat="31.4424290" lon="34.4639320">
<ele>66.000000</ele>
<time>2020-03-01T01:31:54.000Z</time>
</trkpt>
<trkpt lat="31.4426440" lon="34.4635410">
<ele>64.000000</ele>
<time>2020-03-01T01:32:26.000Z</time>
</trkpt>
<trkpt lat="31.4427950" lon="34.4634340">
<ele>63.000000</ele>
<time>2020-03-01T01:32:41.000Z</time>
</trkpt>
<trkpt lat="31.4429770" lon="34.4634640">
<ele>63.000000</ele>
<time>2020-03-01T01:32:55.000Z</time>
</trkpt>
<trkpt lat="31.4432470" lon="34.4636620">
<ele>64.000000</ele>
<time>2020-03-01T01:33:21.000Z</time>
</trkpt>
<trkpt lat="31.4437700" lon="34.4637600">
<ele>66.000000</ele>
<time>2020-03-01T01:34:04.000Z</time>
</trkpt>
<trkpt lat="31.4446130" lon="34.4635960">
<ele>67.000000</ele>
<time>2020-03-01T01:35:12.000Z</time>
</trkpt>
<trkpt lat="31.4446600" lon="34.4635730">
<ele>67.000000</ele>
<time>2020-03-01T01:35:16.000Z</time>
</trkpt>
<trkpt lat="31.4447120" lon="34.4634170">
<ele>67.000000</ele>
<time>2020-03-01T01:35:28.000Z</time>
</trkpt>
<trkpt lat="31.4445420" lon="34.4628400">
<ele>66.000000</ele>
<time>2020-03-01T01:36:10.000Z</time>
</trkpt>
<trkpt lat="31.4445540" lon="34.4627650">
<ele>66.000000</ele>
<time>2020-03-01T01:36:15.000Z</time>
</trkpt>
<trkpt lat="31.4447440" lon="34.4626060">
<ele>68.000000</ele>
<time>2020-03-01T01:36:34.000Z</time>
</trkpt>
<trkpt lat="31.4447870" lon="34.4625390">
<ele>68.000000</ele>
<time>2020-03-01T01:36:40.000Z</time>
</trkpt>
<trkpt lat="31.4447880" lon="34.4624350">
<ele>68.000000</ele>
<time>2020-03-01T01:36:47.000Z</time>
</trkpt>
<trkpt lat="31.4447430" lon="34.4623800">
<ele>68.000000</ele>
<time>2020-03-01T01:36:52.000Z</time>
</trkpt>
<trkpt lat="31.4445300" lon="34.4623380">
<ele>67.000000</ele>
<time>2020-03-01T01:37:10.000Z</time>
</trkpt>
<trkpt lat="31.4442250" lon="34.4625210">
<ele>64.000000</ele>
<time>2020-03-01T01:37:37.000Z</time>
</trkpt>
<trkpt lat="31.4439910" lon="34.4625410">
<ele>63.000000</ele>
<time>2020-03-01T01:37:56.000Z</time>
</trkpt>
<trkpt lat="31.4437970" lon="34.4624200">
<ele>64.000000</ele>
<time>2020-03-01T01:38:14.000Z</time>
</trkpt>
<trkpt lat="31.4434980" lon="34.4621250">
<ele>66.000000</ele>
<time>2020-03-01T01:38:45.000Z</time>
</trkpt>
<trkpt lat="31.4434100" lon="34.4620650">
<ele>66.000000</ele>
<time>2020-03-01T01:38:53.000Z</time>
</trkpt>
<trkpt lat="31.4431210" lon="34.4619890">
<ele>65.000000</ele>
<time>2020-03-01T01:39:17.000Z</time>
</trkpt>
<trkpt lat="31.4429500" lon="34.4618240">
<ele>65.000000</ele>
<time>2020-03-01T01:39:35.000Z</time>
</trkpt>
<trkpt lat="31.4427500" lon="34.4615000">
<ele>65.000000</ele>
<time>2020-03-01T01:40:02.000Z</time>
</trkpt>
<trkpt lat="31.4426300" lon="34.4615000">
<ele>64.000000</ele>
<time>2020-03-01T01:40:12.000Z</time>
</trkpt>
<trkpt lat="31.4424220" lon="34.4617600">
<ele>61.000004</ele>
<time>2020-03-01T01:40:37.000Z</time>
</trkpt>
<trkpt lat="31.4422500" lon="34.4618410">
<ele>60.000000</ele>
<time>2020-03-01T01:40:52.000Z</time>
</trkpt>
<trkpt lat="31.4420010" lon="34.4620750">
<ele>59.000000</ele>
<time>2020-03-01T01:41:17.000Z</time>
</trkpt>
<trkpt lat="31.4417030" lon="34.4620980">
<ele>58.000000</ele>
<time>2020-03-01T01:41:42.000Z</time>
</trkpt>
<trkpt lat="31.4409510" lon="34.4618940">
<ele>55.000000</ele>
<time>2020-03-01T01:42:43.000Z</time>
</trkpt>
<trkpt lat="31.4406430" lon="34.4619840">
<ele>54.000000</ele>
<time>2020-03-01T01:43:09.000Z</time>
</trkpt>
<trkpt lat="31.4404940" lon="34.4621340">
<ele>54.000000</ele>
<time>2020-03-01T01:43:25.000Z</time>
</trkpt>
<trkpt lat="31.4405440" lon="34.4623340">
<ele>54.000000</ele>
<time>2020-03-01T01:43:40.000Z</time>
</trkpt>
<trkpt lat="31.4403640" lon="34.4625570">
<ele>55.000000</ele>
<time>2020-03-01T01:44:01.000Z</time>
</trkpt>
<trkpt lat="31.4402470" lon="34.4626350">
<ele>56.000000</ele>
<time>2020-03-01T01:44:11.000Z</time>
</trkpt>
<trkpt lat="31.4401980" lon="34.4627010">
<ele>56.000000</ele>
<time>2020-03-01T01:44:17.000Z</time>
</trkpt>
<trkpt lat="31.4401900" lon="34.4628170">
<ele>57.000000</ele>
<time>2020-03-01T01:44:25.000Z</time>
</trkpt>
<trkpt lat="31.4402360" lon="34.4630480">
<ele>59.000000</ele>
<time>2020-03-01T01:44:42.000Z</time>
</trkpt>
<trkpt lat="31.4401860" lon="34.4634860">
<ele>60.000000</ele>
<time>2020-03-01T01:45:12.000Z</time>
</trkpt>
<trkpt lat="31.4401080" lon="34.4636280">
<ele>59.000000</ele>
<time>2020-03-01T01:45:23.000Z</time>
</trkpt>
<trkpt lat="31.4395070" lon="34.4638880">
<ele>55.000000</ele>
<time>2020-03-01T01:46:15.000Z</time>
</trkpt>
<trkpt lat="31.4393450" lon="34.4639980">
<ele>53.000004</ele>
<time>2020-03-01T01:46:30.000Z</time>
</trkpt>
<trkpt lat="31.4392440" lon="34.4640300">
<ele>51.999996</ele>
<time>2020-03-01T01:46:38.000Z</time>
</trkpt>
<trkpt lat="31.4390140" lon="34.4640130">
<ele>51.000000</ele>
<time>2020-03-01T01:46:57.000Z</time>
</trkpt>
<trkpt lat="31.4386990" lon="34.4641310">
<ele>50.000000</ele>
<time>2020-03-01T01:47:23.000Z</time>
</trkpt>
<trkpt lat="31.4384490" lon="34.4641410">
<ele>49.000000</ele>
<time>2020-03-01T01:47:43.000Z</time>
</trkpt>
<trkpt lat="31.4381990" lon="34.4640500">
<ele>49.000000</ele>
<time>2020-03-01T01:48:04.000Z</time>
</trkpt>
<trkpt lat="31.4377500" lon="34.4641270">
<ele>50.000000</ele>
<time>2020-03-01T01:48:41.000Z</time>
</trkpt>
<trkpt lat="31.4377050" lon="34.4641910">
<ele>51.000000</ele>
<time>2020-03-01T01:48:46.000Z</time>
</trkpt>
<trkpt lat="31.4377510" lon="34.4645440">
<ele>51.000000</ele>
<time>2020-03-01T01:49:11.000Z</time>
</trkpt>
<trkpt lat="31.4379670" lon="34.4651550">
<ele>51.000000</ele>
<time>2020-03-01T01:49:56.000Z</time>
</trkpt>
<trkpt lat="31.4379690" lon="34.4652350">
<ele>51.000000</ele>
<time>2020-03-01T01:50:01.000Z</time>
</trkpt>
<trkpt lat="31.4379220" lon="34.4653370">
<ele>51.000000</ele>
<time>2020-03-01T01:50:09.000Z</time>
</trkpt>
<trkpt lat="31.4376930" lon="34.4656000">
<ele>51.999996</ele>
<time>2020-03-01T01:50:35.000Z</time>
</trkpt>
<trkpt lat="31.4374990" lon="34.4658810">
<ele>53.000004</ele>
<time>2020-03-01T01:51:00.000Z</time>
</trkpt>
<trkpt lat="31.4374230" lon="34.4661410">
<ele>53.000004</ele>
<time>2020-03-01T01:51:19.000Z</time>
</trkpt>
<trkpt lat="31.4373910" lon="34.4664770">
<ele>51.999996</ele>
<time>2020-03-01T01:51:42.000Z</time>
</trkpt>
<trkpt lat="31.4372840" lon="34.4668250">
<ele>51.999996</ele>
<time>2020-03-01T01:52:07.000Z</time>
</trkpt>
<trkpt lat="31.4371520" lon="34.4669200">
<ele>51.999996</ele>
<time>2020-03-01T01:52:20.000Z</time>
</trkpt>
<trkpt lat="31.4368180" lon="34.4668690">
<ele>51.999996</ele>
<time>2020-03-01T01:52:47.000Z</time>
</trkpt>
<trkpt lat="31.4363840" lon="34.4670760">
<ele>51.999996</ele>
<time>2020-03-01T01:53:24.000Z</time>
</trkpt>
<trkpt lat="31.4360170" lon="34.4670830">
<ele>51.999996</ele>
<time>2020-03-01T01:53:54.000Z</time>
</trkpt>
<trkpt lat="31.4356860" lon="34.4669820">
<ele>51.999996</ele>
<time>2020-03-01T01:54:21.000Z</time>
</trkpt>
<trkpt lat="31.4356130" lon="34.4670010">
<ele>51.999996</ele>
<time>2020-03-01T01:54:27.000Z</time>
</trkpt>
<trkpt lat="31.4353710" lon="34.4674960">
<ele>53.000004</ele>
<time>2020-03-01T01:55:07.000Z</time>
</trkpt>
<trkpt lat="31.4353190" lon="34.4675430">
<ele>53.000004</ele>
<time>2020-03-01T01:55:12.000Z</time>
</trkpt>
<trkpt lat="31.4350160" lon="34.4673980">
<ele>53.000004</ele>
<time>2020-03-01T01:55:38.000Z</time>
</trkpt>
<trkpt lat="31.4348910" lon="34.4673810">
<ele>53.000004</ele>
<time>2020-03-01T01:55:49.000Z</time>
</trkpt>
<trkpt lat="31.4347820" lon="34.4674100">
<ele>53.000004</ele>
<time>2020-03-01T01:55:58.000Z</time>
</trkpt>
<trkpt lat="31.4344730" lon="34.4675860">
<ele>51.999996</ele>
<time>2020-03-01T01:56:25.000Z</time>
</trkpt>
<trkpt lat="31.4341930" lon="34.4679310">
<ele>51.999996</ele>
<time>2020-03-01T01:56:58.000Z</time>
</trkpt>
<trkpt lat="31.4338910" lon="34.4681400">
<ele>54.000000</ele>
<time>2020-03-01T01:57:26.000Z</time>
</trkpt>
<trkpt lat="31.4335460" lon="34.4681290">
<ele>55.000000</ele>
<time>2020-03-01T01:57:54.000Z</time>
</trkpt>
<trkpt lat="31.4333870" lon="34.4682130">
<ele>56.000000</ele>
<time>2020-03-01T01:58:08.000Z</time>
</trkpt>
<trkpt lat="31.4329520" lon="34.4679380">
<ele>57.000000</ele>
<time>2020-03-01T01:58:47.000Z</time>
</trkpt>
<trkpt lat="31.4326690" lon="34.4676750">
<ele>58.000000</ele>
<time>2020-03-01T01:59:16.000Z</time>
</trkpt>
<trkpt lat="31.4323860" lon="34.4676020">
<ele>60.000000</ele>
<time>2020-03-01T01:59:40.000Z</time>
</trkpt>
<trkpt lat="31.4320700" lon="34.4676140">
<ele>61.000004</ele>
<time>2020-03-01T02:00:06.000Z</time>
</trkpt>
<trkpt lat="31.4316800" lon="34.4674390">
<ele>63.000000</ele>
<time>2020-03-01T02:00:39.000Z</time>
</trkpt>
<trkpt lat="31.4313220" lon="34.4673910">
<ele>67.000000</ele>
<time>2020-03-01T02:01:09.000Z</time>
</trkpt>
<trkpt lat="31.4309110" lon="34.4671240">
<ele>71.000000</ele>
<time>2020-03-01T02:01:47.000Z</time>
</trkpt>
<trkpt lat="31.4307960" lon="34.4669170">
<ele>71.000000</ele>
<time>2020-03-01T02:02:05.000Z</time>
</trkpt>
<trkpt lat="31.4305760" lon="34.4668810">
<ele>72.000000</ele>
<time>2020-03-01T02:02:23.000Z</time>
</trkpt>
<trkpt lat="31.4303920" lon="34.4668940">
<ele>73.000000</ele>
<time>2020-03-01T02:02:37.000Z</time>
</trkpt>
<trkpt lat="31.4302830" lon="34.4668630">
<ele>73.000000</ele>
<time>2020-03-01T02:02:46.000Z</time>
</trkpt>
<trkpt lat="31.4300930" lon="34.4668940">
<ele>74.000000</ele>
<time>2020-03-01T02:03:02.000Z</time>
</trkpt>
<trkpt lat="31.4300020" lon="34.4668320">
<ele>74.000000</ele>
<time>2020-03-01T02:03:10.000Z</time>
</trkpt>
<trkpt lat="31.4299240" lon="34.4667080">
<ele>73.000000</ele>
<time>2020-03-01T02:03:21.000Z</time>
</trkpt>
<trkpt lat="31.4298530" lon="34.4664120">
<ele>71.000000</ele>
<time>2020-03-01T02:03:42.000Z</time>
</trkpt>
<trkpt lat="31.4298900" lon="34.4662930">
<ele>71.000000</ele>
<time>2020-03-01T02:03:51.000Z</time>
</trkpt>
<trkpt lat="31.4299990" lon="34.4661860">
<ele>71.000000</ele>
<time>2020-03-01T02:04:02.000Z</time>
</trkpt>
<trkpt lat="31.4302810" lon="34.4661380">
<ele>72.000000</ele>
<time>2020-03-01T02:04:25.000Z</time>
</trkpt>
<trkpt lat="31.4303630" lon="34.4660680">
<ele>72.000000</ele>
<time>2020-03-01T02:04:34.000Z</time>
</trkpt>
<trkpt lat="31.4303950" lon="34.4655220">
<ele>70.000000</ele>
<time>2020-03-01T02:05:11.000Z</time>
</trkpt>
<trkpt lat="31.4304780" lon="34.4652430">
<ele>69.000000</ele>
<time>2020-03-01T02:05:31.000Z</time>
</trkpt>
<trkpt lat="31.4305020" lon="34.4649930">
<ele>68.000000</ele>
<time>2020-03-01T02:05:49.000Z</time>
</trkpt>
<trkpt lat="31.4303650" lon="34.4648020">
<ele>67.000000</ele>
<time>2020-03-01T02:06:06.000Z</time>
</trkpt>
<trkpt lat="31.4299840" lon="34.4645680">
<ele>65.000000</ele>
<time>2020-03-01T02:06:40.000Z</time>
</trkpt>
<trkpt lat="31.4298040" lon="34.4642540">
<ele>64.000000</ele>
<time>2020-03-01T02:07:06.000Z</time>
</trkpt>
<trkpt lat="31.4297640" lon="34.4640930">
<ele>63.000000</ele>
<time>2020-03-01T02:07:18.000Z</time>
</trkpt>
<trkpt lat="31.4297390" lon="34.4636720">
<ele>62.000000</ele>
<time>2020-03-01T02:07:47.000Z</time>
</trkpt>
<trkpt lat="31.4295520" lon="34.4631230">
<ele>60.000000</ele>
<time>2020-03-01T02:08:27.000Z</time>
</trkpt>
<trkpt lat="31.4293230" lon="34.4622800">
<ele>55.000000</ele>
<time>2020-03-01T02:09:28.000Z</time>
</trkpt>
<trkpt lat="31.4293070" lon="34.4619020">
<ele>53.000004</ele>
<time>2020-03-01T02:09:54.000Z</time>
</trkpt>
<trkpt lat="31.4292240" lon="34.4617160">
<ele>51.999996</ele>
<time>2020-03-01T02:10:08.000Z</time>
</trkpt>
<trkpt lat="31.4290290" lon="34.4614130">
<ele>51.000000</ele>
<time>2020-03-01T02:10:34.000Z</time>
</trkpt>
<trkpt lat="31.4289390" lon="34.4610050">
<ele>50.000000</ele>
<time>2020-03-01T02:11:03.000Z</time>
</trkpt>
<trkpt lat="31.4288930" lon="34.4609440">
<ele>50.000000</ele>
<time>2020-03-01T02:11:08.000Z</time>
</trkpt>
<trkpt lat="31.4289680" lon="34.4608980">
<ele>50.000000</ele>
<time>2020-03-01T02:11:15.000Z</time>
</trkpt>
<trkpt lat="31.4288930" lon="34.4609440">
<ele>50.000000</ele>
<time>2020-03-01T02:11:22.000Z</time>
</trkpt>
<trkpt lat="31.4287860" lon="34.4609460">
<ele>51.000000</ele>
<time>2020-03-01T02:11:31.000Z</time>
</trkpt>
<trkpt lat="31.4284510" lon="34.4611930">
<ele>51.999996</ele>
<time>2020-03-01T02:12:02.000Z</time>
</trkpt>
<trkpt lat="31.4281870" lon="34.4614800">
<ele>51.999996</ele>
<time>2020-03-01T02:12:31.000Z</time>
</trkpt>
<trkpt lat="31.4279520" lon="34.4616750">
<ele>53.000004</ele>
<time>2020-03-01T02:12:54.000Z</time>
</trkpt>
<trkpt lat="31.4273300" lon="34.4619890">
<ele>57.000000</ele>
<time>2020-03-01T02:13:49.000Z</time>
</trkpt>
<trkpt lat="31.4272960" lon="34.4621470">
<ele>57.000000</ele>
<time>2020-03-01T02:14:00.000Z</time>
</trkpt>
<trkpt lat="31.4274100" lon="34.4625910">
<ele>57.000000</ele>
<time>2020-03-01T02:14:32.000Z</time>
</trkpt>
<trkpt lat="31.4274130" lon="34.4627160">
<ele>57.000000</ele>
<time>2020-03-01T02:14:41.000Z</time>
</trkpt>
<trkpt lat="31.4273600" lon="34.4628260">
<ele>57.000000</ele>
<time>2020-03-01T02:14:49.000Z</time>
</trkpt>
<trkpt lat="31.4271600" lon="34.4630690">
<ele>58.000000</ele>
<time>2020-03-01T02:15:12.000Z</time>
</trkpt>
<trkpt lat="31.4265870" lon="34.4634060">
<ele>59.000000</ele>
<time>2020-03-01T02:16:04.000Z</time>
</trkpt>
<trkpt lat="31.4263100" lon="34.4634940">
<ele>61.000004</ele>
<time>2020-03-01T02:16:27.000Z</time>
</trkpt>
<trkpt lat="31.4260240" lon="34.4635250">
<ele>62.000000</ele>
<time>2020-03-01T02:16:50.000Z</time>
</trkpt>
<trkpt lat="31.4257640" lon="34.4636720">
<ele>64.000000</ele>
<time>2020-03-01T02:17:13.000Z</time>
</trkpt>
<trkpt lat="31.4256280" lon="34.4638100">
<ele>64.000000</ele>
<time>2020-03-01T02:17:28.000Z</time>
</trkpt>
<trkpt lat="31.4251600" lon="34.4641240">
<ele>65.000000</ele>
<time>2020-03-01T02:18:11.000Z</time>
</trkpt>
<trkpt lat="31.4249550" lon="34.4643540">
<ele>66.000000</ele>
<time>2020-03-01T02:18:34.000Z</time>
</trkpt>
<trkpt lat="31.4248330" lon="34.4646580">
<ele>68.000000</ele>
<time>2020-03-01T02:18:57.000Z</time>
</trkpt>
<trkpt lat="31.4245370" lon="34.4648950">
<ele>68.000000</ele>
<time>2020-03-01T02:19:26.000Z</time>
</trkpt>
<trkpt lat="31.4244250" lon="34.4650010">
<ele>68.000000</ele>
<time>2020-03-01T02:19:38.000Z</time>
</trkpt>
<trkpt lat="31.4242080" lon="34.4654390">
<ele>69.000000</ele>
<time>2020-03-01T02:20:12.000Z</time>
</trkpt>
<trkpt lat="31.4239890" lon="34.4656540">
<ele>72.000000</ele>
<time>2020-03-01T02:20:35.000Z</time>
</trkpt>
<trkpt lat="31.4238380" lon="34.4662150">
<ele>75.000000</ele>
<time>2020-03-01T02:21:16.000Z</time>
</trkpt>
<trkpt lat="31.4237080" lon="34.4662790">
<ele>76.000000</ele>
<time>2020-03-01T02:21:27.000Z</time>
</trkpt>
<trkpt lat="31.4232810" lon="34.4663370">
<ele>79.000000</ele>
<time>2020-03-01T02:22:01.000Z</time>
</trkpt>
<trkpt lat="31.4231810" lon="34.4663850">
<ele>80.000000</ele>
<time>2020-03-01T02:22:10.000Z</time>
</trkpt>
<trkpt lat="31.4229340" lon="34.4666810">
<ele>82.000000</ele>
<time>2020-03-01T02:22:39.000Z</time>
</trkpt>
<trkpt lat="31.4228340" lon="34.4667390">
<ele>82.000000</ele>
<time>2020-03-01T02:22:48.000Z</time>
</trkpt>
<trkpt lat="31.4227440" lon="34.4667280">
<ele>83.000000</ele>
<time>2020-03-01T02:22:55.000Z</time>
</trkpt>
<trkpt lat="31.4225490" lon="34.4665890">
<ele>85.000000</ele>
<time>2020-03-01T02:23:14.000Z</time>
</trkpt>
<trkpt lat="31.4225130" lon="34.4663650">
<ele>85.000000</ele>
<time>2020-03-01T02:23:29.000Z</time>
</trkpt>
<trkpt lat="31.4225160" lon="34.4661980">
<ele>85.000000</ele>
<time>2020-03-01T02:23:41.000Z</time>
</trkpt>
<trkpt lat="31.4225790" lon="34.4660970">
<ele>84.000000</ele>
<time>2020-03-01T02:23:49.000Z</time>
</trkpt>
<trkpt lat="31.4226870" lon="34.4660040">
<ele>83.000000</ele>
<time>2020-03-01T02:24:00.000Z</time>
</trkpt>
<trkpt lat="31.4227020" lon="34.4657100">
<ele>82.000000</ele>
<time>2020-03-01T02:24:21.000Z</time>
</trkpt>
<trkpt lat="31.4228510" lon="34.4654210">
<ele>80.000000</ele>
<time>2020-03-01T02:24:44.000Z</time>
</trkpt>
<trkpt lat="31.4230900" lon="34.4651660">
<ele>77.000000</ele>
<time>2020-03-01T02:25:10.000Z</time>
</trkpt>
<trkpt lat="31.4232500" lon="34.4649380">
<ele>76.000000</ele>
<time>2020-03-01T02:25:30.000Z</time>
</trkpt>
<trkpt lat="31.4232730" lon="34.4646060">
<ele>76.000000</ele>
<time>2020-03-01T02:25:53.000Z</time>
</trkpt>
<trkpt lat="31.4232510" lon="34.4642860">
<ele>77.000000</ele>
<time>2020-03-01T02:26:15.000Z</time>
</trkpt>
<trkpt lat="31.4232680" lon="34.4641720">
<ele>77.000000</ele>
<time>2020-03-01T02:26:23.000Z</time>
</trkpt>
<trkpt lat="31.4234180" lon="34.4638170">
<ele>75.000000</ele>
<time>2020-03-01T02:26:50.000Z</time>
</trkpt>
<trkpt lat="31.4234070" lon="34.4637780">
<ele>75.000000</ele>
<time>2020-03-01T02:26:53.000Z</time>
</trkpt>
<trkpt lat="31.4233290" lon="34.4637500">
<ele>76.000000</ele>
<time>2020-03-01T02:26:59.000Z</time>
</trkpt>
<trkpt lat="31.4230000" lon="34.4638340">
<ele>78.000000</ele>
<time>2020-03-01T02:27:26.000Z</time>
</trkpt>
<trkpt lat="31.4229370" lon="34.4639820">
<ele>78.000000</ele>
<time>2020-03-01T02:27:38.000Z</time>
</trkpt>
<trkpt lat="31.4228470" lon="34.4639590">
<ele>79.000000</ele>
<time>2020-03-01T02:27:46.000Z</time>
</trkpt>
<trkpt lat="31.4227740" lon="34.4639810">
<ele>79.000000</ele>
<time>2020-03-01T02:27:52.000Z</time>
</trkpt>
<trkpt lat="31.4226710" lon="34.4639590">
<ele>80.000000</ele>
<time>2020-03-01T02:28:00.000Z</time>
</trkpt>
<trkpt lat="31.4225570" lon="34.4637600">
<ele>80.999992</ele>
<time>2020-03-01T02:28:17.000Z</time>
</trkpt>
<trkpt lat="31.4225190" lon="34.4637410">
<ele>80.999992</ele>
<time>2020-03-01T02:28:20.000Z</time>
</trkpt>
<trkpt lat="31.4221600" lon="34.4637020">
<ele>79.000000</ele>
<time>2020-03-01T02:28:49.000Z</time>
</trkpt>
<trkpt lat="31.4219690" lon="34.4637450">
<ele>78.000000</ele>
<time>2020-03-01T02:29:05.000Z</time>
</trkpt>
<trkpt lat="31.4217470" lon="34.4637070">
<ele>77.000000</ele>
<time>2020-03-01T02:29:23.000Z</time>
</trkpt>
<trkpt lat="31.4215690" lon="34.4637380">
<ele>76.000000</ele>
<time>2020-03-01T02:29:38.000Z</time>
</trkpt>
<trkpt lat="31.4213450" lon="34.4637330">
<ele>75.000000</ele>
<time>2020-03-01T02:29:56.000Z</time>
</trkpt>
<trkpt lat="31.4208660" lon="34.4635640">
<ele>72.000000</ele>
<time>2020-03-01T02:30:36.000Z</time>
</trkpt>
<trkpt lat="31.4206110" lon="34.4635050">
<ele>73.000000</ele>
<time>2020-03-01T02:30:57.000Z</time>
</trkpt>
<trkpt lat="31.4197980" lon="34.4630900">
<ele>75.000000</ele>
<time>2020-03-01T02:32:08.000Z</time>
</trkpt>
<trkpt lat="31.4192670" lon="34.4628990">
<ele>74.000000</ele>
<time>2020-03-01T02:32:53.000Z</time>
</trkpt>
<trkpt lat="31.4191960" lon="34.4627990">
<ele>73.000000</ele>
<time>2020-03-01T02:33:02.000Z</time>
</trkpt>
<trkpt lat="31.4191620" lon="34.4626620">
<ele>73.000000</ele>
<time>2020-03-01T02:33:12.000Z</time>
</trkpt>
<trkpt lat="31.4191630" lon="34.4622400">
<ele>73.000000</ele>
<time>2020-03-01T02:33:40.000Z</time>
</trkpt>
<trkpt lat="31.4191370" lon="34.4618510">
<ele>72.000000</ele>
<time>2020-03-01T02:34:07.000Z</time>
</trkpt>
<trkpt lat="31.4191880" lon="34.4605860">
<ele>70.000000</ele>
<time>2020-03-01T02:35:34.000Z</time>
</trkpt>
<trkpt lat="31.4192250" lon="34.4603750">
<ele>70.000000</ele>
<time>2020-03-01T02:35:49.000Z</time>
</trkpt>
<trkpt lat="31.4193540" lon="34.4600490">
<ele>70.000000</ele>
<time>2020-03-01T02:36:13.000Z</time>
</trkpt>
<trkpt lat="31.4196920" lon="34.4595840">
<ele>72.000000</ele>
<time>2020-03-01T02:36:55.000Z</time>
</trkpt>
<trkpt lat="31.4197530" lon="34.4594470">
<ele>72.000000</ele>
<time>2020-03-01T02:37:06.000Z</time>
</trkpt>
<trkpt lat="31.4197070" lon="34.4593560">
<ele>72.000000</ele>
<time>2020-03-01T02:37:13.000Z</time>
</trkpt>
<trkpt lat="31.4195990" lon="34.4592840">
<ele>72.000000</ele>
<time>2020-03-01T02:37:24.000Z</time>
</trkpt>
<trkpt lat="31.4193420" lon="34.4586930">
<ele>71.000000</ele>
<time>2020-03-01T02:38:09.000Z</time>
</trkpt>
<trkpt lat="31.4190580" lon="34.4584600">
<ele>70.000000</ele>
<time>2020-03-01T02:38:37.000Z</time>
</trkpt>
<trkpt lat="31.4188360" lon="34.4583680">
<ele>69.000000</ele>
<time>2020-03-01T02:38:56.000Z</time>
</trkpt>
<trkpt lat="31.4186180" lon="34.4585900">
<ele>68.000000</ele>
<time>2020-03-01T02:39:20.000Z</time>
</trkpt>
<trkpt lat="31.4182640" lon="34.4585630">
<ele>67.000000</ele>
<time>2020-03-01T02:39:49.000Z</time>
</trkpt>
<trkpt lat="31.4181060" lon="34.4585020">
<ele>66.000000</ele>
<time>2020-03-01T02:40:02.000Z</time>
</trkpt>
<trkpt lat="31.4153010" lon="34.4568630">
<ele>58.000000</ele>
<time>2020-03-01T02:44:13.000Z</time>
</trkpt>
<trkpt lat="31.4150360" lon="34.4568580">
<ele>58.000000</ele>
<time>2020-03-01T02:44:35.000Z</time>
</trkpt>
<trkpt lat="31.4147950" lon="34.4570180">
<ele>58.000000</ele>
<time>2020-03-01T02:44:57.000Z</time>
</trkpt>
<trkpt lat="31.4144060" lon="34.4569610">
<ele>58.000000</ele>
<time>2020-03-01T02:45:29.000Z</time>
</trkpt>
<trkpt lat="31.4141000" lon="34.4568320">
<ele>57.000000</ele>
<time>2020-03-01T02:45:55.000Z</time>
</trkpt>
<trkpt lat="31.4140080" lon="34.4567850">
<ele>57.000000</ele>
<time>2020-03-01T02:46:03.000Z</time>
</trkpt>
<trkpt lat="31.4137390" lon="34.4564280">
<ele>57.000000</ele>
<time>2020-03-01T02:46:36.000Z</time>
</trkpt>
<trkpt lat="31.4135090" lon="34.4563100">
<ele>57.000000</ele>
<time>2020-03-01T02:46:56.000Z</time>
</trkpt>
<trkpt lat="31.4132790" lon="34.4562830">
<ele>57.000000</ele>
<time>2020-03-01T02:47:15.000Z</time>
</trkpt>
<trkpt lat="31.4129080" lon="34.4560300">
<ele>56.000000</ele>
<time>2020-03-01T02:47:49.000Z</time>
</trkpt>
<trkpt lat="31.4124930" lon="34.4556040">
<ele>55.000000</ele>
<time>2020-03-01T02:48:33.000Z</time>
</trkpt>
<trkpt lat="31.4123300" lon="34.4554750">
<ele>54.000000</ele>
<time>2020-03-01T02:48:49.000Z</time>
</trkpt>
<trkpt lat="31.4122110" lon="34.4554140">
<ele>54.000000</ele>
<time>2020-03-01T02:49:00.000Z</time>
</trkpt>
<trkpt lat="31.4115370" lon="34.4552100">
<ele>53.000004</ele>
<time>2020-03-01T02:49:56.000Z</time>
</trkpt>
<trkpt lat="31.4112750" lon="34.4550440">
<ele>54.000000</ele>
<time>2020-03-01T02:50:20.000Z</time>
</trkpt>
<trkpt lat="31.4111600" lon="34.4548420">
<ele>54.000000</ele>
<time>2020-03-01T02:50:36.000Z</time>
</trkpt>
<trkpt lat="31.4107690" lon="34.4546360">
<ele>53.000004</ele>
<time>2020-03-01T02:51:11.000Z</time>
</trkpt>
<trkpt lat="31.4105750" lon="34.4544190">
<ele>51.999996</ele>
<time>2020-03-01T02:51:33.000Z</time>
</trkpt>
<trkpt lat="31.4104390" lon="34.4543890">
<ele>53.000004</ele>
<time>2020-03-01T02:51:44.000Z</time>
</trkpt>
<trkpt lat="31.4103720" lon="34.4543260">
<ele>51.999996</ele>
<time>2020-03-01T02:51:51.000Z</time>
</trkpt>
<trkpt lat="31.4101970" lon="34.4539690">
<ele>53.000004</ele>
<time>2020-03-01T02:52:19.000Z</time>
</trkpt>
<trkpt lat="31.4098190" lon="34.4535910">
<ele>54.000000</ele>
<time>2020-03-01T02:52:59.000Z</time>
</trkpt>
<trkpt lat="31.4097300" lon="34.4534250">
<ele>55.000000</ele>
<time>2020-03-01T02:53:12.000Z</time>
</trkpt>
<trkpt lat="31.4095850" lon="34.4532550">
<ele>55.000000</ele>
<time>2020-03-01T02:53:29.000Z</time>
</trkpt>
<trkpt lat="31.4094900" lon="34.4531020">
<ele>54.000000</ele>
<time>2020-03-01T02:53:42.000Z</time>
</trkpt>
<trkpt lat="31.4093990" lon="34.4528170">
<ele>53.000004</ele>
<time>2020-03-01T02:54:03.000Z</time>
</trkpt>
<trkpt lat="31.4093620" lon="34.4526890">
<ele>51.999996</ele>
<time>2020-03-01T02:54:12.000Z</time>
</trkpt>
<trkpt lat="31.4092710" lon="34.4507730">
<ele>50.000000</ele>
<time>2020-03-01T02:56:23.000Z</time>
</trkpt>
<trkpt lat="31.4092000" lon="34.4502480">
<ele>49.000000</ele>
<time>2020-03-01T02:57:00.000Z</time>
</trkpt>
<trkpt lat="31.4091200" lon="34.4490590">
<ele>49.000000</ele>
<time>2020-03-01T02:58:22.000Z</time>
</trkpt>
<trkpt lat="31.4090390" lon="34.4486230">
<ele>48.000000</ele>
<time>2020-03-01T02:58:52.000Z</time>
</trkpt>
<trkpt lat="31.4090320" lon="34.4484630">
<ele>48.000000</ele>
<time>2020-03-01T02:59:03.000Z</time>
</trkpt>
<trkpt lat="31.4088390" lon="34.4476940">
<ele>46.000000</ele>
<time>2020-03-01T02:59:58.000Z</time>
</trkpt>
<trkpt lat="31.4086540" lon="34.4472850">
<ele>45.000004</ele>
<time>2020-03-01T03:00:30.000Z</time>
</trkpt>
<trkpt lat="31.4082930" lon="34.4456150">
<ele>43.000000</ele>
<time>2020-03-01T03:02:28.000Z</time>
</trkpt>
<trkpt lat="31.4083440" lon="34.4453670">
<ele>43.999996</ele>
<time>2020-03-01T03:02:45.000Z</time>
</trkpt>
<trkpt lat="31.4084950" lon="34.4450320">
<ele>43.999996</ele>
<time>2020-03-01T03:03:11.000Z</time>
</trkpt>
<trkpt lat="31.4086590" lon="34.4445160">
<ele>43.999996</ele>
<time>2020-03-01T03:03:49.000Z</time>
</trkpt>
<trkpt lat="31.4086530" lon="34.4442950">
<ele>43.999996</ele>
<time>2020-03-01T03:04:04.000Z</time>
</trkpt>
<trkpt lat="31.4087050" lon="34.4440920">
<ele>43.000000</ele>
<time>2020-03-01T03:04:19.000Z</time>
</trkpt>
<trkpt lat="31.4087010" lon="34.4439710">
<ele>43.000000</ele>
<time>2020-03-01T03:04:27.000Z</time>
</trkpt>
<trkpt lat="31.4086340" lon="34.4437150">
<ele>43.000000</ele>
<time>2020-03-01T03:04:45.000Z</time>
</trkpt>
<trkpt lat="31.4086280" lon="34.4434870">
<ele>42.000000</ele>
<time>2020-03-01T03:05:01.000Z</time>
</trkpt>
<trkpt lat="31.4088210" lon="34.4429760">
<ele>41.000000</ele>
<time>2020-03-01T03:05:39.000Z</time>
</trkpt>
<trkpt lat="31.4090240" lon="34.4427480">
<ele>40.000000</ele>
<time>2020-03-01T03:06:02.000Z</time>
</trkpt>
<trkpt lat="31.4090660" lon="34.4420960">
<ele>38.000000</ele>
<time>2020-03-01T03:06:47.000Z</time>
</trkpt>
<trkpt lat="31.4091620" lon="34.4417610">
<ele>36.000000</ele>
<time>2020-03-01T03:07:11.000Z</time>
</trkpt>
<trkpt lat="31.4092740" lon="34.4414760">
<ele>36.000000</ele>
<time>2020-03-01T03:07:33.000Z</time>
</trkpt>
<trkpt lat="31.4096250" lon="34.4410300">
<ele>36.000000</ele>
<time>2020-03-01T03:08:14.000Z</time>
</trkpt>
<trkpt lat="31.4096790" lon="34.4406900">
<ele>36.000000</ele>
<time>2020-03-01T03:08:38.000Z</time>
</trkpt>
<trkpt lat="31.4097390" lon="34.4406680">
<ele>36.000000</ele>
<time>2020-03-01T03:08:43.000Z</time>
</trkpt>
<trkpt lat="31.4097600" lon="34.4405900">
<ele>36.000000</ele>
<time>2020-03-01T03:08:49.000Z</time>
</trkpt>
<trkpt lat="31.4097900" lon="34.4401240">
<ele>36.000000</ele>
<time>2020-03-01T03:09:21.000Z</time>
</trkpt>
<trkpt lat="31.4097400" lon="34.4398610">
<ele>37.000000</ele>
<time>2020-03-01T03:09:39.000Z</time>
</trkpt>
<trkpt lat="31.4096310" lon="34.4397160">
<ele>38.000000</ele>
<time>2020-03-01T03:09:53.000Z</time>
</trkpt>
<trkpt lat="31.4096180" lon="34.4395230">
<ele>39.000000</ele>
<time>2020-03-01T03:10:06.000Z</time>
</trkpt>
<trkpt lat="31.4098230" lon="34.4393470">
<ele>39.000000</ele>
<time>2020-03-01T03:10:27.000Z</time>
</trkpt>
<trkpt lat="31.4101790" lon="34.4391790">
<ele>39.000000</ele>
<time>2020-03-01T03:10:58.000Z</time>
</trkpt>
<trkpt lat="31.4105940" lon="34.4389110">
<ele>37.000000</ele>
<time>2020-03-01T03:11:36.000Z</time>
</trkpt>
<trkpt lat="31.4109660" lon="34.4384430">
<ele>38.000000</ele>
<time>2020-03-01T03:12:20.000Z</time>
</trkpt>
<trkpt lat="31.4111540" lon="34.4381230">
<ele>37.000000</ele>
<time>2020-03-01T03:12:46.000Z</time>
</trkpt>
<trkpt lat="31.4114100" lon="34.4375930">
<ele>35.000000</ele>
<time>2020-03-01T03:13:28.000Z</time>
</trkpt>
<trkpt lat="31.4115090" lon="34.4372880">
<ele>34.000000</ele>
<time>2020-03-01T03:13:50.000Z</time>
</trkpt>
<trkpt lat="31.4114560" lon="34.4369790">
<ele>34.000000</ele>
<time>2020-03-01T03:14:12.000Z</time>
</trkpt>
<trkpt lat="31.4114690" lon="34.4367880">
<ele>33.000000</ele>
<time>2020-03-01T03:14:25.000Z</time>
</trkpt>
<trkpt lat="31.4115110" lon="34.4366330">
<ele>33.000000</ele>
<time>2020-03-01T03:14:36.000Z</time>
</trkpt>
<trkpt lat="31.4116260" lon="34.4364540">
<ele>33.000000</ele>
<time>2020-03-01T03:14:52.000Z</time>
</trkpt>
<trkpt lat="31.4118080" lon="34.4360050">
<ele>35.000000</ele>
<time>2020-03-01T03:15:26.000Z</time>
</trkpt>
<trkpt lat="31.4120630" lon="34.4356480">
<ele>35.000000</ele>
<time>2020-03-01T03:15:58.000Z</time>
</trkpt>
<trkpt lat="31.4121100" lon="34.4355190">
<ele>35.000000</ele>
<time>2020-03-01T03:16:08.000Z</time>
</trkpt>
<trkpt lat="31.4121430" lon="34.4352410">
<ele>36.000000</ele>
<time>2020-03-01T03:16:27.000Z</time>
</trkpt>
<trkpt lat="31.4122510" lon="34.4350490">
<ele>36.000000</ele>
<time>2020-03-01T03:16:43.000Z</time>
</trkpt>
<trkpt lat="31.4123320" lon="34.4349800">
<ele>36.000000</ele>
<time>2020-03-01T03:16:51.000Z</time>
</trkpt>
<trkpt lat="31.4130070" lon="34.4347440">
<ele>32.000000</ele>
<time>2020-03-01T03:17:48.000Z</time>
</trkpt>
<trkpt lat="31.4134400" lon="34.4346850">
<ele>30.000000</ele>
<time>2020-03-01T03:18:23.000Z</time>
</trkpt>
<trkpt lat="31.4138790" lon="34.4346520">
<ele>30.000000</ele>
<time>2020-03-01T03:18:58.000Z</time>
</trkpt>
<trkpt lat="31.4140910" lon="34.4346800">
<ele>29.000000</ele>
<time>2020-03-01T03:19:15.000Z</time>
</trkpt>
<trkpt lat="31.4142030" lon="34.4346430">
<ele>30.000000</ele>
<time>2020-03-01T03:19:24.000Z</time>
</trkpt>
<trkpt lat="31.4144180" lon="34.4344730">
<ele>31.000000</ele>
<time>2020-03-01T03:19:45.000Z</time>
</trkpt>
<trkpt lat="31.4148110" lon="34.4342760">
<ele>33.000000</ele>
<time>2020-03-01T03:20:20.000Z</time>
</trkpt>
<trkpt lat="31.4150530" lon="34.4340740">
<ele>32.000000</ele>
<time>2020-03-01T03:20:43.000Z</time>
</trkpt>
<trkpt lat="31.4152820" lon="34.4337790">
<ele>30.000000</ele>
<time>2020-03-01T03:21:11.000Z</time>
</trkpt>
<trkpt lat="31.4153110" lon="34.4333970">
<ele>27.000000</ele>
<time>2020-03-01T03:21:37.000Z</time>
</trkpt>
<trkpt lat="31.4154110" lon="34.4329540">
<ele>25.000000</ele>
<time>2020-03-01T03:22:09.000Z</time>
</trkpt>
<trkpt lat="31.4153230" lon="34.4328230">
<ele>25.000000</ele>
<time>2020-03-01T03:22:20.000Z</time>
</trkpt>
<trkpt lat="31.4150850" lon="34.4327420">
<ele>25.000000</ele>
<time>2020-03-01T03:22:41.000Z</time>
</trkpt>
<trkpt lat="31.4148540" lon="34.4323010">
<ele>25.000000</ele>
<time>2020-03-01T03:23:16.000Z</time>
</trkpt>
<trkpt lat="31.4147580" lon="34.4322180">
<ele>25.999998</ele>
<time>2020-03-01T03:23:26.000Z</time>
</trkpt>
<trkpt lat="31.4146590" lon="34.4322250">
<ele>25.999998</ele>
<time>2020-03-01T03:23:34.000Z</time>
</trkpt>
<trkpt lat="31.4146010" lon="34.4321960">
<ele>25.999998</ele>
<time>2020-03-01T03:23:39.000Z</time>
</trkpt>
<trkpt lat="31.4145010" lon="34.4320710">
<ele>25.999998</ele>
<time>2020-03-01T03:23:50.000Z</time>
</trkpt>
<trkpt lat="31.4143440" lon="34.4317570">
<ele>25.999998</ele>
<time>2020-03-01T03:24:15.000Z</time>
</trkpt>
<trkpt lat="31.4143340" lon="34.4315560">
<ele>25.000000</ele>
<time>2020-03-01T03:24:30.000Z</time>
</trkpt>
<trkpt lat="31.4138850" lon="34.4315440">
<ele>25.000000</ele>
<time>2020-03-01T03:25:06.000Z</time>
</trkpt>
<trkpt lat="31.4138020" lon="34.4316590">
<ele>25.999998</ele>
<time>2020-03-01T03:25:17.000Z</time>
</trkpt>
<trkpt lat="31.4137190" lon="34.4316880">
<ele>25.999998</ele>
<time>2020-03-01T03:25:24.000Z</time>
</trkpt>
<trkpt lat="31.4135630" lon="34.4315640">
<ele>25.999998</ele>
<time>2020-03-01T03:25:39.000Z</time>
</trkpt>
<trkpt lat="31.4134500" lon="34.4315460">
<ele>25.999998</ele>
<time>2020-03-01T03:25:49.000Z</time>
</trkpt>
<trkpt lat="31.4133310" lon="34.4316400">
<ele>27.000000</ele>
<time>2020-03-01T03:26:00.000Z</time>
</trkpt>
<trkpt lat="31.4132340" lon="34.4316120">
<ele>27.000000</ele>
<time>2020-03-01T03:26:09.000Z</time>
</trkpt>
<trkpt lat="31.4130940" lon="34.4316590">
<ele>28.000000</ele>
<time>2020-03-01T03:26:21.000Z</time>
</trkpt>
<trkpt lat="31.4130340" lon="34.4315990">
<ele>27.000000</ele>
<time>2020-03-01T03:26:27.000Z</time>
</trkpt>
<trkpt lat="31.4130060" lon="34.4315010">
<ele>27.000000</ele>
<time>2020-03-01T03:26:34.000Z</time>
</trkpt>
<trkpt lat="31.4128550" lon="34.4313730">
<ele>27.000000</ele>
<time>2020-03-01T03:26:49.000Z</time>
</trkpt>
<trkpt lat="31.4128310" lon="34.4312840">
<ele>27.000000</ele>
<time>2020-03-01T03:26:56.000Z</time>
</trkpt>
<trkpt lat="31.4128420" lon="34.4310020">
<ele>25.000000</ele>
<time>2020-03-01T03:27:15.000Z</time>
</trkpt>
<trkpt lat="31.4128140" lon="34.4309570">
<ele>25.000000</ele>
<time>2020-03-01T03:27:19.000Z</time>
</trkpt>
<trkpt lat="31.4126840" lon="34.4309510">
<ele>25.999998</ele>
<time>2020-03-01T03:27:29.000Z</time>
</trkpt>
<trkpt lat="31.4125260" lon="34.4308830">
<ele>25.999998</ele>
<time>2020-03-01T03:27:43.000Z</time>
</trkpt>
<trkpt lat="31.4123980" lon="34.4306870">
<ele>25.999998</ele>
<time>2020-03-01T03:28:00.000Z</time>
</trkpt>
<trkpt lat="31.4124420" lon="34.4301680">
<ele>25.000000</ele>
<time>2020-03-01T03:28:36.000Z</time>
</trkpt>
<trkpt lat="31.4123710" lon="34.4299570">
<ele>25.000000</ele>
<time>2020-03-01T03:28:52.000Z</time>
</trkpt>
<trkpt lat="31.4121280" lon="34.4296450">
<ele>25.000000</ele>
<time>2020-03-01T03:29:20.000Z</time>
</trkpt>
<trkpt lat="31.4121010" lon="34.4295820">
<ele>25.000000</ele>
<time>2020-03-01T03:29:25.000Z</time>
</trkpt>
<trkpt lat="31.4120860" lon="34.4293300">
<ele>24.000000</ele>
<time>2020-03-01T03:29:43.000Z</time>
</trkpt>
<trkpt lat="31.4120140" lon="34.4292550">
<ele>24.000000</ele>
<time>2020-03-01T03:29:51.000Z</time>
</trkpt>
<trkpt lat="31.4116950" lon="34.4291960">
<ele>25.000000</ele>
<time>2020-03-01T03:30:17.000Z</time>
</trkpt>
<trkpt lat="31.4115430" lon="34.4292060">
<ele>25.000000</ele>
<time>2020-03-01T03:30:29.000Z</time>
</trkpt>
<trkpt lat="31.4113400" lon="34.4291250">
<ele>24.000000</ele>
<time>2020-03-01T03:30:47.000Z</time>
</trkpt>
<trkpt lat="31.4112210" lon="34.4291440">
<ele>24.000000</ele>
<time>2020-03-01T03:30:56.000Z</time>
</trkpt>
<trkpt lat="31.4111550" lon="34.4293650">
<ele>25.000000</ele>
<time>2020-03-01T03:31:13.000Z</time>
</trkpt>
<trkpt lat="31.4107520" lon="34.4298470">
<ele>25.000000</ele>
<time>2020-03-01T03:31:59.000Z</time>
</trkpt>
<trkpt lat="31.4106190" lon="34.4299420">
<ele>25.000000</ele>
<time>2020-03-01T03:32:11.000Z</time>
</trkpt>
<trkpt lat="31.4104690" lon="34.4301150">
<ele>25.000000</ele>
<time>2020-03-01T03:32:28.000Z</time>
</trkpt>
<trkpt lat="31.4104120" lon="34.4303920">
<ele>25.000000</ele>
<time>2020-03-01T03:32:48.000Z</time>
</trkpt>
<trkpt lat="31.4102480" lon="34.4308160">
<ele>25.999998</ele>
<time>2020-03-01T03:33:20.000Z</time>
</trkpt>
<trkpt lat="31.4102010" lon="34.4310760">
<ele>25.999998</ele>
<time>2020-03-01T03:33:38.000Z</time>
</trkpt>
<trkpt lat="31.4099790" lon="34.4316520">
<ele>27.000000</ele>
<time>2020-03-01T03:34:22.000Z</time>
</trkpt>
<trkpt lat="31.4099190" lon="34.4319060">
<ele>27.000000</ele>
<time>2020-03-01T03:34:40.000Z</time>
</trkpt>
<trkpt lat="31.4098120" lon="34.4320610">
<ele>27.000000</ele>
<time>2020-03-01T03:34:54.000Z</time>
</trkpt>
<trkpt lat="31.4093270" lon="34.4335060">
<ele>29.000000</ele>
<time>2020-03-01T03:36:40.000Z</time>
</trkpt>
<trkpt lat="31.4092270" lon="34.4335440">
<ele>28.000000</ele>
<time>2020-03-01T03:36:49.000Z</time>
</trkpt>
<trkpt lat="31.4089780" lon="34.4334930">
<ele>27.000000</ele>
<time>2020-03-01T03:37:09.000Z</time>
</trkpt>
<trkpt lat="31.4087820" lon="34.4335780">
<ele>27.000000</ele>
<time>2020-03-01T03:37:26.000Z</time>
</trkpt>
<trkpt lat="31.4084820" lon="34.4334940">
<ele>25.999998</ele>
<time>2020-03-01T03:37:52.000Z</time>
</trkpt>
<trkpt lat="31.4080630" lon="34.4336270">
<ele>25.999998</ele>
<time>2020-03-01T03:38:26.000Z</time>
</trkpt>
<trkpt lat="31.4078880" lon="34.4337460">
<ele>25.999998</ele>
<time>2020-03-01T03:38:43.000Z</time>
</trkpt>
<trkpt lat="31.4078370" lon="34.4337700">
<ele>25.999998</ele>
<time>2020-03-01T03:38:47.000Z</time>
</trkpt>
<trkpt lat="31.4077500" lon="34.4337500">
<ele>25.999998</ele>
<time>2020-03-01T03:38:55.000Z</time>
</trkpt>
<trkpt lat="31.4077030" lon="34.4338280">
<ele>25.999998</ele>
<time>2020-03-01T03:39:01.000Z</time>
</trkpt>
<trkpt lat="31.4074110" lon="34.4340110">
<ele>25.999998</ele>
<time>2020-03-01T03:39:28.000Z</time>
</trkpt>
<trkpt lat="31.4071420" lon="34.4341100">
<ele>25.999998</ele>
<time>2020-03-01T03:39:50.000Z</time>
</trkpt>
<trkpt lat="31.4069730" lon="34.4342600">
<ele>25.999998</ele>
<time>2020-03-01T03:40:08.000Z</time>
</trkpt>
<trkpt lat="31.4065040" lon="34.4344550">
<ele>27.000000</ele>
<time>2020-03-01T03:40:48.000Z</time>
</trkpt>
<trkpt lat="31.4060790" lon="34.4347490">
<ele>28.000000</ele>
<time>2020-03-01T03:41:28.000Z</time>
</trkpt>
<trkpt lat="31.4052210" lon="34.4352170">
<ele>28.000000</ele>
<time>2020-03-01T03:42:44.000Z</time>
</trkpt>
<trkpt lat="31.4051090" lon="34.4353190">
<ele>28.000000</ele>
<time>2020-03-01T03:42:55.000Z</time>
</trkpt>
<trkpt lat="31.4050270" lon="34.4353530">
<ele>28.000000</ele>
<time>2020-03-01T03:43:02.000Z</time>
</trkpt>
<trkpt lat="31.4048180" lon="34.4353230">
<ele>28.000000</ele>
<time>2020-03-01T03:43:19.000Z</time>
</trkpt>
<trkpt lat="31.4044720" lon="34.4353510">
<ele>27.000000</ele>
<time>2020-03-01T03:43:47.000Z</time>
</trkpt>
<trkpt lat="31.4043680" lon="34.4354290">
<ele>27.000000</ele>
<time>2020-03-01T03:43:57.000Z</time>
</trkpt>
<trkpt lat="31.4039460" lon="34.4360870">
<ele>27.000000</ele>
<time>2020-03-01T03:44:53.000Z</time>
</trkpt>
<trkpt lat="31.4037840" lon="34.4364810">
<ele>30.000000</ele>
<time>2020-03-01T03:45:23.000Z</time>
</trkpt>
<trkpt lat="31.4036400" lon="34.4366510">
<ele>31.000000</ele>
<time>2020-03-01T03:45:40.000Z</time>
</trkpt>
<trkpt lat="31.4035470" lon="34.4366870">
<ele>31.000000</ele>
<time>2020-03-01T03:45:48.000Z</time>
</trkpt>
<trkpt lat="31.4034520" lon="34.4366870">
<ele>30.000000</ele>
<time>2020-03-01T03:45:55.000Z</time>
</trkpt>
<trkpt lat="31.4031560" lon="34.4365820">
<ele>29.000000</ele>
<time>2020-03-01T03:46:20.000Z</time>
</trkpt>
<trkpt lat="31.4030520" lon="34.4365860">
<ele>29.000000</ele>
<time>2020-03-01T03:46:29.000Z</time>
</trkpt>
<trkpt lat="31.4028600" lon="34.4366880">
<ele>29.000000</ele>
<time>2020-03-01T03:46:46.000Z</time>
</trkpt>
<trkpt lat="31.4027330" lon="34.4367150">
<ele>29.000000</ele>
<time>2020-03-01T03:46:56.000Z</time>
</trkpt>
<trkpt lat="31.4023720" lon="34.4367140">
<ele>29.000000</ele>
<time>2020-03-01T03:47:25.000Z</time>
</trkpt>
<trkpt lat="31.4011890" lon="34.4364030">
<ele>30.000000</ele>
<time>2020-03-01T03:49:02.000Z</time>
</trkpt>
<trkpt lat="31.4007800" lon="34.4363220">
<ele>29.000000</ele>
<time>2020-03-01T03:49:36.000Z</time>
</trkpt>
<trkpt lat="31.4004130" lon="34.4363100">
<ele>29.000000</ele>
<time>2020-03-01T03:50:05.000Z</time>
</trkpt>
<trkpt lat="31.4001020" lon="34.4363600">
<ele>29.000000</ele>
<time>2020-03-01T03:50:30.000Z</time>
</trkpt>
<trkpt lat="31.3997770" lon="34.4364660">
<ele>29.000000</ele>
<time>2020-03-01T03:50:57.000Z</time>
</trkpt>
<trkpt lat="31.3994940" lon="34.4366100">
<ele>28.000000</ele>
<time>2020-03-01T03:51:22.000Z</time>
</trkpt>
<trkpt lat="31.3993530" lon="34.4366410">
<ele>28.000000</ele>
<time>2020-03-01T03:51:34.000Z</time>
</trkpt>
<trkpt lat="31.3990640" lon="34.4367940">
<ele>28.000000</ele>
<time>2020-03-01T03:51:59.000Z</time>
</trkpt>
<trkpt lat="31.3989160" lon="34.4369610">
<ele>29.000000</ele>
<time>2020-03-01T03:52:16.000Z</time>
</trkpt>
<trkpt lat="31.3985480" lon="34.4371840">
<ele>29.000000</ele>
<time>2020-03-01T03:52:49.000Z</time>
</trkpt>
<trkpt lat="31.3983570" lon="34.4377970">
<ele>30.000000</ele>
<time>2020-03-01T03:53:34.000Z</time>
</trkpt>
<trkpt lat="31.3983610" lon="34.4383710">
<ele>29.000000</ele>
<time>2020-03-01T03:54:13.000Z</time>
</trkpt>
<trkpt lat="31.3985530" lon="34.4393310">
<ele>32.000000</ele>
<time>2020-03-01T03:55:21.000Z</time>
</trkpt>
<trkpt lat="31.3988080" lon="34.4402490">
<ele>33.000000</ele>
<time>2020-03-01T03:56:27.000Z</time>
</trkpt>
<trkpt lat="31.3990200" lon="34.4407560">
<ele>34.000000</ele>
<time>2020-03-01T03:57:06.000Z</time>
</trkpt>
<trkpt lat="31.3994330" lon="34.4414170">
<ele>33.000000</ele>
<time>2020-03-01T03:58:02.000Z</time>
</trkpt>
<trkpt lat="31.3996180" lon="34.4418570">
<ele>33.000000</ele>
<time>2020-03-01T03:58:36.000Z</time>
</trkpt>
<trkpt lat="31.3996260" lon="34.4419300">
<ele>33.000000</ele>
<time>2020-03-01T03:58:41.000Z</time>
</trkpt>
<trkpt lat="31.3995670" lon="34.4419170">
<ele>32.000000</ele>
<time>2020-03-01T03:58:45.000Z</time>
</trkpt>
<trkpt lat="31.3997240" lon="34.4420620">
<ele>33.000000</ele>
<time>2020-03-01T03:59:02.000Z</time>
</trkpt>
<trkpt lat="31.3999110" lon="34.4424220">
<ele>32.000000</ele>
<time>2020-03-01T03:59:31.000Z</time>
</trkpt>
<trkpt lat="31.4000940" lon="34.4426920">
<ele>33.000000</ele>
<time>2020-03-01T03:59:54.000Z</time>
</trkpt>
<trkpt lat="31.4002110" lon="34.4432320">
<ele>34.000000</ele>
<time>2020-03-01T04:00:33.000Z</time>
</trkpt>
<trkpt lat="31.4001970" lon="34.4435140">
<ele>34.000000</ele>
<time>2020-03-01T04:00:53.000Z</time>
</trkpt>
<trkpt lat="31.4003700" lon="34.4446520">
<ele>34.000000</ele>
<time>2020-03-01T04:02:12.000Z</time>
</trkpt>
<trkpt lat="31.4003180" lon="34.4450820">
<ele>34.000000</ele>
<time>2020-03-01T04:02:42.000Z</time>
</trkpt>
<trkpt lat="31.4002840" lon="34.4451840">
<ele>34.000000</ele>
<time>2020-03-01T04:02:49.000Z</time>
</trkpt>
<trkpt lat="31.4002630" lon="34.4454310">
<ele>34.000000</ele>
<time>2020-03-01T04:03:06.000Z</time>
</trkpt>
<trkpt lat="31.4001660" lon="34.4455040">
<ele>34.000000</ele>
<time>2020-03-01T04:03:16.000Z</time>
</trkpt>
<trkpt lat="31.4000070" lon="34.4455340">
<ele>34.000000</ele>
<time>2020-03-01T04:03:29.000Z</time>
</trkpt>
<trkpt lat="31.3999370" lon="34.4459000">
<ele>34.000000</ele>
<time>2020-03-01T04:03:56.000Z</time>
</trkpt>
<trkpt lat="31.3998420" lon="34.4460210">
<ele>34.000000</ele>
<time>2020-03-01T04:04:07.000Z</time>
</trkpt>
<trkpt lat="31.3997430" lon="34.4459620">
<ele>35.000000</ele>
<time>2020-03-01T04:04:16.000Z</time>
</trkpt>
<trkpt lat="31.3996320" lon="34.4457670">
<ele>35.000000</ele>
<time>2020-03-01T04:04:32.000Z</time>
</trkpt>
<trkpt lat="31.3994450" lon="34.4458190">
<ele>35.000000</ele>
<time>2020-03-01T04:04:48.000Z</time>
</trkpt>
<trkpt lat="31.3993370" lon="34.4457740">
<ele>36.000000</ele>
<time>2020-03-01T04:04:57.000Z</time>
</trkpt>
<trkpt lat="31.3992730" lon="34.4456540">
<ele>36.000000</ele>
<time>2020-03-01T04:05:07.000Z</time>
</trkpt>
<trkpt lat="31.3993030" lon="34.4455610">
<ele>36.000000</ele>
<time>2020-03-01T04:05:14.000Z</time>
</trkpt>
<trkpt lat="31.3994940" lon="34.4454860">
<ele>35.000000</ele>
<time>2020-03-01T04:05:30.000Z</time>
</trkpt>
<trkpt lat="31.3996760" lon="34.4453570">
<ele>35.000000</ele>
<time>2020-03-01T04:05:48.000Z</time>
</trkpt>
<trkpt lat="31.3997260" lon="34.4452560">
<ele>34.000000</ele>
<time>2020-03-01T04:05:56.000Z</time>
</trkpt>
<trkpt lat="31.3997510" lon="34.4447200">
<ele>34.000000</ele>
<time>2020-03-01T04:06:33.000Z</time>
</trkpt>
<trkpt lat="31.3999270" lon="34.4446550">
<ele>33.000000</ele>
<time>2020-03-01T04:06:48.000Z</time>
</trkpt>
<trkpt lat="31.3999850" lon="34.4445920">
<ele>33.000000</ele>
<time>2020-03-01T04:06:54.000Z</time>
</trkpt>
<trkpt lat="31.3999800" lon="34.4444550">
<ele>32.000000</ele>
<time>2020-03-01T04:07:04.000Z</time>
</trkpt>
<trkpt lat="31.3998210" lon="34.4439390">
<ele>33.000000</ele>
<time>2020-03-01T04:07:42.000Z</time>
</trkpt>
<trkpt lat="31.3997050" lon="34.4437620">
<ele>34.000000</ele>
<time>2020-03-01T04:07:57.000Z</time>
</trkpt>
<trkpt lat="31.3996780" lon="34.4434910">
<ele>35.000000</ele>
<time>2020-03-01T04:08:16.000Z</time>
</trkpt>
<trkpt lat="31.3997260" lon="34.4431400">
<ele>34.000000</ele>
<time>2020-03-01T04:08:40.000Z</time>
</trkpt>
<trkpt lat="31.3995630" lon="34.4428370">
<ele>34.000000</ele>
<time>2020-03-01T04:09:05.000Z</time>
</trkpt>
<trkpt lat="31.3995180" lon="34.4426400">
<ele>33.000000</ele>
<time>2020-03-01T04:09:19.000Z</time>
</trkpt>
<trkpt lat="31.3993530" lon="34.4424580">
<ele>33.000000</ele>
<time>2020-03-01T04:09:37.000Z</time>
</trkpt>
<trkpt lat="31.3992540" lon="34.4421130">
<ele>32.000000</ele>
<time>2020-03-01T04:10:02.000Z</time>
</trkpt>
<trkpt lat="31.3990270" lon="34.4418010">
<ele>32.000000</ele>
<time>2020-03-01T04:10:30.000Z</time>
</trkpt>
<trkpt lat="31.3989320" lon="34.4414880">
<ele>32.000000</ele>
<time>2020-03-01T04:10:53.000Z</time>
</trkpt>
<trkpt lat="31.3986730" lon="34.4411840">
<ele>32.000000</ele>
<time>2020-03-01T04:11:23.000Z</time>
</trkpt>
<trkpt lat="31.3982680" lon="34.4409600">
<ele>31.000000</ele>
<time>2020-03-01T04:11:59.000Z</time>
</trkpt>
<trkpt lat="31.3981390" lon="34.4407520">
<ele>31.000000</ele>
<time>2020-03-01T04:12:17.000Z</time>
</trkpt>
<trkpt lat="31.3981370" lon="34.4406740">
<ele>31.000000</ele>
<time>2020-03-01T04:12:22.000Z</time>
</trkpt>
<trkpt lat="31.3981930" lon="34.4404440">
<ele>31.000000</ele>
<time>2020-03-01T04:12:39.000Z</time>
</trkpt>
<trkpt lat="31.3981870" lon="34.4403170">
<ele>31.000000</ele>
<time>2020-03-01T04:12:48.000Z</time>
</trkpt>
<trkpt lat="31.3981340" lon="34.4401750">
<ele>31.000000</ele>
<time>2020-03-01T04:12:58.000Z</time>
</trkpt>
<trkpt lat="31.3979600" lon="34.4401210">
<ele>31.000000</ele>
<time>2020-03-01T04:13:13.000Z</time>
</trkpt>
<trkpt lat="31.3979910" lon="34.4399310">
<ele>31.000000</ele>
<time>2020-03-01T04:13:27.000Z</time>
</trkpt>
<trkpt lat="31.3979480" lon="34.4398290">
<ele>31.000000</ele>
<time>2020-03-01T04:13:35.000Z</time>
</trkpt>
<trkpt lat="31.3978270" lon="34.4397090">
<ele>31.000000</ele>
<time>2020-03-01T04:13:48.000Z</time>
</trkpt>
<trkpt lat="31.3978410" lon="34.4395710">
<ele>31.000000</ele>
<time>2020-03-01T04:13:57.000Z</time>
</trkpt>
<trkpt lat="31.3977860" lon="34.4393700">
<ele>31.000000</ele>
<time>2020-03-01T04:14:12.000Z</time>
</trkpt>
<trkpt lat="31.3978770" lon="34.4393380">
<ele>31.000000</ele>
<time>2020-03-01T04:14:20.000Z</time>
</trkpt>
<trkpt lat="31.3979360" lon="34.4390790">
<ele>31.000000</ele>
<time>2020-03-01T04:14:38.000Z</time>
</trkpt>
<trkpt lat="31.3978280" lon="34.4388290">
<ele>31.000000</ele>
<time>2020-03-01T04:14:58.000Z</time>
</trkpt>
<trkpt lat="31.3976660" lon="34.4386430">
<ele>32.000000</ele>
<time>2020-03-01T04:15:16.000Z</time>
</trkpt>
<trkpt lat="31.3975900" lon="34.4385060">
<ele>32.000000</ele>
<time>2020-03-01T04:15:28.000Z</time>
</trkpt>
<trkpt lat="31.3977520" lon="34.4380990">
<ele>32.000000</ele>
<time>2020-03-01T04:15:58.000Z</time>
</trkpt>
<trkpt lat="31.3977900" lon="34.4379200">
<ele>31.000000</ele>
<time>2020-03-01T04:16:11.000Z</time>
</trkpt>
<trkpt lat="31.3976430" lon="34.4376060">
<ele>32.000000</ele>
<time>2020-03-01T04:16:36.000Z</time>
</trkpt>
<trkpt lat="31.3974600" lon="34.4374640">
<ele>32.000000</ele>
<time>2020-03-01T04:16:54.000Z</time>
</trkpt>
<trkpt lat="31.3971480" lon="34.4373590">
<ele>33.000000</ele>
<time>2020-03-01T04:17:20.000Z</time>
</trkpt>
<trkpt lat="31.3970640" lon="34.4372900">
<ele>33.000000</ele>
<time>2020-03-01T04:17:28.000Z</time>
</trkpt>
<trkpt lat="31.3970850" lon="34.4371190">
<ele>33.000000</ele>
<time>2020-03-01T04:17:40.000Z</time>
</trkpt>
<trkpt lat="31.3971220" lon="34.4370810">
<ele>33.000000</ele>
<time>2020-03-01T04:17:44.000Z</time>
</trkpt>
<trkpt lat="31.3973540" lon="34.4370860">
<ele>32.000000</ele>
<time>2020-03-01T04:18:03.000Z</time>
</trkpt>
<trkpt lat="31.3974920" lon="34.4370470">
<ele>31.000000</ele>
<time>2020-03-01T04:18:14.000Z</time>
</trkpt>
<trkpt lat="31.3975620" lon="34.4370940">
<ele>31.000000</ele>
<time>2020-03-01T04:18:21.000Z</time>
</trkpt>
<trkpt lat="31.3977230" lon="34.4371240">
<ele>31.000000</ele>
<time>2020-03-01T04:18:34.000Z</time>
</trkpt>
<trkpt lat="31.3977470" lon="34.4370330">
<ele>31.000000</ele>
<time>2020-03-01T04:18:41.000Z</time>
</trkpt>
<trkpt lat="31.3978700" lon="34.4369010">
<ele>30.000000</ele>
<time>2020-03-01T04:18:55.000Z</time>
</trkpt>
<trkpt lat="31.3979250" lon="34.4367930">
<ele>30.000000</ele>
<time>2020-03-01T04:19:03.000Z</time>
</trkpt>
<trkpt lat="31.3979430" lon="34.4366670">
<ele>29.000000</ele>
<time>2020-03-01T04:19:12.000Z</time>
</trkpt>
<trkpt lat="31.3978830" lon="34.4364390">
<ele>29.000000</ele>
<time>2020-03-01T04:19:29.000Z</time>
</trkpt>
<trkpt lat="31.3974460" lon="34.4362060">
<ele>30.000000</ele>
<time>2020-03-01T04:20:08.000Z</time>
</trkpt>
<trkpt lat="31.3970520" lon="34.4362310">
<ele>31.000000</ele>
<time>2020-03-01T04:20:40.000Z</time>
</trkpt>
<trkpt lat="31.3964480" lon="34.4360450">
<ele>30.000000</ele>
<time>2020-03-01T04:21:30.000Z</time>
</trkpt>
<trkpt lat="31.3956880" lon="34.4360450">
<ele>29.000000</ele>
<time>2020-03-01T04:22:31.000Z</time>
</trkpt>
<trkpt lat="31.3947170" lon="34.4362540">
<ele>28.000000</ele>
<time>2020-03-01T04:23:50.000Z</time>
</trkpt>
<trkpt lat="31.3942130" lon="34.4363080">
<ele>29.000000</ele>
<time>2020-03-01T04:24:31.000Z</time>
</trkpt>
<trkpt lat="31.3936460" lon="34.4365170">
<ele>30.000000</ele>
<time>2020-03-01T04:25:18.000Z</time>
</trkpt>
<trkpt lat="31.3933890" lon="34.4367070">
<ele>30.000000</ele>
<time>2020-03-01T04:25:43.000Z</time>
</trkpt>
<trkpt lat="31.3927010" lon="34.4370080">
<ele>31.000000</ele>
<time>2020-03-01T04:26:42.000Z</time>
</trkpt>
<trkpt lat="31.3913660" lon="34.4387380">
<ele>30.000000</ele>
<time>2020-03-01T04:29:21.000Z</time>
</trkpt>
<trkpt lat="31.3911610" lon="34.4390730">
<ele>31.000000</ele>
<time>2020-03-01T04:29:50.000Z</time>
</trkpt>
<trkpt lat="31.3910250" lon="34.4391990">
<ele>30.000000</ele>
<time>2020-03-01T04:30:04.000Z</time>
</trkpt>
<trkpt lat="31.3907900" lon="34.4399950">
<ele>29.000000</ele>
<time>2020-03-01T04:31:02.000Z</time>
</trkpt>
<trkpt lat="31.3908100" lon="34.4403300">
<ele>29.000000</ele>
<time>2020-03-01T04:31:25.000Z</time>
</trkpt>
<trkpt lat="31.3910410" lon="34.4413570">
<ele>30.000000</ele>
<time>2020-03-01T04:32:38.000Z</time>
</trkpt>
<trkpt lat="31.3912830" lon="34.4418590">
<ele>32.000000</ele>
<time>2020-03-01T04:33:17.000Z</time>
</trkpt>
<trkpt lat="31.3914140" lon="34.4422350">
<ele>32.000000</ele>
<time>2020-03-01T04:33:45.000Z</time>
</trkpt>
<trkpt lat="31.3916720" lon="34.4424190">
<ele>32.000000</ele>
<time>2020-03-01T04:34:09.000Z</time>
</trkpt>
<trkpt lat="31.3917630" lon="34.4425420">
<ele>32.000000</ele>
<time>2020-03-01T04:34:20.000Z</time>
</trkpt>
<trkpt lat="31.3921940" lon="34.4436030">
<ele>33.000000</ele>
<time>2020-03-01T04:35:41.000Z</time>
</trkpt>
<trkpt lat="31.3922680" lon="34.4439600">
<ele>34.000000</ele>
<time>2020-03-01T04:36:06.000Z</time>
</trkpt>
<trkpt lat="31.3922300" lon="34.4442340">
<ele>33.000000</ele>
<time>2020-03-01T04:36:25.000Z</time>
</trkpt>
<trkpt lat="31.3921180" lon="34.4444670">
<ele>33.000000</ele>
<time>2020-03-01T04:36:44.000Z</time>
</trkpt>
<trkpt lat="31.3918220" lon="34.4447550">
<ele>32.000000</ele>
<time>2020-03-01T04:37:15.000Z</time>
</trkpt>
<trkpt lat="31.3917170" lon="34.4448100">
<ele>32.000000</ele>
<time>2020-03-01T04:37:24.000Z</time>
</trkpt>
<trkpt lat="31.3913880" lon="34.4448860">
<ele>32.000000</ele>
<time>2020-03-01T04:37:51.000Z</time>
</trkpt>
<trkpt lat="31.3913150" lon="34.4448820">
<ele>32.000000</ele>
<time>2020-03-01T04:37:57.000Z</time>
</trkpt>
<trkpt lat="31.3910690" lon="34.4447650">
<ele>32.000000</ele>
<time>2020-03-01T04:38:18.000Z</time>
</trkpt>
<trkpt lat="31.3907850" lon="34.4449360">
<ele>31.000000</ele>
<time>2020-03-01T04:38:44.000Z</time>
</trkpt>
<trkpt lat="31.3903920" lon="34.4449690">
<ele>32.000000</ele>
<time>2020-03-01T04:39:16.000Z</time>
</trkpt>
<trkpt lat="31.3902240" lon="34.4450210">
<ele>32.000000</ele>
<time>2020-03-01T04:39:30.000Z</time>
</trkpt>
<trkpt lat="31.3896050" lon="34.4451140">
<ele>31.000000</ele>
<time>2020-03-01T04:40:20.000Z</time>
</trkpt>
<trkpt lat="31.3891820" lon="34.4453880">
<ele>31.000000</ele>
<time>2020-03-01T04:40:59.000Z</time>
</trkpt>
<trkpt lat="31.3888900" lon="34.4456440">
<ele>33.000000</ele>
<time>2020-03-01T04:41:28.000Z</time>
</trkpt>
<trkpt lat="31.3883250" lon="34.4459450">
<ele>32.000000</ele>
<time>2020-03-01T04:42:18.000Z</time>
</trkpt>
<trkpt lat="31.3882590" lon="34.4460640">
<ele>33.000000</ele>
<time>2020-03-01T04:42:28.000Z</time>
</trkpt>
<trkpt lat="31.3881750" lon="34.4465420">
<ele>33.000000</ele>
<time>2020-03-01T04:43:02.000Z</time>
</trkpt>
<trkpt lat="31.3881080" lon="34.4466550">
<ele>33.000000</ele>
<time>2020-03-01T04:43:11.000Z</time>
</trkpt>
<trkpt lat="31.3881350" lon="34.4466850">
<ele>33.000000</ele>
<time>2020-03-01T04:43:14.000Z</time>
</trkpt>
<trkpt lat="31.3881020" lon="34.4468360">
<ele>34.000000</ele>
<time>2020-03-01T04:43:25.000Z</time>
</trkpt>
<trkpt lat="31.3878590" lon="34.4467440">
<ele>35.000000</ele>
<time>2020-03-01T04:43:46.000Z</time>
</trkpt>
<trkpt lat="31.3877920" lon="34.4467340">
<ele>35.000000</ele>
<time>2020-03-01T04:43:51.000Z</time>
</trkpt>
<trkpt lat="31.3877460" lon="34.4467760">
<ele>36.000000</ele>
<time>2020-03-01T04:43:57.000Z</time>
</trkpt>
<trkpt lat="31.3878220" lon="34.4471360">
<ele>36.000000</ele>
<time>2020-03-01T04:44:22.000Z</time>
</trkpt>
<trkpt lat="31.3878420" lon="34.4475330">
<ele>36.000000</ele>
<time>2020-03-01T04:44:49.000Z</time>
</trkpt>
<trkpt lat="31.3880630" lon="34.4483890">
<ele>37.000000</ele>
<time>2020-03-01T04:45:51.000Z</time>
</trkpt>
<trkpt lat="31.3878670" lon="34.4487600">
<ele>36.000000</ele>
<time>2020-03-01T04:46:21.000Z</time>
</trkpt>
<trkpt lat="31.3874950" lon="34.4491720">
<ele>36.000000</ele>
<time>2020-03-01T04:47:02.000Z</time>
</trkpt>
<trkpt lat="31.3872690" lon="34.4492910">
<ele>36.000000</ele>
<time>2020-03-01T04:47:22.000Z</time>
</trkpt>
<trkpt lat="31.3871040" lon="34.4492600">
<ele>36.000000</ele>
<time>2020-03-01T04:47:35.000Z</time>
</trkpt>
<trkpt lat="31.3870220" lon="34.4493720">
<ele>36.000000</ele>
<time>2020-03-01T04:47:46.000Z</time>
</trkpt>
<trkpt lat="31.3867920" lon="34.4493470">
<ele>36.000000</ele>
<time>2020-03-01T04:48:05.000Z</time>
</trkpt>
<trkpt lat="31.3865950" lon="34.4494180">
<ele>37.000000</ele>
<time>2020-03-01T04:48:22.000Z</time>
</trkpt>
<trkpt lat="31.3865260" lon="34.4495020">
<ele>36.000000</ele>
<time>2020-03-01T04:48:30.000Z</time>
</trkpt>
<trkpt lat="31.3865220" lon="34.4495910">
<ele>36.000000</ele>
<time>2020-03-01T04:48:36.000Z</time>
</trkpt>
<trkpt lat="31.3865600" lon="34.4496660">
<ele>36.000000</ele>
<time>2020-03-01T04:48:42.000Z</time>
</trkpt>
<trkpt lat="31.3866710" lon="34.4497250">
<ele>36.000000</ele>
<time>2020-03-01T04:48:52.000Z</time>
</trkpt>
<trkpt lat="31.3867140" lon="34.4498510">
<ele>35.000000</ele>
<time>2020-03-01T04:49:02.000Z</time>
</trkpt>
<trkpt lat="31.3867210" lon="34.4499940">
<ele>35.000000</ele>
<time>2020-03-01T04:49:12.000Z</time>
</trkpt>
<trkpt lat="31.3865460" lon="34.4500640">
<ele>35.000000</ele>
<time>2020-03-01T04:49:27.000Z</time>
</trkpt>
<trkpt lat="31.3864780" lon="34.4500460">
<ele>35.000000</ele>
<time>2020-03-01T04:49:32.000Z</time>
</trkpt>
<trkpt lat="31.3862830" lon="34.4501210">
<ele>35.000000</ele>
<time>2020-03-01T04:49:49.000Z</time>
</trkpt>
<trkpt lat="31.3861930" lon="34.4501070">
<ele>35.000000</ele>
<time>2020-03-01T04:49:56.000Z</time>
</trkpt>
<trkpt lat="31.3860440" lon="34.4499730">
<ele>35.000000</ele>
<time>2020-03-01T04:50:11.000Z</time>
</trkpt>
<trkpt lat="31.3858160" lon="34.4495420">
<ele>37.000000</ele>
<time>2020-03-01T04:50:46.000Z</time>
</trkpt>
<trkpt lat="31.3857250" lon="34.4498080">
<ele>36.000000</ele>
<time>2020-03-01T04:51:07.000Z</time>
</trkpt>
<trkpt lat="31.3857600" lon="34.4498700">
<ele>36.000000</ele>
<time>2020-03-01T04:51:12.000Z</time>
</trkpt>
<trkpt lat="31.3857220" lon="34.4499340">
<ele>36.000000</ele>
<time>2020-03-01T04:51:18.000Z</time>
</trkpt>
<trkpt lat="31.3855740" lon="34.4499940">
<ele>36.000000</ele>
<time>2020-03-01T04:51:30.000Z</time>
</trkpt>
<trkpt lat="31.3845730" lon="34.4502560">
<ele>38.000000</ele>
<time>2020-03-01T04:52:53.000Z</time>
</trkpt>
<trkpt lat="31.3843300" lon="34.4502790">
<ele>37.000000</ele>
<time>2020-03-01T04:53:13.000Z</time>
</trkpt>
<trkpt lat="31.3839630" lon="34.4502470">
<ele>37.000000</ele>
<time>2020-03-01T04:53:42.000Z</time>
</trkpt>
<trkpt lat="31.3834280" lon="34.4499990">
<ele>37.000000</ele>
<time>2020-03-01T04:54:28.000Z</time>
</trkpt>
<trkpt lat="31.3830530" lon="34.4496370">
<ele>38.000000</ele>
<time>2020-03-01T04:55:07.000Z</time>
</trkpt>
<trkpt lat="31.3826010" lon="34.4493630">
<ele>38.000000</ele>
<time>2020-03-01T04:55:48.000Z</time>
</trkpt>
<trkpt lat="31.3824580" lon="34.4493400">
<ele>38.000000</ele>
<time>2020-03-01T04:56:00.000Z</time>
</trkpt>
<trkpt lat="31.3821960" lon="34.4494510">
<ele>39.000000</ele>
<time>2020-03-01T04:56:23.000Z</time>
</trkpt>
<trkpt lat="31.3821180" lon="34.4494390">
<ele>39.000000</ele>
<time>2020-03-01T04:56:29.000Z</time>
</trkpt>
<trkpt lat="31.3819130" lon="34.4493040">
<ele>39.000000</ele>
<time>2020-03-01T04:56:48.000Z</time>
</trkpt>
<trkpt lat="31.3818150" lon="34.4492840">
<ele>40.000000</ele>
<time>2020-03-01T04:56:56.000Z</time>
</trkpt>
<trkpt lat="31.3816580" lon="34.4493340">
<ele>40.000000</ele>
<time>2020-03-01T04:57:09.000Z</time>
</trkpt>
<trkpt lat="31.3816310" lon="34.4494030">
<ele>40.000000</ele>
<time>2020-03-01T04:57:15.000Z</time>
</trkpt>
<trkpt lat="31.3816610" lon="34.4494950">
<ele>40.000000</ele>
<time>2020-03-01T04:57:21.000Z</time>
</trkpt>
<trkpt lat="31.3819820" lon="34.4501870">
<ele>38.000000</ele>
<time>2020-03-01T04:58:16.000Z</time>
</trkpt>
<trkpt lat="31.3819840" lon="34.4503910">
<ele>38.000000</ele>
<time>2020-03-01T04:58:30.000Z</time>
</trkpt>
<trkpt lat="31.3820440" lon="34.4504730">
<ele>37.000000</ele>
<time>2020-03-01T04:58:37.000Z</time>
</trkpt>
<trkpt lat="31.3822280" lon="34.4505820">
<ele>36.000000</ele>
<time>2020-03-01T04:58:54.000Z</time>
</trkpt>
<trkpt lat="31.3822830" lon="34.4507500">
<ele>36.000000</ele>
<time>2020-03-01T04:59:07.000Z</time>
</trkpt>
<trkpt lat="31.3822740" lon="34.4507950">
<ele>36.000000</ele>
<time>2020-03-01T04:59:10.000Z</time>
</trkpt>
<trkpt lat="31.3819830" lon="34.4511060">
<ele>36.000000</ele>
<time>2020-03-01T04:59:42.000Z</time>
</trkpt>
<trkpt lat="31.3819620" lon="34.4513280">
<ele>36.000000</ele>
<time>2020-03-01T04:59:57.000Z</time>
</trkpt>
<trkpt lat="31.3817700" lon="34.4515770">
<ele>37.000000</ele>
<time>2020-03-01T05:00:20.000Z</time>
</trkpt>
<trkpt lat="31.3816770" lon="34.4518130">
<ele>37.000000</ele>
<time>2020-03-01T05:00:38.000Z</time>
</trkpt>
<trkpt lat="31.3815170" lon="34.4519720">
<ele>37.000000</ele>
<time>2020-03-01T05:00:55.000Z</time>
</trkpt>
<trkpt lat="31.3813220" lon="34.4523280">
<ele>36.000000</ele>
<time>2020-03-01T05:01:24.000Z</time>
</trkpt>
<trkpt lat="31.3812290" lon="34.4524250">
<ele>36.000000</ele>
<time>2020-03-01T05:01:34.000Z</time>
</trkpt>
<trkpt lat="31.3811420" lon="34.4524810">
<ele>36.000000</ele>
<time>2020-03-01T05:01:42.000Z</time>
</trkpt>
<trkpt lat="31.3808500" lon="34.4525330">
<ele>36.000000</ele>
<time>2020-03-01T05:02:06.000Z</time>
</trkpt>
<trkpt lat="31.3801480" lon="34.4524100">
<ele>40.000000</ele>
<time>2020-03-01T05:03:03.000Z</time>
</trkpt>
<trkpt lat="31.3798150" lon="34.4523110">
<ele>42.000000</ele>
<time>2020-03-01T05:03:31.000Z</time>
</trkpt>
<trkpt lat="31.3790810" lon="34.4524910">
<ele>46.000000</ele>
<time>2020-03-01T05:04:31.000Z</time>
</trkpt>
<trkpt lat="31.3790170" lon="34.4525390">
<ele>46.000000</ele>
<time>2020-03-01T05:04:37.000Z</time>
</trkpt>
<trkpt lat="31.3789070" lon="34.4528330">
<ele>45.000004</ele>
<time>2020-03-01T05:05:00.000Z</time>
</trkpt>
<trkpt lat="31.3787040" lon="34.4531420">
<ele>43.999996</ele>
<time>2020-03-01T05:05:26.000Z</time>
</trkpt>
<trkpt lat="31.3786180" lon="34.4536000">
<ele>42.000000</ele>
<time>2020-03-01T05:05:59.000Z</time>
</trkpt>
<trkpt lat="31.3783770" lon="34.4540780">
<ele>40.000000</ele>
<time>2020-03-01T05:06:37.000Z</time>
</trkpt>
<trkpt lat="31.3780760" lon="34.4542750">
<ele>41.000000</ele>
<time>2020-03-01T05:07:05.000Z</time>
</trkpt>
<trkpt lat="31.3780170" lon="34.4543760">
<ele>41.000000</ele>
<time>2020-03-01T05:07:13.000Z</time>
</trkpt>
<trkpt lat="31.3778700" lon="34.4545150">
<ele>41.000000</ele>
<time>2020-03-01T05:07:29.000Z</time>
</trkpt>
<trkpt lat="31.3778050" lon="34.4547500">
<ele>40.000000</ele>
<time>2020-03-01T05:07:46.000Z</time>
</trkpt>
<trkpt lat="31.3775720" lon="34.4549660">
<ele>41.000000</ele>
<time>2020-03-01T05:08:10.000Z</time>
</trkpt>
<trkpt lat="31.3774070" lon="34.4550640">
<ele>41.000000</ele>
<time>2020-03-01T05:08:25.000Z</time>
</trkpt>
<trkpt lat="31.3773010" lon="34.4551680">
<ele>41.000000</ele>
<time>2020-03-01T05:08:36.000Z</time>
</trkpt>
<trkpt lat="31.3771840" lon="34.4553640">
<ele>41.000000</ele>
<time>2020-03-01T05:08:52.000Z</time>
</trkpt>
<trkpt lat="31.3768760" lon="34.4553980">
<ele>43.000000</ele>
<time>2020-03-01T05:09:17.000Z</time>
</trkpt>
<trkpt lat="31.3766170" lon="34.4555910">
<ele>43.000000</ele>
<time>2020-03-01T05:09:42.000Z</time>
</trkpt>
<trkpt lat="31.3763810" lon="34.4557750">
<ele>43.000000</ele>
<time>2020-03-01T05:10:05.000Z</time>
</trkpt>
<trkpt lat="31.3762590" lon="34.4560450">
<ele>42.000000</ele>
<time>2020-03-01T05:10:26.000Z</time>
</trkpt>
<trkpt lat="31.3761750" lon="34.4561300">
<ele>42.000000</ele>
<time>2020-03-01T05:10:35.000Z</time>
</trkpt>
<trkpt lat="31.3758340" lon="34.4562240">
<ele>42.000000</ele>
<time>2020-03-01T05:11:03.000Z</time>
</trkpt>
<trkpt lat="31.3755400" lon="34.4561830">
<ele>43.000000</ele>
<time>2020-03-01T05:11:27.000Z</time>
</trkpt>
<trkpt lat="31.3754150" lon="34.4562390">
<ele>43.000000</ele>
<time>2020-03-01T05:11:38.000Z</time>
</trkpt>
<trkpt lat="31.3752750" lon="34.4564470">
<ele>43.000000</ele>
<time>2020-03-01T05:11:56.000Z</time>
</trkpt>
<trkpt lat="31.3752040" lon="34.4564150">
<ele>43.000000</ele>
<time>2020-03-01T05:12:02.000Z</time>
</trkpt>
<trkpt lat="31.3749740" lon="34.4564520">
<ele>43.999996</ele>
<time>2020-03-01T05:12:21.000Z</time>
</trkpt>
<trkpt lat="31.3747860" lon="34.4565160">
<ele>45.000004</ele>
<time>2020-03-01T05:12:37.000Z</time>
</trkpt>
<trkpt lat="31.3745660" lon="34.4564860">
<ele>46.000000</ele>
<time>2020-03-01T05:12:55.000Z</time>
</trkpt>
<trkpt lat="31.3746010" lon="34.4566440">
<ele>46.000000</ele>
<time>2020-03-01T05:13:07.000Z</time>
</trkpt>
<trkpt lat="31.3745850" lon="34.4567870">
<ele>45.000004</ele>
<time>2020-03-01T05:13:16.000Z</time>
</trkpt>
<trkpt lat="31.3743420" lon="34.4568730">
<ele>45.000004</ele>
<time>2020-03-01T05:13:37.000Z</time>
</trkpt>
<trkpt lat="31.3742390" lon="34.4569830">
<ele>43.999996</ele>
<time>2020-03-01T05:13:48.000Z</time>
</trkpt>
<trkpt lat="31.3741160" lon="34.4573650">
<ele>41.000000</ele>
<time>2020-03-01T05:14:16.000Z</time>
</trkpt>
<trkpt lat="31.3740240" lon="34.4575170">
<ele>40.000000</ele>
<time>2020-03-01T05:14:29.000Z</time>
</trkpt>
<trkpt lat="31.3738080" lon="34.4576230">
<ele>40.000000</ele>
<time>2020-03-01T05:14:48.000Z</time>
</trkpt>
<trkpt lat="31.3735580" lon="34.4576020">
<ele>42.000000</ele>
<time>2020-03-01T05:15:08.000Z</time>
</trkpt>
<trkpt lat="31.3733650" lon="34.4577150">
<ele>42.000000</ele>
<time>2020-03-01T05:15:26.000Z</time>
</trkpt>
<trkpt lat="31.3730960" lon="34.4577010">
<ele>43.000000</ele>
<time>2020-03-01T05:15:48.000Z</time>
</trkpt>
<trkpt lat="31.3727640" lon="34.4578220">
<ele>42.000000</ele>
<time>2020-03-01T05:16:16.000Z</time>
</trkpt>
<trkpt lat="31.3725420" lon="34.4579540">
<ele>42.000000</ele>
<time>2020-03-01T05:16:36.000Z</time>
</trkpt>
<trkpt lat="31.3723180" lon="34.4579710">
<ele>42.000000</ele>
<time>2020-03-01T05:16:54.000Z</time>
</trkpt>
<trkpt lat="31.3722320" lon="34.4580590">
<ele>42.000000</ele>
<time>2020-03-01T05:17:03.000Z</time>
</trkpt>
<trkpt lat="31.3720430" lon="34.4581530">
<ele>42.000000</ele>
<time>2020-03-01T05:17:20.000Z</time>
</trkpt>
<trkpt lat="31.3719970" lon="34.4582590">
<ele>41.000000</ele>
<time>2020-03-01T05:17:28.000Z</time>
</trkpt>
<trkpt lat="31.3719710" lon="34.4585660">
<ele>40.000000</ele>
<time>2020-03-01T05:17:49.000Z</time>
</trkpt>
<trkpt lat="31.3720770" lon="34.4589360">
<ele>39.000000</ele>
<time>2020-03-01T05:18:17.000Z</time>
</trkpt>
<trkpt lat="31.3720000" lon="34.4592370">
<ele>38.000000</ele>
<time>2020-03-01T05:18:38.000Z</time>
</trkpt>
<trkpt lat="31.3719010" lon="34.4594120">
<ele>38.000000</ele>
<time>2020-03-01T05:18:53.000Z</time>
</trkpt>
<trkpt lat="31.3713770" lon="34.4600070">
<ele>39.000000</ele>
<time>2020-03-01T05:19:51.000Z</time>
</trkpt>
<trkpt lat="31.3713210" lon="34.4600170">
<ele>39.000000</ele>
<time>2020-03-01T05:19:56.000Z</time>
</trkpt>
<trkpt lat="31.3712170" lon="34.4599510">
<ele>40.000000</ele>
<time>2020-03-01T05:20:05.000Z</time>
</trkpt>
<trkpt lat="31.3710550" lon="34.4599150">
<ele>42.000000</ele>
<time>2020-03-01T05:20:19.000Z</time>
</trkpt>
<trkpt lat="31.3708640" lon="34.4600570">
<ele>43.000000</ele>
<time>2020-03-01T05:20:37.000Z</time>
</trkpt>
<trkpt lat="31.3708580" lon="34.4601910">
<ele>42.000000</ele>
<time>2020-03-01T05:20:47.000Z</time>
</trkpt>
<trkpt lat="31.3710030" lon="34.4603130">
<ele>41.000000</ele>
<time>2020-03-01T05:21:01.000Z</time>
</trkpt>
<trkpt lat="31.3710100" lon="34.4603770">
<ele>41.000000</ele>
<time>2020-03-01T05:21:06.000Z</time>
</trkpt>
<trkpt lat="31.3708890" lon="34.4606410">
<ele>41.000000</ele>
<time>2020-03-01T05:21:26.000Z</time>
</trkpt>
<trkpt lat="31.3707750" lon="34.4606370">
<ele>42.000000</ele>
<time>2020-03-01T05:21:36.000Z</time>
</trkpt>
<trkpt lat="31.3707330" lon="34.4607410">
<ele>42.000000</ele>
<time>2020-03-01T05:21:45.000Z</time>
</trkpt>
<trkpt lat="31.3706400" lon="34.4607590">
<ele>42.000000</ele>
<time>2020-03-01T05:21:52.000Z</time>
</trkpt>
<trkpt lat="31.3701850" lon="34.4613910">
<ele>43.000000</ele>
<time>2020-03-01T05:22:49.000Z</time>
</trkpt>
<trkpt lat="31.3698600" lon="34.4614920">
<ele>43.999996</ele>
<time>2020-03-01T05:23:16.000Z</time>
</trkpt>
<trkpt lat="31.3695780" lon="34.4614380">
<ele>43.999996</ele>
<time>2020-03-01T05:23:39.000Z</time>
</trkpt>
<trkpt lat="31.3694560" lon="34.4614850">
<ele>43.999996</ele>
<time>2020-03-01T05:23:50.000Z</time>
</trkpt>
<trkpt lat="31.3693410" lon="34.4614720">
<ele>43.999996</ele>
<time>2020-03-01T05:23:59.000Z</time>
</trkpt>
<trkpt lat="31.3690820" lon="34.4616280">
<ele>43.000000</ele>
<time>2020-03-01T05:24:22.000Z</time>
</trkpt>
<trkpt lat="31.3689170" lon="34.4619850">
<ele>42.000000</ele>
<time>2020-03-01T05:24:50.000Z</time>
</trkpt>
<trkpt lat="31.3678410" lon="34.4623390">
<ele>39.000000</ele>
<time>2020-03-01T05:26:20.000Z</time>
</trkpt>
<trkpt lat="31.3676500" lon="34.4623610">
<ele>38.000000</ele>
<time>2020-03-01T05:26:35.000Z</time>
</trkpt>
<trkpt lat="31.3672410" lon="34.4622880">
<ele>39.000000</ele>
<time>2020-03-01T05:27:09.000Z</time>
</trkpt>
<trkpt lat="31.3670130" lon="34.4622930">
<ele>39.000000</ele>
<time>2020-03-01T05:27:27.000Z</time>
</trkpt>
<trkpt lat="31.3665580" lon="34.4623520">
<ele>39.000000</ele>
<time>2020-03-01T05:28:04.000Z</time>
</trkpt>
<trkpt lat="31.3660510" lon="34.4625130">
<ele>37.000000</ele>
<time>2020-03-01T05:28:46.000Z</time>
</trkpt>
<trkpt lat="31.3659360" lon="34.4625860">
<ele>38.000000</ele>
<time>2020-03-01T05:28:56.000Z</time>
</trkpt>
<trkpt lat="31.3657890" lon="34.4627690">
<ele>39.000000</ele>
<time>2020-03-01T05:29:14.000Z</time>
</trkpt>
<trkpt lat="31.3657570" lon="34.4630020">
<ele>40.000000</ele>
<time>2020-03-01T05:29:30.000Z</time>
</trkpt>
<trkpt lat="31.3656880" lon="34.4630850">
<ele>41.000000</ele>
<time>2020-03-01T05:29:38.000Z</time>
</trkpt>
<trkpt lat="31.3655640" lon="34.4631040">
<ele>41.000000</ele>
<time>2020-03-01T05:29:48.000Z</time>
</trkpt>
<trkpt lat="31.3651620" lon="34.4630210">
<ele>41.000000</ele>
<time>2020-03-01T05:30:21.000Z</time>
</trkpt>
<trkpt lat="31.3650040" lon="34.4630210">
<ele>41.000000</ele>
<time>2020-03-01T05:30:34.000Z</time>
</trkpt>
<trkpt lat="31.3649320" lon="34.4630660">
<ele>42.000000</ele>
<time>2020-03-01T05:30:40.000Z</time>
</trkpt>
<trkpt lat="31.3648500" lon="34.4632040">
<ele>43.000000</ele>
<time>2020-03-01T05:30:52.000Z</time>
</trkpt>
<trkpt lat="31.3648770" lon="34.4635410">
<ele>43.000000</ele>
<time>2020-03-01T05:31:15.000Z</time>
</trkpt>
<trkpt lat="31.3649600" lon="34.4638280">
<ele>42.000000</ele>
<time>2020-03-01T05:31:36.000Z</time>
</trkpt>
<trkpt lat="31.3650540" lon="34.4639640">
<ele>42.000000</ele>
<time>2020-03-01T05:31:48.000Z</time>
</trkpt>
<trkpt lat="31.3656070" lon="34.4644280">
<ele>46.000000</ele>
<time>2020-03-01T05:32:43.000Z</time>
</trkpt>
<trkpt lat="31.3656890" lon="34.4645920">
<ele>46.000000</ele>
<time>2020-03-01T05:32:56.000Z</time>
</trkpt>
<trkpt lat="31.3659540" lon="34.4648520">
<ele>47.000000</ele>
<time>2020-03-01T05:33:24.000Z</time>
</trkpt>
<trkpt lat="31.3660050" lon="34.4649900">
<ele>46.000000</ele>
<time>2020-03-01T05:33:34.000Z</time>
</trkpt>
<trkpt lat="31.3659750" lon="34.4650550">
<ele>46.000000</ele>
<time>2020-03-01T05:33:39.000Z</time>
</trkpt>
<trkpt lat="31.3657210" lon="34.4652030">
<ele>46.000000</ele>
<time>2020-03-01T05:34:02.000Z</time>
</trkpt>
<trkpt lat="31.3653790" lon="34.4654940">
<ele>43.999996</ele>
<time>2020-03-01T05:34:36.000Z</time>
</trkpt>
<trkpt lat="31.3652840" lon="34.4655350">
<ele>43.999996</ele>
<time>2020-03-01T05:34:44.000Z</time>
</trkpt>
<trkpt lat="31.3649530" lon="34.4655350">
<ele>42.000000</ele>
<time>2020-03-01T05:35:11.000Z</time>
</trkpt>
<trkpt lat="31.3647610" lon="34.4656000">
<ele>41.000000</ele>
<time>2020-03-01T05:35:27.000Z</time>
</trkpt>
<trkpt lat="31.3646420" lon="34.4658230">
<ele>41.000000</ele>
<time>2020-03-01T05:35:45.000Z</time>
</trkpt>
<trkpt lat="31.3646230" lon="34.4662330">
<ele>43.000000</ele>
<time>2020-03-01T05:36:13.000Z</time>
</trkpt>
<trkpt lat="31.3645370" lon="34.4663750">
<ele>43.000000</ele>
<time>2020-03-01T05:36:25.000Z</time>
</trkpt>
<trkpt lat="31.3643830" lon="34.4664930">
<ele>43.000000</ele>
<time>2020-03-01T05:36:40.000Z</time>
</trkpt>
<trkpt lat="31.3643230" lon="34.4666010">
<ele>43.000000</ele>
<time>2020-03-01T05:36:49.000Z</time>
</trkpt>
<trkpt lat="31.3643230" lon="34.4668070">
<ele>43.999996</ele>
<time>2020-03-01T05:37:03.000Z</time>
</trkpt>
<trkpt lat="31.3644010" lon="34.4669950">
<ele>45.000004</ele>
<time>2020-03-01T05:37:18.000Z</time>
</trkpt>
<trkpt lat="31.3647360" lon="34.4675330">
<ele>49.000000</ele>
<time>2020-03-01T05:38:03.000Z</time>
</trkpt>
<trkpt lat="31.3649370" lon="34.4677550">
<ele>50.000000</ele>
<time>2020-03-01T05:38:26.000Z</time>
</trkpt>
<trkpt lat="31.3649380" lon="34.4680080">
<ele>51.999996</ele>
<time>2020-03-01T05:38:43.000Z</time>
</trkpt>
<trkpt lat="31.3649470" lon="34.4681790">
<ele>53.000004</ele>
<time>2020-03-01T05:38:55.000Z</time>
</trkpt>
<trkpt lat="31.3650250" lon="34.4684830">
<ele>54.000000</ele>
<time>2020-03-01T05:39:17.000Z</time>
</trkpt>
<trkpt lat="31.3650110" lon="34.4686590">
<ele>55.000000</ele>
<time>2020-03-01T05:39:29.000Z</time>
</trkpt>
<trkpt lat="31.3650570" lon="34.4691770">
<ele>56.000000</ele>
<time>2020-03-01T05:40:05.000Z</time>
</trkpt>
<trkpt lat="31.3648910" lon="34.4691510">
<ele>56.000000</ele>
<time>2020-03-01T05:40:19.000Z</time>
</trkpt>
<trkpt lat="31.3645450" lon="34.4692860">
<ele>56.000000</ele>
<time>2020-03-01T05:40:48.000Z</time>
</trkpt>
<trkpt lat="31.3640270" lon="34.4693680">
<ele>56.000000</ele>
<time>2020-03-01T05:41:30.000Z</time>
</trkpt>
<trkpt lat="31.3636700" lon="34.4694720">
<ele>57.000000</ele>
<time>2020-03-01T05:41:59.000Z</time>
</trkpt>
<trkpt lat="31.3635330" lon="34.4694240">
<ele>57.000000</ele>
<time>2020-03-01T05:42:11.000Z</time>
</trkpt>
<trkpt lat="31.3634390" lon="34.4692950">
<ele>57.000000</ele>
<time>2020-03-01T05:42:23.000Z</time>
</trkpt>
<trkpt lat="31.3632820" lon="34.4691760">
<ele>57.000000</ele>
<time>2020-03-01T05:42:38.000Z</time>
</trkpt>
<trkpt lat="31.3629970" lon="34.4690820">
<ele>56.000000</ele>
<time>2020-03-01T05:43:02.000Z</time>
</trkpt>
<trkpt lat="31.3628980" lon="34.4689620">
<ele>55.000000</ele>
<time>2020-03-01T05:43:13.000Z</time>
</trkpt>
<trkpt lat="31.3627290" lon="34.4688960">
<ele>54.000000</ele>
<time>2020-03-01T05:43:28.000Z</time>
</trkpt>
<trkpt lat="31.3624250" lon="34.4691310">
<ele>55.000000</ele>
<time>2020-03-01T05:43:57.000Z</time>
</trkpt>
<trkpt lat="31.3620740" lon="34.4692990">
<ele>56.000000</ele>
<time>2020-03-01T05:44:28.000Z</time>
</trkpt>
<trkpt lat="31.3618090" lon="34.4692880">
<ele>56.000000</ele>
<time>2020-03-01T05:44:49.000Z</time>
</trkpt>
<trkpt lat="31.3616040" lon="34.4692190">
<ele>55.000000</ele>
<time>2020-03-01T05:45:06.000Z</time>
</trkpt>
<trkpt lat="31.3614080" lon="34.4693020">
<ele>55.000000</ele>
<time>2020-03-01T05:45:23.000Z</time>
</trkpt>
<trkpt lat="31.3613460" lon="34.4694230">
<ele>56.000000</ele>
<time>2020-03-01T05:45:33.000Z</time>
</trkpt>
<trkpt lat="31.3611450" lon="34.4696010">
<ele>56.000000</ele>
<time>2020-03-01T05:45:53.000Z</time>
</trkpt>
<trkpt lat="31.3610120" lon="34.4697810">
<ele>57.000000</ele>
<time>2020-03-01T05:46:10.000Z</time>
</trkpt>
<trkpt lat="31.3608210" lon="34.4697270">
<ele>57.000000</ele>
<time>2020-03-01T05:46:27.000Z</time>
</trkpt>
<trkpt lat="31.3607600" lon="34.4699180">
<ele>58.000000</ele>
<time>2020-03-01T05:46:41.000Z</time>
</trkpt>
<trkpt lat="31.3606070" lon="34.4701580">
<ele>58.000000</ele>
<time>2020-03-01T05:47:02.000Z</time>
</trkpt>
<trkpt lat="31.3604200" lon="34.4702370">
<ele>58.000000</ele>
<time>2020-03-01T05:47:18.000Z</time>
</trkpt>
<trkpt lat="31.3602600" lon="34.4702280">
<ele>58.000000</ele>
<time>2020-03-01T05:47:30.000Z</time>
</trkpt>
<trkpt lat="31.3600140" lon="34.4704520">
<ele>58.000000</ele>
<time>2020-03-01T05:47:56.000Z</time>
</trkpt>
<trkpt lat="31.3599220" lon="34.4704250">
<ele>58.000000</ele>
<time>2020-03-01T05:48:04.000Z</time>
</trkpt>
<trkpt lat="31.3598520" lon="34.4702730">
<ele>57.000000</ele>
<time>2020-03-01T05:48:16.000Z</time>
</trkpt>
<trkpt lat="31.3597390" lon="34.4703050">
<ele>58.000000</ele>
<time>2020-03-01T05:48:26.000Z</time>
</trkpt>
<trkpt lat="31.3597400" lon="34.4705190">
<ele>58.000000</ele>
<time>2020-03-01T05:48:40.000Z</time>
</trkpt>
<trkpt lat="31.3596810" lon="34.4706350">
<ele>58.000000</ele>
<time>2020-03-01T05:48:50.000Z</time>
</trkpt>
<trkpt lat="31.3595620" lon="34.4707490">
<ele>58.000000</ele>
<time>2020-03-01T05:49:02.000Z</time>
</trkpt>
<trkpt lat="31.3593590" lon="34.4707370">
<ele>58.000000</ele>
<time>2020-03-01T05:49:19.000Z</time>
</trkpt>
<trkpt lat="31.3590910" lon="34.4706210">
<ele>58.000000</ele>
<time>2020-03-01T05:49:42.000Z</time>
</trkpt>
<trkpt lat="31.3587860" lon="34.4708060">
<ele>56.000000</ele>
<time>2020-03-01T05:50:10.000Z</time>
</trkpt>
<trkpt lat="31.3586920" lon="34.4708120">
<ele>56.000000</ele>
<time>2020-03-01T05:50:17.000Z</time>
</trkpt>
<trkpt lat="31.3584410" lon="34.4707440">
<ele>55.000000</ele>
<time>2020-03-01T05:50:38.000Z</time>
</trkpt>
<trkpt lat="31.3582940" lon="34.4709940">
<ele>54.000000</ele>
<time>2020-03-01T05:50:59.000Z</time>
</trkpt>
<trkpt lat="31.3575490" lon="34.4715720">
<ele>53.000004</ele>
<time>2020-03-01T05:52:11.000Z</time>
</trkpt>
<trkpt lat="31.3572750" lon="34.4719840">
<ele>55.000000</ele>
<time>2020-03-01T05:52:47.000Z</time>
</trkpt>
<trkpt lat="31.3568350" lon="34.4727790">
<ele>57.000000</ele>
<time>2020-03-01T05:53:52.000Z</time>
</trkpt>
<trkpt lat="31.3566630" lon="34.4730410">
<ele>56.000000</ele>
<time>2020-03-01T05:54:14.000Z</time>
</trkpt>
<trkpt lat="31.3562650" lon="34.4735380">
<ele>55.000000</ele>
<time>2020-03-01T05:55:01.000Z</time>
</trkpt>
<trkpt lat="31.3561860" lon="34.4738850">
<ele>54.000000</ele>
<time>2020-03-01T05:55:26.000Z</time>
</trkpt>
<trkpt lat="31.3560690" lon="34.4741610">
<ele>53.000004</ele>
<time>2020-03-01T05:55:47.000Z</time>
</trkpt>
<trkpt lat="31.3559760" lon="34.4742280">
<ele>53.000004</ele>
<time>2020-03-01T05:55:56.000Z</time>
</trkpt>
<trkpt lat="31.3554640" lon="34.4742640">
<ele>51.000000</ele>
<time>2020-03-01T05:56:37.000Z</time>
</trkpt>
<trkpt lat="31.3551640" lon="34.4742530">
<ele>51.000000</ele>
<time>2020-03-01T05:57:02.000Z</time>
</trkpt>
<trkpt lat="31.3549800" lon="34.4743140">
<ele>50.000000</ele>
<time>2020-03-01T05:57:17.000Z</time>
</trkpt>
<trkpt lat="31.3548480" lon="34.4744330">
<ele>50.000000</ele>
<time>2020-03-01T05:57:30.000Z</time>
</trkpt>
<trkpt lat="31.3547610" lon="34.4745540">
<ele>50.000000</ele>
<time>2020-03-01T05:57:41.000Z</time>
</trkpt>
<trkpt lat="31.3547790" lon="34.4749210">
<ele>51.999996</ele>
<time>2020-03-01T05:58:07.000Z</time>
</trkpt>
<trkpt lat="31.3546750" lon="34.4750170">
<ele>51.000000</ele>
<time>2020-03-01T05:58:17.000Z</time>
</trkpt>
<trkpt lat="31.3546840" lon="34.4751250">
<ele>51.000000</ele>
<time>2020-03-01T05:58:25.000Z</time>
</trkpt>
<trkpt lat="31.3546260" lon="34.4755120">
<ele>51.000000</ele>
<time>2020-03-01T05:58:52.000Z</time>
</trkpt>
<trkpt lat="31.3546100" lon="34.4761020">
<ele>51.000000</ele>
<time>2020-03-01T05:59:33.000Z</time>
</trkpt>
<trkpt lat="31.3546600" lon="34.4762660">
<ele>51.000000</ele>
<time>2020-03-01T05:59:45.000Z</time>
</trkpt>
<trkpt lat="31.3549240" lon="34.4766200">
<ele>50.000000</ele>
<time>2020-03-01T06:00:17.000Z</time>
</trkpt>
<trkpt lat="31.3551060" lon="34.4770040">
<ele>51.999996</ele>
<time>2020-03-01T06:00:48.000Z</time>
</trkpt>
<trkpt lat="31.3550560" lon="34.4771340">
<ele>53.000004</ele>
<time>2020-03-01T06:00:58.000Z</time>
</trkpt>
<trkpt lat="31.3549750" lon="34.4770960">
<ele>53.000004</ele>
<time>2020-03-01T06:01:05.000Z</time>
</trkpt>
<trkpt lat="31.3547940" lon="34.4771170">
<ele>54.000000</ele>
<time>2020-03-01T06:01:20.000Z</time>
</trkpt>
<trkpt lat="31.3546110" lon="34.4772610">
<ele>56.000000</ele>
<time>2020-03-01T06:01:38.000Z</time>
</trkpt>
<trkpt lat="31.3545810" lon="34.4773350">
<ele>56.000000</ele>
<time>2020-03-01T06:01:43.000Z</time>
</trkpt>
<trkpt lat="31.3545840" lon="34.4775050">
<ele>57.000000</ele>
<time>2020-03-01T06:01:55.000Z</time>
</trkpt>
<trkpt lat="31.3545490" lon="34.4777060">
<ele>57.000000</ele>
<time>2020-03-01T06:02:09.000Z</time>
</trkpt>
<trkpt lat="31.3545900" lon="34.4779210">
<ele>57.000000</ele>
<time>2020-03-01T06:02:24.000Z</time>
</trkpt>
<trkpt lat="31.3545820" lon="34.4779840">
<ele>58.000000</ele>
<time>2020-03-01T06:02:29.000Z</time>
</trkpt>
<trkpt lat="31.3545100" lon="34.4780480">
<ele>58.000000</ele>
<time>2020-03-01T06:02:36.000Z</time>
</trkpt>
<trkpt lat="31.3542470" lon="34.4780220">
<ele>59.000000</ele>
<time>2020-03-01T06:02:57.000Z</time>
</trkpt>
<trkpt lat="31.3541130" lon="34.4780900">
<ele>59.000000</ele>
<time>2020-03-01T06:03:09.000Z</time>
</trkpt>
<trkpt lat="31.3540590" lon="34.4779900">
<ele>58.000000</ele>
<time>2020-03-01T06:03:18.000Z</time>
</trkpt>
<trkpt lat="31.3539890" lon="34.4776110">
<ele>58.000000</ele>
<time>2020-03-01T06:03:45.000Z</time>
</trkpt>
<trkpt lat="31.3539400" lon="34.4775120">
<ele>58.000000</ele>
<time>2020-03-01T06:03:53.000Z</time>
</trkpt>
<trkpt lat="31.3539060" lon="34.4774710">
<ele>58.000000</ele>
<time>2020-03-01T06:03:56.000Z</time>
</trkpt>
<trkpt lat="31.3534780" lon="34.4773000">
<ele>55.000000</ele>
<time>2020-03-01T06:04:33.000Z</time>
</trkpt>
<trkpt lat="31.3531930" lon="34.4772270">
<ele>54.000000</ele>
<time>2020-03-01T06:04:56.000Z</time>
</trkpt>
<trkpt lat="31.3529900" lon="34.4772190">
<ele>51.999996</ele>
<time>2020-03-01T06:05:12.000Z</time>
</trkpt>
<trkpt lat="31.3528430" lon="34.4772780">
<ele>51.999996</ele>
<time>2020-03-01T06:05:25.000Z</time>
</trkpt>
<trkpt lat="31.3526230" lon="34.4772310">
<ele>50.000000</ele>
<time>2020-03-01T06:05:43.000Z</time>
</trkpt>
<trkpt lat="31.3523950" lon="34.4772690">
<ele>50.000000</ele>
<time>2020-03-01T06:06:02.000Z</time>
</trkpt>
<trkpt lat="31.3523030" lon="34.4772160">
<ele>50.000000</ele>
<time>2020-03-01T06:06:10.000Z</time>
</trkpt>
<trkpt lat="31.3521170" lon="34.4772920">
<ele>51.000000</ele>
<time>2020-03-01T06:06:26.000Z</time>
</trkpt>
<trkpt lat="31.3520620" lon="34.4773800">
<ele>51.999996</ele>
<time>2020-03-01T06:06:33.000Z</time>
</trkpt>
<trkpt lat="31.3520040" lon="34.4774050">
<ele>51.999996</ele>
<time>2020-03-01T06:06:39.000Z</time>
</trkpt>
<trkpt lat="31.3516420" lon="34.4771560">
<ele>51.999996</ele>
<time>2020-03-01T06:07:12.000Z</time>
</trkpt>
<trkpt lat="31.3515400" lon="34.4771460">
<ele>51.999996</ele>
<time>2020-03-01T06:07:21.000Z</time>
</trkpt>
<trkpt lat="31.3514590" lon="34.4771980">
<ele>51.999996</ele>
<time>2020-03-01T06:07:28.000Z</time>
</trkpt>
<trkpt lat="31.3511960" lon="34.4772190">
<ele>53.000004</ele>
<time>2020-03-01T06:07:50.000Z</time>
</trkpt>
<trkpt lat="31.3509050" lon="34.4775380">
<ele>56.000000</ele>
<time>2020-03-01T06:08:22.000Z</time>
</trkpt>
<trkpt lat="31.3508000" lon="34.4775400">
<ele>56.000000</ele>
<time>2020-03-01T06:08:30.000Z</time>
</trkpt>
<trkpt lat="31.3505660" lon="34.4777070">
<ele>57.000000</ele>
<time>2020-03-01T06:08:53.000Z</time>
</trkpt>
<trkpt lat="31.3504680" lon="34.4776970">
<ele>58.000000</ele>
<time>2020-03-01T06:09:01.000Z</time>
</trkpt>
<trkpt lat="31.3503130" lon="34.4779620">
<ele>58.000000</ele>
<time>2020-03-01T06:09:23.000Z</time>
</trkpt>
<trkpt lat="31.3502250" lon="34.4780500">
<ele>59.000000</ele>
<time>2020-03-01T06:09:32.000Z</time>
</trkpt>
<trkpt lat="31.3501310" lon="34.4780430">
<ele>59.000000</ele>
<time>2020-03-01T06:09:40.000Z</time>
</trkpt>
<trkpt lat="31.3498850" lon="34.4778840">
<ele>59.000000</ele>
<time>2020-03-01T06:10:03.000Z</time>
</trkpt>
<trkpt lat="31.3496410" lon="34.4779030">
<ele>58.000000</ele>
<time>2020-03-01T06:10:23.000Z</time>
</trkpt>
<trkpt lat="31.3491820" lon="34.4778520">
<ele>57.000000</ele>
<time>2020-03-01T06:11:00.000Z</time>
</trkpt>
<trkpt lat="31.3491130" lon="34.4778060">
<ele>57.000000</ele>
<time>2020-03-01T06:11:06.000Z</time>
</trkpt>
<trkpt lat="31.3487340" lon="34.4771080">
<ele>54.000000</ele>
<time>2020-03-01T06:12:03.000Z</time>
</trkpt>
<trkpt lat="31.3484620" lon="34.4769660">
<ele>53.000004</ele>
<time>2020-03-01T06:12:27.000Z</time>
</trkpt>
<trkpt lat="31.3482490" lon="34.4766720">
<ele>51.999996</ele>
<time>2020-03-01T06:12:54.000Z</time>
</trkpt>
<trkpt lat="31.3480540" lon="34.4765840">
<ele>50.000000</ele>
<time>2020-03-01T06:13:11.000Z</time>
</trkpt>
<trkpt lat="31.3479550" lon="34.4764800">
<ele>48.000000</ele>
<time>2020-03-01T06:13:21.000Z</time>
</trkpt>
<trkpt lat="31.3478520" lon="34.4764620">
<ele>48.000000</ele>
<time>2020-03-01T06:13:30.000Z</time>
</trkpt>
<trkpt lat="31.3475260" lon="34.4759210">
<ele>43.999996</ele>
<time>2020-03-01T06:14:15.000Z</time>
</trkpt>
<trkpt lat="31.3474060" lon="34.4758170">
<ele>45.000004</ele>
<time>2020-03-01T06:14:27.000Z</time>
</trkpt>
<trkpt lat="31.3472150" lon="34.4757680">
<ele>46.000000</ele>
<time>2020-03-01T06:14:43.000Z</time>
</trkpt>
<trkpt lat="31.3470300" lon="34.4758020">
<ele>47.000000</ele>
<time>2020-03-01T06:14:58.000Z</time>
</trkpt>
<trkpt lat="31.3468490" lon="34.4759400">
<ele>47.000000</ele>
<time>2020-03-01T06:15:15.000Z</time>
</trkpt>
<trkpt lat="31.3466260" lon="34.4760470">
<ele>48.000000</ele>
<time>2020-03-01T06:15:35.000Z</time>
</trkpt>
<trkpt lat="31.3461130" lon="34.4760490">
<ele>48.000000</ele>
<time>2020-03-01T06:16:16.000Z</time>
</trkpt>
<trkpt lat="31.3459320" lon="34.4761770">
<ele>49.000000</ele>
<time>2020-03-01T06:16:33.000Z</time>
</trkpt>
<trkpt lat="31.3457640" lon="34.4762380">
<ele>49.000000</ele>
<time>2020-03-01T06:16:47.000Z</time>
</trkpt>
<trkpt lat="31.3456520" lon="34.4762410">
<ele>50.000000</ele>
<time>2020-03-01T06:16:56.000Z</time>
</trkpt>
<trkpt lat="31.3455070" lon="34.4761290">
<ele>51.000000</ele>
<time>2020-03-01T06:17:11.000Z</time>
</trkpt>
<trkpt lat="31.3453150" lon="34.4760650">
<ele>51.999996</ele>
<time>2020-03-01T06:17:27.000Z</time>
</trkpt>
<trkpt lat="31.3448810" lon="34.4761000">
<ele>54.000000</ele>
<time>2020-03-01T06:18:02.000Z</time>
</trkpt>
<trkpt lat="31.3448100" lon="34.4761350">
<ele>54.000000</ele>
<time>2020-03-01T06:18:09.000Z</time>
</trkpt>
<trkpt lat="31.3447570" lon="34.4763390">
<ele>55.000000</ele>
<time>2020-03-01T06:18:23.000Z</time>
</trkpt>
<trkpt lat="31.3445460" lon="34.4766950">
<ele>57.000000</ele>
<time>2020-03-01T06:18:53.000Z</time>
</trkpt>
<trkpt lat="31.3443690" lon="34.4768270">
<ele>57.000000</ele>
<time>2020-03-01T06:19:10.000Z</time>
</trkpt>
<trkpt lat="31.3440260" lon="34.4769400">
<ele>57.000000</ele>
<time>2020-03-01T06:19:39.000Z</time>
</trkpt>
<trkpt lat="31.3436320" lon="34.4770100">
<ele>58.000000</ele>
<time>2020-03-01T06:20:11.000Z</time>
</trkpt>
<trkpt lat="31.3433540" lon="34.4769090">
<ele>60.000000</ele>
<time>2020-03-01T06:20:34.000Z</time>
</trkpt>
<trkpt lat="31.3428040" lon="34.4767910">
<ele>61.000004</ele>
<time>2020-03-01T06:21:19.000Z</time>
</trkpt>
<trkpt lat="31.3426110" lon="34.4768040">
<ele>61.000004</ele>
<time>2020-03-01T06:21:35.000Z</time>
</trkpt>
<trkpt lat="31.3422910" lon="34.4768960">
<ele>61.000004</ele>
<time>2020-03-01T06:22:01.000Z</time>
</trkpt>
<trkpt lat="31.3416510" lon="34.4765860">
<ele>65.000000</ele>
<time>2020-03-01T06:22:57.000Z</time>
</trkpt>
<trkpt lat="31.3416190" lon="34.4765680">
<ele>65.000000</ele>
<time>2020-03-01T06:23:00.000Z</time>
</trkpt>
<trkpt lat="31.3414600" lon="34.4763480">
<ele>65.000000</ele>
<time>2020-03-01T06:23:20.000Z</time>
</trkpt>
<trkpt lat="31.3413740" lon="34.4762850">
<ele>64.000000</ele>
<time>2020-03-01T06:23:28.000Z</time>
</trkpt>
<trkpt lat="31.3412570" lon="34.4762580">
<ele>64.000000</ele>
<time>2020-03-01T06:23:38.000Z</time>
</trkpt>
<trkpt lat="31.3408750" lon="34.4763930">
<ele>62.000000</ele>
<time>2020-03-01T06:24:10.000Z</time>
</trkpt>
<trkpt lat="31.3405160" lon="34.4764790">
<ele>61.000004</ele>
<time>2020-03-01T06:24:40.000Z</time>
</trkpt>
<trkpt lat="31.3404240" lon="34.4765640">
<ele>60.000000</ele>
<time>2020-03-01T06:24:49.000Z</time>
</trkpt>
<trkpt lat="31.3403290" lon="34.4768000">
<ele>59.000000</ele>
<time>2020-03-01T06:25:07.000Z</time>
</trkpt>
<trkpt lat="31.3402730" lon="34.4768470">
<ele>58.000000</ele>
<time>2020-03-01T06:25:13.000Z</time>
</trkpt>
<trkpt lat="31.3400320" lon="34.4768330">
<ele>57.000000</ele>
<time>2020-03-01T06:25:32.000Z</time>
</trkpt>
<trkpt lat="31.3397810" lon="34.4767730">
<ele>58.000000</ele>
<time>2020-03-01T06:25:53.000Z</time>
</trkpt>
<trkpt lat="31.3390550" lon="34.4769110">
<ele>58.000000</ele>
<time>2020-03-01T06:26:52.000Z</time>
</trkpt>
<trkpt lat="31.3387080" lon="34.4770920">
<ele>56.000000</ele>
<time>2020-03-01T06:27:23.000Z</time>
</trkpt>
<trkpt lat="31.3383610" lon="34.4770370">
<ele>56.000000</ele>
<time>2020-03-01T06:27:51.000Z</time>
</trkpt>
<trkpt lat="31.3381320" lon="34.4771290">
<ele>55.000000</ele>
<time>2020-03-01T06:28:11.000Z</time>
</trkpt>
<trkpt lat="31.3379240" lon="34.4770660">
<ele>56.000000</ele>
<time>2020-03-01T06:28:28.000Z</time>
</trkpt>
<trkpt lat="31.3375310" lon="34.4771020">
<ele>56.000000</ele>
<time>2020-03-01T06:29:00.000Z</time>
</trkpt>
<trkpt lat="31.3373790" lon="34.4771920">
<ele>56.000000</ele>
<time>2020-03-01T06:29:14.000Z</time>
</trkpt>
<trkpt lat="31.3372230" lon="34.4775910">
<ele>53.000004</ele>
<time>2020-03-01T06:29:44.000Z</time>
</trkpt>
<trkpt lat="31.3367890" lon="34.4776510">
<ele>54.000000</ele>
<time>2020-03-01T06:30:19.000Z</time>
</trkpt>
<trkpt lat="31.3365380" lon="34.4775550">
<ele>55.000000</ele>
<time>2020-03-01T06:30:41.000Z</time>
</trkpt>
<trkpt lat="31.3364350" lon="34.4773790">
<ele>56.000000</ele>
<time>2020-03-01T06:30:56.000Z</time>
</trkpt>
<trkpt lat="31.3363640" lon="34.4773270">
<ele>56.000000</ele>
<time>2020-03-01T06:31:02.000Z</time>
</trkpt>
<trkpt lat="31.3359900" lon="34.4774040">
<ele>57.000000</ele>
<time>2020-03-01T06:31:33.000Z</time>
</trkpt>
<trkpt lat="31.3356700" lon="34.4774310">
<ele>57.000000</ele>
<time>2020-03-01T06:31:59.000Z</time>
</trkpt>
<trkpt lat="31.3353200" lon="34.4774000">
<ele>58.000000</ele>
<time>2020-03-01T06:32:27.000Z</time>
</trkpt>
<trkpt lat="31.3350200" lon="34.4771810">
<ele>60.000000</ele>
<time>2020-03-01T06:32:55.000Z</time>
</trkpt>
<trkpt lat="31.3348330" lon="34.4771520">
<ele>61.000004</ele>
<time>2020-03-01T06:33:11.000Z</time>
</trkpt>
<trkpt lat="31.3342540" lon="34.4766760">
<ele>64.000000</ele>
<time>2020-03-01T06:34:08.000Z</time>
</trkpt>
<trkpt lat="31.3341720" lon="34.4766510">
<ele>64.000000</ele>
<time>2020-03-01T06:34:15.000Z</time>
</trkpt>
<trkpt lat="31.3339820" lon="34.4769220">
<ele>63.000000</ele>
<time>2020-03-01T06:34:39.000Z</time>
</trkpt>
<trkpt lat="31.3336650" lon="34.4772550">
<ele>61.000004</ele>
<time>2020-03-01T06:35:13.000Z</time>
</trkpt>
<trkpt lat="31.3336050" lon="34.4773590">
<ele>60.000000</ele>
<time>2020-03-01T06:35:22.000Z</time>
</trkpt>
<trkpt lat="31.3335000" lon="34.4773690">
<ele>59.000000</ele>
<time>2020-03-01T06:35:31.000Z</time>
</trkpt>
<trkpt lat="31.3332050" lon="34.4772130">
<ele>60.000000</ele>
<time>2020-03-01T06:35:57.000Z</time>
</trkpt>
<trkpt lat="31.3331270" lon="34.4772440">
<ele>60.000000</ele>
<time>2020-03-01T06:36:04.000Z</time>
</trkpt>
<trkpt lat="31.3333030" lon="34.4776050">
<ele>57.000000</ele>
<time>2020-03-01T06:36:33.000Z</time>
</trkpt>
<trkpt lat="31.3333460" lon="34.4779180">
<ele>55.000000</ele>
<time>2020-03-01T06:36:54.000Z</time>
</trkpt>
<trkpt lat="31.3332980" lon="34.4781070">
<ele>54.000000</ele>
<time>2020-03-01T06:37:08.000Z</time>
</trkpt>
<trkpt lat="31.3329750" lon="34.4784560">
<ele>53.000004</ele>
<time>2020-03-01T06:37:44.000Z</time>
</trkpt>
<trkpt lat="31.3326060" lon="34.4785200">
<ele>54.000000</ele>
<time>2020-03-01T06:38:14.000Z</time>
</trkpt>
<trkpt lat="31.3324280" lon="34.4784410">
<ele>55.000000</ele>
<time>2020-03-01T06:38:29.000Z</time>
</trkpt>
<trkpt lat="31.3321050" lon="34.4786220">
<ele>56.000000</ele>
<time>2020-03-01T06:38:58.000Z</time>
</trkpt>
<trkpt lat="31.3318270" lon="34.4786150">
<ele>57.000000</ele>
<time>2020-03-01T06:39:21.000Z</time>
</trkpt>
<trkpt lat="31.3317700" lon="34.4786370">
<ele>58.000000</ele>
<time>2020-03-01T06:39:25.000Z</time>
</trkpt>
<trkpt lat="31.3311250" lon="34.4791520">
<ele>57.000000</ele>
<time>2020-03-01T06:40:28.000Z</time>
</trkpt>
<trkpt lat="31.3309630" lon="34.4793370">
<ele>56.000000</ele>
<time>2020-03-01T06:40:46.000Z</time>
</trkpt>
<trkpt lat="31.3308010" lon="34.4795840">
<ele>55.000000</ele>
<time>2020-03-01T06:41:08.000Z</time>
</trkpt>
<trkpt lat="31.3301100" lon="34.4802510">
<ele>57.000000</ele>
<time>2020-03-01T06:42:20.000Z</time>
</trkpt>
<trkpt lat="31.3298810" lon="34.4804140">
<ele>58.000000</ele>
<time>2020-03-01T06:42:41.000Z</time>
</trkpt>
<trkpt lat="31.3296210" lon="34.4807770">
<ele>57.000000</ele>
<time>2020-03-01T06:43:14.000Z</time>
</trkpt>
<trkpt lat="31.3290030" lon="34.4814530">
<ele>57.000000</ele>
<time>2020-03-01T06:44:22.000Z</time>
</trkpt>
<trkpt lat="31.3285960" lon="34.4817740">
<ele>59.000000</ele>
<time>2020-03-01T06:45:01.000Z</time>
</trkpt>
<trkpt lat="31.3268800" lon="34.4828940">
<ele>57.000000</ele>
<time>2020-03-01T06:47:39.000Z</time>
</trkpt>
<trkpt lat="31.3265330" lon="34.4830230">
<ele>57.000000</ele>
<time>2020-03-01T06:48:08.000Z</time>
</trkpt>
<trkpt lat="31.3263070" lon="34.4830390">
<ele>57.000000</ele>
<time>2020-03-01T06:48:27.000Z</time>
</trkpt>
<trkpt lat="31.3261660" lon="34.4831110">
<ele>57.000000</ele>
<time>2020-03-01T06:48:39.000Z</time>
</trkpt>
<trkpt lat="31.3257680" lon="34.4831780">
<ele>57.000000</ele>
<time>2020-03-01T06:49:11.000Z</time>
</trkpt>
<trkpt lat="31.3254630" lon="34.4831230">
<ele>57.000000</ele>
<time>2020-03-01T06:49:36.000Z</time>
</trkpt>
<trkpt lat="31.3253460" lon="34.4831580">
<ele>57.000000</ele>
<time>2020-03-01T06:49:46.000Z</time>
</trkpt>
<trkpt lat="31.3252030" lon="34.4831070">
<ele>57.000000</ele>
<time>2020-03-01T06:49:58.000Z</time>
</trkpt>
<trkpt lat="31.3249110" lon="34.4831260">
<ele>57.000000</ele>
<time>2020-03-01T06:50:22.000Z</time>
</trkpt>
<trkpt lat="31.3247840" lon="34.4830600">
<ele>58.000000</ele>
<time>2020-03-01T06:50:33.000Z</time>
</trkpt>
<trkpt lat="31.3246920" lon="34.4830710">
<ele>58.000000</ele>
<time>2020-03-01T06:50:41.000Z</time>
</trkpt>
<trkpt lat="31.3244950" lon="34.4830090">
<ele>59.000000</ele>
<time>2020-03-01T06:50:57.000Z</time>
</trkpt>
<trkpt lat="31.3242880" lon="34.4826810">
<ele>61.000004</ele>
<time>2020-03-01T06:51:26.000Z</time>
</trkpt>
<trkpt lat="31.3240850" lon="34.4825800">
<ele>62.000000</ele>
<time>2020-03-01T06:51:43.000Z</time>
</trkpt>
<trkpt lat="31.3238170" lon="34.4825110">
<ele>63.000000</ele>
<time>2020-03-01T06:52:05.000Z</time>
</trkpt>
<trkpt lat="31.3234700" lon="34.4822880">
<ele>65.000000</ele>
<time>2020-03-01T06:52:37.000Z</time>
</trkpt>
<trkpt lat="31.3231480" lon="34.4821930">
<ele>66.000000</ele>
<time>2020-03-01T06:53:04.000Z</time>
</trkpt>
<trkpt lat="31.3229810" lon="34.4826300">
<ele>65.000000</ele>
<time>2020-03-01T06:53:37.000Z</time>
</trkpt>
<trkpt lat="31.3227100" lon="34.4827620">
<ele>64.000000</ele>
<time>2020-03-01T06:54:01.000Z</time>
</trkpt>
<trkpt lat="31.3226530" lon="34.4827330">
<ele>65.000000</ele>
<time>2020-03-01T06:54:06.000Z</time>
</trkpt>
<trkpt lat="31.3225490" lon="34.4827770">
<ele>65.000000</ele>
<time>2020-03-01T06:54:15.000Z</time>
</trkpt>
<trkpt lat="31.3224340" lon="34.4829050">
<ele>64.000000</ele>
<time>2020-03-01T06:54:28.000Z</time>
</trkpt>
<trkpt lat="31.3224040" lon="34.4831910">
<ele>62.000000</ele>
<time>2020-03-01T06:54:48.000Z</time>
</trkpt>
<trkpt lat="31.3223450" lon="34.4832340">
<ele>61.000004</ele>
<time>2020-03-01T06:54:54.000Z</time>
</trkpt>
<trkpt lat="31.3222730" lon="34.4832030">
<ele>62.000000</ele>
<time>2020-03-01T06:55:00.000Z</time>
</trkpt>
<trkpt lat="31.3222190" lon="34.4832140">
<ele>62.000000</ele>
<time>2020-03-01T06:55:04.000Z</time>
</trkpt>
<trkpt lat="31.3219970" lon="34.4834580">
<ele>62.000000</ele>
<time>2020-03-01T06:55:29.000Z</time>
</trkpt>
<trkpt lat="31.3218100" lon="34.4835560">
<ele>63.000000</ele>
<time>2020-03-01T06:55:46.000Z</time>
</trkpt>
<trkpt lat="31.3217770" lon="34.4837150">
<ele>62.000000</ele>
<time>2020-03-01T06:55:57.000Z</time>
</trkpt>
<trkpt lat="31.3217160" lon="34.4838250">
<ele>62.000000</ele>
<time>2020-03-01T06:56:06.000Z</time>
</trkpt>
<trkpt lat="31.3216000" lon="34.4839320">
<ele>62.000000</ele>
<time>2020-03-01T06:56:18.000Z</time>
</trkpt>
<trkpt lat="31.3214150" lon="34.4843130">
<ele>61.000004</ele>
<time>2020-03-01T06:56:48.000Z</time>
</trkpt>
<trkpt lat="31.3213650" lon="34.4845860">
<ele>61.000004</ele>
<time>2020-03-01T06:57:07.000Z</time>
</trkpt>
<trkpt lat="31.3212720" lon="34.4847470">
<ele>61.000004</ele>
<time>2020-03-01T06:57:21.000Z</time>
</trkpt>
<trkpt lat="31.3210160" lon="34.4849980">
<ele>62.000000</ele>
<time>2020-03-01T06:57:47.000Z</time>
</trkpt>
<trkpt lat="31.3207980" lon="34.4850700">
<ele>63.000000</ele>
<time>2020-03-01T06:58:06.000Z</time>
</trkpt>
<trkpt lat="31.3206240" lon="34.4852230">
<ele>63.000000</ele>
<time>2020-03-01T06:58:23.000Z</time>
</trkpt>
<trkpt lat="31.3202690" lon="34.4859030">
<ele>63.000000</ele>
<time>2020-03-01T06:59:18.000Z</time>
</trkpt>
<trkpt lat="31.3201410" lon="34.4860530">
<ele>63.000000</ele>
<time>2020-03-01T06:59:33.000Z</time>
</trkpt>
<trkpt lat="31.3198620" lon="34.4862430">
<ele>63.000000</ele>
<time>2020-03-01T06:59:59.000Z</time>
</trkpt>
<trkpt lat="31.3198310" lon="34.4864290">
<ele>62.000000</ele>
<time>2020-03-01T07:00:12.000Z</time>
</trkpt>
<trkpt lat="31.3197200" lon="34.4866480">
<ele>61.000004</ele>
<time>2020-03-01T07:00:30.000Z</time>
</trkpt>
<trkpt lat="31.3196760" lon="34.4866880">
<ele>61.000004</ele>
<time>2020-03-01T07:00:34.000Z</time>
</trkpt>
<trkpt lat="31.3195510" lon="34.4866880">
<ele>62.000000</ele>
<time>2020-03-01T07:00:44.000Z</time>
</trkpt>
<trkpt lat="31.3194500" lon="34.4869220">
<ele>62.000000</ele>
<time>2020-03-01T07:01:03.000Z</time>
</trkpt>
<trkpt lat="31.3191500" lon="34.4871120">
<ele>62.000000</ele>
<time>2020-03-01T07:01:30.000Z</time>
</trkpt>
<trkpt lat="31.3190060" lon="34.4872820">
<ele>62.000000</ele>
<time>2020-03-01T07:01:47.000Z</time>
</trkpt>
<trkpt lat="31.3188650" lon="34.4875860">
<ele>62.000000</ele>
<time>2020-03-01T07:02:11.000Z</time>
</trkpt>
<trkpt lat="31.3188040" lon="34.4876270">
<ele>62.000000</ele>
<time>2020-03-01T07:02:16.000Z</time>
</trkpt>
<trkpt lat="31.3184520" lon="34.4880380">
<ele>63.000000</ele>
<time>2020-03-01T07:02:56.000Z</time>
</trkpt>
<trkpt lat="31.3181820" lon="34.4881140">
<ele>63.000000</ele>
<time>2020-03-01T07:03:19.000Z</time>
</trkpt>
<trkpt lat="31.3179920" lon="34.4881180">
<ele>63.000000</ele>
<time>2020-03-01T07:03:34.000Z</time>
</trkpt>
<trkpt lat="31.3178630" lon="34.4880530">
<ele>63.000000</ele>
<time>2020-03-01T07:03:45.000Z</time>
</trkpt>
<trkpt lat="31.3176980" lon="34.4880730">
<ele>64.000000</ele>
<time>2020-03-01T07:03:59.000Z</time>
</trkpt>
<trkpt lat="31.3176580" lon="34.4880950">
<ele>64.000000</ele>
<time>2020-03-01T07:04:02.000Z</time>
</trkpt>
<trkpt lat="31.3175810" lon="34.4882170">
<ele>64.000000</ele>
<time>2020-03-01T07:04:13.000Z</time>
</trkpt>
<trkpt lat="31.3174730" lon="34.4882920">
<ele>64.000000</ele>
<time>2020-03-01T07:04:23.000Z</time>
</trkpt>
<trkpt lat="31.3173570" lon="34.4882970">
<ele>64.000000</ele>
<time>2020-03-01T07:04:32.000Z</time>
</trkpt>
<trkpt lat="31.3170030" lon="34.4884980">
<ele>64.000000</ele>
<time>2020-03-01T07:05:04.000Z</time>
</trkpt>
<trkpt lat="31.3168870" lon="34.4885330">
<ele>64.000000</ele>
<time>2020-03-01T07:05:14.000Z</time>
</trkpt>
<trkpt lat="31.3167490" lon="34.4885210">
<ele>64.000000</ele>
<time>2020-03-01T07:05:25.000Z</time>
</trkpt>
<trkpt lat="31.3166250" lon="34.4886310">
<ele>64.000000</ele>
<time>2020-03-01T07:05:38.000Z</time>
</trkpt>
<trkpt lat="31.3161580" lon="34.4888780">
<ele>65.000000</ele>
<time>2020-03-01T07:06:19.000Z</time>
</trkpt>
<trkpt lat="31.3160520" lon="34.4890110">
<ele>64.000000</ele>
<time>2020-03-01T07:06:31.000Z</time>
</trkpt>
<trkpt lat="31.3159710" lon="34.4890690">
<ele>64.000000</ele>
<time>2020-03-01T07:06:39.000Z</time>
</trkpt>
<trkpt lat="31.3158760" lon="34.4890060">
<ele>65.000000</ele>
<time>2020-03-01T07:06:48.000Z</time>
</trkpt>
<trkpt lat="31.3157140" lon="34.4890220">
<ele>65.000000</ele>
<time>2020-03-01T07:07:01.000Z</time>
</trkpt>
<trkpt lat="31.3154640" lon="34.4888810">
<ele>66.000000</ele>
<time>2020-03-01T07:07:24.000Z</time>
</trkpt>
<trkpt lat="31.3152940" lon="34.4889320">
<ele>66.000000</ele>
<time>2020-03-01T07:07:38.000Z</time>
</trkpt>
<trkpt lat="31.3146150" lon="34.4888450">
<ele>66.000000</ele>
<time>2020-03-01T07:08:33.000Z</time>
</trkpt>
<trkpt lat="31.3144970" lon="34.4888570">
<ele>66.000000</ele>
<time>2020-03-01T07:08:42.000Z</time>
</trkpt>
<trkpt lat="31.3142550" lon="34.4889850">
<ele>65.000000</ele>
<time>2020-03-01T07:09:04.000Z</time>
</trkpt>
<trkpt lat="31.3139180" lon="34.4889530">
<ele>65.000000</ele>
<time>2020-03-01T07:09:31.000Z</time>
</trkpt>
<trkpt lat="31.3133490" lon="34.4891420">
<ele>65.000000</ele>
<time>2020-03-01T07:10:18.000Z</time>
</trkpt>
<trkpt lat="31.3131670" lon="34.4891320">
<ele>65.000000</ele>
<time>2020-03-01T07:10:33.000Z</time>
</trkpt>
<trkpt lat="31.3126230" lon="34.4889980">
<ele>66.000000</ele>
<time>2020-03-01T07:11:18.000Z</time>
</trkpt>
<trkpt lat="31.3121460" lon="34.4889450">
<ele>67.000000</ele>
<time>2020-03-01T07:11:56.000Z</time>
</trkpt>
<trkpt lat="31.3117300" lon="34.4891410">
<ele>65.000000</ele>
<time>2020-03-01T07:12:32.000Z</time>
</trkpt>
<trkpt lat="31.3114910" lon="34.4891370">
<ele>65.000000</ele>
<time>2020-03-01T07:12:52.000Z</time>
</trkpt>
<trkpt lat="31.3111350" lon="34.4890530">
<ele>65.000000</ele>
<time>2020-03-01T07:13:21.000Z</time>
</trkpt>
<trkpt lat="31.3108770" lon="34.4891190">
<ele>63.000000</ele>
<time>2020-03-01T07:13:42.000Z</time>
</trkpt>
<trkpt lat="31.3106980" lon="34.4889840">
<ele>64.000000</ele>
<time>2020-03-01T07:13:59.000Z</time>
</trkpt>
<trkpt lat="31.3106530" lon="34.4888770">
<ele>65.000000</ele>
<time>2020-03-01T07:14:08.000Z</time>
</trkpt>
<trkpt lat="31.3105570" lon="34.4888230">
<ele>65.000000</ele>
<time>2020-03-01T07:14:17.000Z</time>
</trkpt>
<trkpt lat="31.3104710" lon="34.4885950">
<ele>66.000000</ele>
<time>2020-03-01T07:14:35.000Z</time>
</trkpt>
<trkpt lat="31.3104110" lon="34.4885660">
<ele>66.000000</ele>
<time>2020-03-01T07:14:40.000Z</time>
</trkpt>
<trkpt lat="31.3103520" lon="34.4885680">
<ele>66.000000</ele>
<time>2020-03-01T07:14:45.000Z</time>
</trkpt>
<trkpt lat="31.3103890" lon="34.4888510">
<ele>65.000000</ele>
<time>2020-03-01T07:15:05.000Z</time>
</trkpt>
<trkpt lat="31.3103600" lon="34.4888510">
<ele>65.000000</ele>
<time>2020-03-01T07:15:07.000Z</time>
</trkpt>
<trkpt lat="31.3103710" lon="34.4887430">
<ele>65.000000</ele>
<time>2020-03-01T07:15:15.000Z</time>
</trkpt>
<trkpt lat="31.3103900" lon="34.4887160">
<ele>66.000000</ele>
<time>2020-03-01T07:15:17.000Z</time>
</trkpt>
<trkpt lat="31.3104100" lon="34.4887510">
<ele>65.000000</ele>
<time>2020-03-01T07:15:20.000Z</time>
</trkpt>
<trkpt lat="31.3103790" lon="34.4890050">
<ele>65.000000</ele>
<time>2020-03-01T07:15:37.000Z</time>
</trkpt>
<trkpt lat="31.3103170" lon="34.4892310">
<ele>64.000000</ele>
<time>2020-03-01T07:15:54.000Z</time>
</trkpt>
<trkpt lat="31.3102240" lon="34.4893620">
<ele>65.000000</ele>
<time>2020-03-01T07:16:05.000Z</time>
</trkpt>
<trkpt lat="31.3099550" lon="34.4894390">
<ele>65.000000</ele>
<time>2020-03-01T07:16:28.000Z</time>
</trkpt>
<trkpt lat="31.3095300" lon="34.4893780">
<ele>65.000000</ele>
<time>2020-03-01T07:17:02.000Z</time>
</trkpt>
<trkpt lat="31.3094080" lon="34.4893180">
<ele>65.000000</ele>
<time>2020-03-01T07:17:13.000Z</time>
</trkpt>
<trkpt lat="31.3092400" lon="34.4891650">
<ele>65.000000</ele>
<time>2020-03-01T07:17:30.000Z</time>
</trkpt>
<trkpt lat="31.3091850" lon="34.4890130">
<ele>66.000000</ele>
<time>2020-03-01T07:17:41.000Z</time>
</trkpt>
<trkpt lat="31.3091580" lon="34.4888150">
<ele>67.000000</ele>
<time>2020-03-01T07:17:55.000Z</time>
</trkpt>
<trkpt lat="31.3092020" lon="34.4885370">
<ele>68.000000</ele>
<time>2020-03-01T07:18:15.000Z</time>
</trkpt>
<trkpt lat="31.3091340" lon="34.4884700">
<ele>68.000000</ele>
<time>2020-03-01T07:18:22.000Z</time>
</trkpt>
<trkpt lat="31.3091590" lon="34.4881310">
<ele>69.000000</ele>
<time>2020-03-01T07:18:46.000Z</time>
</trkpt>
<trkpt lat="31.3091030" lon="34.4880070">
<ele>69.000000</ele>
<time>2020-03-01T07:18:56.000Z</time>
</trkpt>
<trkpt lat="31.3090960" lon="34.4878590">
<ele>69.000000</ele>
<time>2020-03-01T07:19:06.000Z</time>
</trkpt>
<trkpt lat="31.3091460" lon="34.4876390">
<ele>70.000000</ele>
<time>2020-03-01T07:19:22.000Z</time>
</trkpt>
<trkpt lat="31.3089850" lon="34.4874570">
<ele>69.000000</ele>
<time>2020-03-01T07:19:40.000Z</time>
</trkpt>
<trkpt lat="31.3089560" lon="34.4872940">
<ele>69.000000</ele>
<time>2020-03-01T07:19:52.000Z</time>
</trkpt>
<trkpt lat="31.3089720" lon="34.4871600">
<ele>69.000000</ele>
<time>2020-03-01T07:20:01.000Z</time>
</trkpt>
<trkpt lat="31.3090370" lon="34.4870710">
<ele>69.000000</ele>
<time>2020-03-01T07:20:09.000Z</time>
</trkpt>
<trkpt lat="31.3092200" lon="34.4865650">
<ele>69.000000</ele>
<time>2020-03-01T07:20:47.000Z</time>
</trkpt>
<trkpt lat="31.3093250" lon="34.4863720">
<ele>70.000000</ele>
<time>2020-03-01T07:21:03.000Z</time>
</trkpt>
<trkpt lat="31.3093590" lon="34.4862030">
<ele>70.000000</ele>
<time>2020-03-01T07:21:15.000Z</time>
</trkpt>
<trkpt lat="31.3093650" lon="34.4857770">
<ele>71.000000</ele>
<time>2020-03-01T07:21:44.000Z</time>
</trkpt>
<trkpt lat="31.3094180" lon="34.4855290">
<ele>72.000000</ele>
<time>2020-03-01T07:22:01.000Z</time>
</trkpt>
<trkpt lat="31.3095130" lon="34.4854440">
<ele>72.000000</ele>
<time>2020-03-01T07:22:11.000Z</time>
</trkpt>
<trkpt lat="31.3095680" lon="34.4855370">
<ele>72.000000</ele>
<time>2020-03-01T07:22:19.000Z</time>
</trkpt>
<trkpt lat="31.3095930" lon="34.4855250">
<ele>72.000000</ele>
<time>2020-03-01T07:22:21.000Z</time>
</trkpt>
<trkpt lat="31.3095950" lon="34.4854110">
<ele>72.000000</ele>
<time>2020-03-01T07:22:29.000Z</time>
</trkpt>
<trkpt lat="31.3096970" lon="34.4852660">
<ele>73.000000</ele>
<time>2020-03-01T07:22:42.000Z</time>
</trkpt>
<trkpt lat="31.3097520" lon="34.4850070">
<ele>73.000000</ele>
<time>2020-03-01T07:23:01.000Z</time>
</trkpt>
<trkpt lat="31.3097160" lon="34.4849190">
<ele>73.000000</ele>
<time>2020-03-01T07:23:08.000Z</time>
</trkpt>
<trkpt lat="31.3095870" lon="34.4849220">
<ele>73.000000</ele>
<time>2020-03-01T07:23:18.000Z</time>
</trkpt>
<trkpt lat="31.3095640" lon="34.4848890">
<ele>74.000000</ele>
<time>2020-03-01T07:23:21.000Z</time>
</trkpt>
<trkpt lat="31.3095580" lon="34.4848450">
<ele>74.000000</ele>
<time>2020-03-01T07:23:24.000Z</time>
</trkpt>
<trkpt lat="31.3095740" lon="34.4847890">
<ele>74.000000</ele>
<time>2020-03-01T07:23:28.000Z</time>
</trkpt>
<trkpt lat="31.3096540" lon="34.4847100">
<ele>73.000000</ele>
<time>2020-03-01T07:23:37.000Z</time>
</trkpt>
<trkpt lat="31.3096610" lon="34.4846080">
<ele>73.000000</ele>
<time>2020-03-01T07:23:44.000Z</time>
</trkpt>
<trkpt lat="31.3096220" lon="34.4845490">
<ele>73.000000</ele>
<time>2020-03-01T07:23:49.000Z</time>
</trkpt>
<trkpt lat="31.3093620" lon="34.4845110">
<ele>74.000000</ele>
<time>2020-03-01T07:24:10.000Z</time>
</trkpt>
<trkpt lat="31.3092500" lon="34.4844350">
<ele>75.000000</ele>
<time>2020-03-01T07:24:21.000Z</time>
</trkpt>
<trkpt lat="31.3092250" lon="34.4843780">
<ele>75.000000</ele>
<time>2020-03-01T07:24:25.000Z</time>
</trkpt>
<trkpt lat="31.3092310" lon="34.4842080">
<ele>75.000000</ele>
<time>2020-03-01T07:24:37.000Z</time>
</trkpt>
<trkpt lat="31.3090590" lon="34.4840800">
<ele>75.000000</ele>
<time>2020-03-01T07:24:54.000Z</time>
</trkpt>
<trkpt lat="31.3088710" lon="34.4836280">
<ele>76.000000</ele>
<time>2020-03-01T07:25:28.000Z</time>
</trkpt>
<trkpt lat="31.3087930" lon="34.4835440">
<ele>76.000000</ele>
<time>2020-03-01T07:25:37.000Z</time>
</trkpt>
<trkpt lat="31.3085930" lon="34.4834560">
<ele>76.000000</ele>
<time>2020-03-01T07:25:54.000Z</time>
</trkpt>
<trkpt lat="31.3084600" lon="34.4834460">
<ele>76.000000</ele>
<time>2020-03-01T07:26:05.000Z</time>
</trkpt>
<trkpt lat="31.3081840" lon="34.4835150">
<ele>76.000000</ele>
<time>2020-03-01T07:26:27.000Z</time>
</trkpt>
<trkpt lat="31.3077480" lon="34.4835610">
<ele>77.000000</ele>
<time>2020-03-01T07:27:02.000Z</time>
</trkpt>
<trkpt lat="31.3073790" lon="34.4834630">
<ele>78.000000</ele>
<time>2020-03-01T07:27:33.000Z</time>
</trkpt>
<trkpt lat="31.3072930" lon="34.4834750">
<ele>78.000000</ele>
<time>2020-03-01T07:27:40.000Z</time>
</trkpt>
<trkpt lat="31.3070330" lon="34.4833560">
<ele>78.000000</ele>
<time>2020-03-01T07:28:03.000Z</time>
</trkpt>
<trkpt lat="31.3066940" lon="34.4832940">
<ele>77.000000</ele>
<time>2020-03-01T07:28:30.000Z</time>
</trkpt>
<trkpt lat="31.3055600" lon="34.4828840">
<ele>77.000000</ele>
<time>2020-03-01T07:30:06.000Z</time>
</trkpt>
<trkpt lat="31.3053310" lon="34.4826640">
<ele>78.000000</ele>
<time>2020-03-01T07:30:30.000Z</time>
</trkpt>
<trkpt lat="31.3049990" lon="34.4826890">
<ele>78.000000</ele>
<time>2020-03-01T07:30:57.000Z</time>
</trkpt>
<trkpt lat="31.3048620" lon="34.4827520">
<ele>77.000000</ele>
<time>2020-03-01T07:31:09.000Z</time>
</trkpt>
<trkpt lat="31.3047230" lon="34.4827610">
<ele>77.000000</ele>
<time>2020-03-01T07:31:20.000Z</time>
</trkpt>
<trkpt lat="31.3045900" lon="34.4828350">
<ele>76.000000</ele>
<time>2020-03-01T07:31:32.000Z</time>
</trkpt>
<trkpt lat="31.3043890" lon="34.4829680">
<ele>76.000000</ele>
<time>2020-03-01T07:31:50.000Z</time>
</trkpt>
<trkpt lat="31.3041420" lon="34.4832040">
<ele>74.000000</ele>
<time>2020-03-01T07:32:16.000Z</time>
</trkpt>
<trkpt lat="31.3037720" lon="34.4834040">
<ele>73.000000</ele>
<time>2020-03-01T07:32:49.000Z</time>
</trkpt>
<trkpt lat="31.3036020" lon="34.4836630">
<ele>71.000000</ele>
<time>2020-03-01T07:33:11.000Z</time>
</trkpt>
<trkpt lat="31.3034210" lon="34.4840770">
<ele>69.000000</ele>
<time>2020-03-01T07:33:43.000Z</time>
</trkpt>
<trkpt lat="31.3033830" lon="34.4842840">
<ele>69.000000</ele>
<time>2020-03-01T07:33:58.000Z</time>
</trkpt>
<trkpt lat="31.3030140" lon="34.4847590">
<ele>67.000000</ele>
<time>2020-03-01T07:34:42.000Z</time>
</trkpt>
<trkpt lat="31.3031750" lon="34.4845370">
<ele>68.000000</ele>
<time>2020-03-01T07:35:02.000Z</time>
</trkpt>
<trkpt lat="31.3033926" lon="34.4846776">
<ele>67.000000</ele>
<time>2020-03-01T07:35:22.000Z</time>
</trkpt>
<trkpt lat="31.3034530" lon="34.4846210">
<ele>67.000000</ele>
<time>2020-03-01T07:35:28.000Z</time>
</trkpt>
<trkpt lat="31.3042610" lon="34.4845980">
<ele>67.000000</ele>
<time>2020-03-01T07:36:33.000Z</time>
</trkpt>
<trkpt lat="31.3047500" lon="34.4847410">
<ele>67.000000</ele>
<time>2020-03-01T07:37:13.000Z</time>
</trkpt>
<trkpt lat="31.3056150" lon="34.4847860">
<ele>68.000000</ele>
<time>2020-03-01T07:38:23.000Z</time>
</trkpt>
<trkpt lat="31.3064160" lon="34.4846980">
<ele>69.000000</ele>
<time>2020-03-01T07:39:27.000Z</time>
</trkpt>
<trkpt lat="31.3067880" lon="34.4845030">
<ele>71.000000</ele>
<time>2020-03-01T07:40:00.000Z</time>
</trkpt>
<trkpt lat="31.3071650" lon="34.4845560">
<ele>70.000000</ele>
<time>2020-03-01T07:40:30.000Z</time>
</trkpt>
<trkpt lat="31.3082430" lon="34.4842210">
<ele>72.000000</ele>
<time>2020-03-01T07:42:00.000Z</time>
</trkpt>
<trkpt lat="31.3084010" lon="34.4842200">
<ele>72.000000</ele>
<time>2020-03-01T07:42:12.000Z</time>
</trkpt>
<trkpt lat="31.3086380" lon="34.4844010">
<ele>73.000000</ele>
<time>2020-03-01T07:42:35.000Z</time>
</trkpt>
<trkpt lat="31.3086630" lon="34.4849310">
<ele>72.000000</ele>
<time>2020-03-01T07:43:12.000Z</time>
</trkpt>
<trkpt lat="31.3087280" lon="34.4849770">
<ele>72.000000</ele>
<time>2020-03-01T07:43:18.000Z</time>
</trkpt>
<trkpt lat="31.3090950" lon="34.4849610">
<ele>74.000000</ele>
<time>2020-03-01T07:43:48.000Z</time>
</trkpt>
<trkpt lat="31.3091940" lon="34.4850250">
<ele>75.000000</ele>
<time>2020-03-01T07:43:57.000Z</time>
</trkpt>
<trkpt lat="31.3093070" lon="34.4852740">
<ele>73.000000</ele>
<time>2020-03-01T07:44:16.000Z</time>
</trkpt>
<trkpt lat="31.3094050" lon="34.4856260">
<ele>71.000000</ele>
<time>2020-03-01T07:44:41.000Z</time>
</trkpt>
<trkpt lat="31.3093010" lon="34.4864140">
<ele>70.000000</ele>
<time>2020-03-01T07:45:36.000Z</time>
</trkpt>
<trkpt lat="31.3091950" lon="34.4866320">
<ele>69.000000</ele>
<time>2020-03-01T07:45:53.000Z</time>
</trkpt>
<trkpt lat="31.3090750" lon="34.4870170">
<ele>69.000000</ele>
<time>2020-03-01T07:46:22.000Z</time>
</trkpt>
<trkpt lat="31.3089510" lon="34.4872650">
<ele>69.000000</ele>
<time>2020-03-01T07:46:41.000Z</time>
</trkpt>
<trkpt lat="31.3089870" lon="34.4875210">
<ele>69.000000</ele>
<time>2020-03-01T07:46:59.000Z</time>
</trkpt>
<trkpt lat="31.3091440" lon="34.4877170">
<ele>70.000000</ele>
<time>2020-03-01T07:47:18.000Z</time>
</trkpt>
<trkpt lat="31.3090890" lon="34.4878680">
<ele>69.000000</ele>
<time>2020-03-01T07:47:29.000Z</time>
</trkpt>
<trkpt lat="31.3090900" lon="34.4880550">
<ele>69.000000</ele>
<time>2020-03-01T07:47:42.000Z</time>
</trkpt>
<trkpt lat="31.3091450" lon="34.4882210">
<ele>69.000000</ele>
<time>2020-03-01T07:47:55.000Z</time>
</trkpt>
<trkpt lat="31.3091170" lon="34.4884680">
<ele>68.000000</ele>
<time>2020-03-01T07:48:12.000Z</time>
</trkpt>
<trkpt lat="31.3091750" lon="34.4886670">
<ele>67.000000</ele>
<time>2020-03-01T07:48:26.000Z</time>
</trkpt>
<trkpt lat="31.3090320" lon="34.4902380">
<ele>67.000000</ele>
<time>2020-03-01T07:50:15.000Z</time>
</trkpt>
<trkpt lat="31.3095300" lon="34.4926500">
<ele>77.000000</ele>
<time>2020-03-01T07:53:05.000Z</time>
</trkpt>
<trkpt lat="31.3096420" lon="34.4952240">
<ele>79.000000</ele>
<time>2020-03-01T07:56:01.000Z</time>
</trkpt>
<trkpt lat="31.3096120" lon="34.4964670">
<ele>80.999992</ele>
<time>2020-03-01T07:57:26.000Z</time>
</trkpt>
<trkpt lat="31.3096340" lon="34.4972260">
<ele>82.000000</ele>
<time>2020-03-01T07:58:18.000Z</time>
</trkpt>
<trkpt lat="31.3097230" lon="34.4976920">
<ele>83.000000</ele>
<time>2020-03-01T07:58:51.000Z</time>
</trkpt>
<trkpt lat="31.3102130" lon="34.4989700">
<ele>86.000000</ele>
<time>2020-03-01T08:00:27.000Z</time>
</trkpt>
<trkpt lat="31.3105880" lon="34.5002680">
<ele>85.000000</ele>
<time>2020-03-01T08:02:01.000Z</time>
</trkpt>
<trkpt lat="31.3106630" lon="34.5006550">
<ele>85.000000</ele>
<time>2020-03-01T08:02:28.000Z</time>
</trkpt>
<trkpt lat="31.3101710" lon="34.5007500">
<ele>87.000000</ele>
<time>2020-03-01T08:03:08.000Z</time>
</trkpt>
<trkpt lat="31.3099660" lon="34.5006390">
<ele>87.000000</ele>
<time>2020-03-01T08:03:26.000Z</time>
</trkpt>
<trkpt lat="31.3094700" lon="34.5001890">
<ele>86.000000</ele>
<time>2020-03-01T08:04:17.000Z</time>
</trkpt>
<trkpt lat="31.3089970" lon="34.4999610">
<ele>85.000000</ele>
<time>2020-03-01T08:04:58.000Z</time>
</trkpt>
<trkpt lat="31.3088230" lon="34.4999370">
<ele>85.000000</ele>
<time>2020-03-01T08:05:12.000Z</time>
</trkpt>
<trkpt lat="31.3083360" lon="34.4997240">
<ele>83.000000</ele>
<time>2020-03-01T08:05:54.000Z</time>
</trkpt>
<trkpt lat="31.3079940" lon="34.4994930">
<ele>80.999992</ele>
<time>2020-03-01T08:06:25.000Z</time>
</trkpt>
<trkpt lat="31.3078700" lon="34.4992950">
<ele>80.000000</ele>
<time>2020-03-01T08:06:42.000Z</time>
</trkpt>
<trkpt lat="31.3077040" lon="34.4987190">
<ele>80.000000</ele>
<time>2020-03-01T08:07:24.000Z</time>
</trkpt>
<trkpt lat="31.3075880" lon="34.4985150">
<ele>79.000000</ele>
<time>2020-03-01T08:07:41.000Z</time>
</trkpt>
<trkpt lat="31.3074020" lon="34.4983040">
<ele>79.000000</ele>
<time>2020-03-01T08:08:01.000Z</time>
</trkpt>
<trkpt lat="31.3071570" lon="34.4981660">
<ele>80.000000</ele>
<time>2020-03-01T08:08:23.000Z</time>
</trkpt>
<trkpt lat="31.3066820" lon="34.4980180">
<ele>80.999992</ele>
<time>2020-03-01T08:09:03.000Z</time>
</trkpt>
<trkpt lat="31.3065100" lon="34.4978910">
<ele>82.000000</ele>
<time>2020-03-01T08:09:19.000Z</time>
</trkpt>
<trkpt lat="31.3063880" lon="34.4976590">
<ele>83.000000</ele>
<time>2020-03-01T08:09:38.000Z</time>
</trkpt>
<trkpt lat="31.3062920" lon="34.4972430">
<ele>83.000000</ele>
<time>2020-03-01T08:10:07.000Z</time>
</trkpt>
<trkpt lat="31.3061850" lon="34.4970060">
<ele>83.000000</ele>
<time>2020-03-01T08:10:26.000Z</time>
</trkpt>
<trkpt lat="31.3058170" lon="34.4964360">
<ele>80.000000</ele>
<time>2020-03-01T08:11:15.000Z</time>
</trkpt>
<trkpt lat="31.3054540" lon="34.4960500">
<ele>79.000000</ele>
<time>2020-03-01T08:11:54.000Z</time>
</trkpt>
<trkpt lat="31.3052380" lon="34.4957540">
<ele>78.000000</ele>
<time>2020-03-01T08:12:21.000Z</time>
</trkpt>
<trkpt lat="31.3051610" lon="34.4953630">
<ele>78.000000</ele>
<time>2020-03-01T08:12:48.000Z</time>
</trkpt>
<trkpt lat="31.3051830" lon="34.4951370">
<ele>78.000000</ele>
<time>2020-03-01T08:13:04.000Z</time>
</trkpt>
<trkpt lat="31.3052200" lon="34.4950420">
<ele>78.000000</ele>
<time>2020-03-01T08:13:11.000Z</time>
</trkpt>
<trkpt lat="31.3052080" lon="34.4948740">
<ele>78.000000</ele>
<time>2020-03-01T08:13:23.000Z</time>
</trkpt>
<trkpt lat="31.3054270" lon="34.4943140">
<ele>79.000000</ele>
<time>2020-03-01T08:14:05.000Z</time>
</trkpt>
<trkpt lat="31.3058150" lon="34.4935840">
<ele>80.999992</ele>
<time>2020-03-01T08:15:04.000Z</time>
</trkpt>
<trkpt lat="31.3058510" lon="34.4932220">
<ele>82.000000</ele>
<time>2020-03-01T08:15:29.000Z</time>
</trkpt>
<trkpt lat="31.3058150" lon="34.4928850">
<ele>80.000000</ele>
<time>2020-03-01T08:15:52.000Z</time>
</trkpt>
<trkpt lat="31.3057460" lon="34.4926480">
<ele>80.000000</ele>
<time>2020-03-01T08:16:09.000Z</time>
</trkpt>
<trkpt lat="31.3054750" lon="34.4920760">
<ele>78.000000</ele>
<time>2020-03-01T08:16:54.000Z</time>
</trkpt>
<trkpt lat="31.3050280" lon="34.4915840">
<ele>77.000000</ele>
<time>2020-03-01T08:17:43.000Z</time>
</trkpt>
<trkpt lat="31.3048940" lon="34.4913780">
<ele>76.000000</ele>
<time>2020-03-01T08:18:01.000Z</time>
</trkpt>
<trkpt lat="31.3047450" lon="34.4909680">
<ele>75.000000</ele>
<time>2020-03-01T08:18:32.000Z</time>
</trkpt>
<trkpt lat="31.3046700" lon="34.4906130">
<ele>74.000000</ele>
<time>2020-03-01T08:18:57.000Z</time>
</trkpt>
<trkpt lat="31.3047370" lon="34.4905980">
<ele>74.000000</ele>
<time>2020-03-01T08:19:02.000Z</time>
</trkpt>
<trkpt lat="31.3054700" lon="34.4897120">
<ele>73.000000</ele>
<time>2020-03-01T08:20:27.000Z</time>
</trkpt>
<trkpt lat="31.3053700" lon="34.4884790">
<ele>71.000000</ele>
<time>2020-03-01T08:21:51.000Z</time>
</trkpt>
<trkpt lat="31.3053850" lon="34.4883950">
<ele>71.000000</ele>
<time>2020-03-01T08:21:57.000Z</time>
</trkpt>
<trkpt lat="31.3057150" lon="34.4878920">
<ele>71.000000</ele>
<time>2020-03-01T08:22:41.000Z</time>
</trkpt>
<trkpt lat="31.3058230" lon="34.4877650">
<ele>71.000000</ele>
<time>2020-03-01T08:22:53.000Z</time>
</trkpt>
<trkpt lat="31.3059440" lon="34.4876900">
<ele>71.000000</ele>
<time>2020-03-01T08:23:05.000Z</time>
</trkpt>
<trkpt lat="31.3059680" lon="34.4878470">
<ele>71.000000</ele>
<time>2020-03-01T08:23:16.000Z</time>
</trkpt>
<trkpt lat="31.3060600" lon="34.4880880">
<ele>71.000000</ele>
<time>2020-03-01T08:23:34.000Z</time>
</trkpt>
<trkpt lat="31.3059430" lon="34.4879370">
<ele>71.000000</ele>
<time>2020-03-01T08:23:48.000Z</time>
</trkpt>
<trkpt lat="31.3057760" lon="34.4878810">
<ele>71.000000</ele>
<time>2020-03-01T08:24:03.000Z</time>
</trkpt>
<trkpt lat="31.3056770" lon="34.4879770">
<ele>71.000000</ele>
<time>2020-03-01T08:24:13.000Z</time>
</trkpt>
<trkpt lat="31.3054370" lon="34.4883270">
<ele>70.000000</ele>
<time>2020-03-01T08:24:44.000Z</time>
</trkpt>
<trkpt lat="31.3053740" lon="34.4885030">
<ele>71.000000</ele>
<time>2020-03-01T08:24:57.000Z</time>
</trkpt>
<trkpt lat="31.3053680" lon="34.4889460">
<ele>73.000000</ele>
<time>2020-03-01T08:25:27.000Z</time>
</trkpt>
<trkpt lat="31.3054190" lon="34.4894590">
<ele>73.000000</ele>
<time>2020-03-01T08:26:03.000Z</time>
</trkpt>
<trkpt lat="31.3053950" lon="34.4896910">
<ele>73.000000</ele>
<time>2020-03-01T08:26:19.000Z</time>
</trkpt>
<trkpt lat="31.3051300" lon="34.4900770">
<ele>74.000000</ele>
<time>2020-03-01T08:26:53.000Z</time>
</trkpt>
<trkpt lat="31.3047060" lon="34.4905490">
<ele>74.000000</ele>
<time>2020-03-01T08:27:40.000Z</time>
</trkpt>
<trkpt lat="31.3046530" lon="34.4907140">
<ele>74.000000</ele>
<time>2020-03-01T08:27:52.000Z</time>
</trkpt>
<trkpt lat="31.3046910" lon="34.4909690">
<ele>75.000000</ele>
<time>2020-03-01T08:28:10.000Z</time>
</trkpt>
<trkpt lat="31.3048450" lon="34.4914160">
<ele>76.000000</ele>
<time>2020-03-01T08:28:43.000Z</time>
</trkpt>
<trkpt lat="31.3053840" lon="34.4920010">
<ele>78.000000</ele>
<time>2020-03-01T08:29:43.000Z</time>
</trkpt>
<trkpt lat="31.3055840" lon="34.4923310">
<ele>79.000000</ele>
<time>2020-03-01T08:30:10.000Z</time>
</trkpt>
<trkpt lat="31.3057120" lon="34.4926640">
<ele>80.000000</ele>
<time>2020-03-01T08:30:35.000Z</time>
</trkpt>
<trkpt lat="31.3058210" lon="34.4931550">
<ele>80.999992</ele>
<time>2020-03-01T08:31:10.000Z</time>
</trkpt>
<trkpt lat="31.3058350" lon="34.4933490">
<ele>82.000000</ele>
<time>2020-03-01T08:31:24.000Z</time>
</trkpt>
<trkpt lat="31.3057570" lon="34.4937430">
<ele>80.000000</ele>
<time>2020-03-01T08:31:51.000Z</time>
</trkpt>
<trkpt lat="31.3054530" lon="34.4942280">
<ele>79.000000</ele>
<time>2020-03-01T08:32:33.000Z</time>
</trkpt>
<trkpt lat="31.3051380" lon="34.4950890">
<ele>78.000000</ele>
<time>2020-03-01T08:33:37.000Z</time>
</trkpt>
<trkpt lat="31.3051020" lon="34.4953820">
<ele>78.000000</ele>
<time>2020-03-01T08:33:57.000Z</time>
</trkpt>
<trkpt lat="31.3052040" lon="34.4958110">
<ele>78.000000</ele>
<time>2020-03-01T08:34:28.000Z</time>
</trkpt>
<trkpt lat="31.3053550" lon="34.4960220">
<ele>79.000000</ele>
<time>2020-03-01T08:34:47.000Z</time>
</trkpt>
<trkpt lat="31.3056460" lon="34.4962620">
<ele>80.000000</ele>
<time>2020-03-01T08:35:16.000Z</time>
</trkpt>
<trkpt lat="31.3059030" lon="34.4965630">
<ele>80.000000</ele>
<time>2020-03-01T08:35:45.000Z</time>
</trkpt>
<trkpt lat="31.3061460" lon="34.4969600">
<ele>82.000000</ele>
<time>2020-03-01T08:36:18.000Z</time>
</trkpt>
<trkpt lat="31.3062730" lon="34.4972860">
<ele>84.000000</ele>
<time>2020-03-01T08:36:43.000Z</time>
</trkpt>
<trkpt lat="31.3063830" lon="34.4977000">
<ele>83.000000</ele>
<time>2020-03-01T08:37:12.000Z</time>
</trkpt>
<trkpt lat="31.3065140" lon="34.4979180">
<ele>82.000000</ele>
<time>2020-03-01T08:37:31.000Z</time>
</trkpt>
<trkpt lat="31.3066550" lon="34.4980230">
<ele>82.000000</ele>
<time>2020-03-01T08:37:44.000Z</time>
</trkpt>
<trkpt lat="31.3071380" lon="34.4981740">
<ele>80.000000</ele>
<time>2020-03-01T08:38:24.000Z</time>
</trkpt>
<trkpt lat="31.3073660" lon="34.4983120">
<ele>79.000000</ele>
<time>2020-03-01T08:38:45.000Z</time>
</trkpt>
<trkpt lat="31.3075340" lon="34.4984920">
<ele>79.000000</ele>
<time>2020-03-01T08:39:03.000Z</time>
</trkpt>
<trkpt lat="31.3076570" lon="34.4987180">
<ele>80.000000</ele>
<time>2020-03-01T08:39:22.000Z</time>
</trkpt>
<trkpt lat="31.3078640" lon="34.4992950">
<ele>80.000000</ele>
<time>2020-03-01T08:40:05.000Z</time>
</trkpt>
<trkpt lat="31.3080520" lon="34.4995470">
<ele>82.000000</ele>
<time>2020-03-01T08:40:28.000Z</time>
</trkpt>
<trkpt lat="31.3082640" lon="34.4996960">
<ele>83.000000</ele>
<time>2020-03-01T08:40:48.000Z</time>
</trkpt>
<trkpt lat="31.3093580" lon="34.5001300">
<ele>86.000000</ele>
<time>2020-03-01T08:42:20.000Z</time>
</trkpt>
<trkpt lat="31.3095380" lon="34.5002600">
<ele>86.000000</ele>
<time>2020-03-01T08:42:37.000Z</time>
</trkpt>
<trkpt lat="31.3099990" lon="34.5007600">
<ele>87.000000</ele>
<time>2020-03-01T08:43:28.000Z</time>
</trkpt>
<trkpt lat="31.3101990" lon="34.5008090">
<ele>87.000000</ele>
<time>2020-03-01T08:43:44.000Z</time>
</trkpt>
<trkpt lat="31.3108260" lon="34.5007140">
<ele>85.000000</ele>
<time>2020-03-01T08:44:35.000Z</time>
</trkpt>
<trkpt lat="31.3109490" lon="34.5005640">
<ele>85.000000</ele>
<time>2020-03-01T08:44:50.000Z</time>
</trkpt>
<trkpt lat="31.3115860" lon="34.5005400">
<ele>87.000000</ele>
<time>2020-03-01T08:45:42.000Z</time>
</trkpt>
<trkpt lat="31.3119550" lon="34.5004080">
<ele>87.999992</ele>
<time>2020-03-01T08:46:13.000Z</time>
</trkpt>
<trkpt lat="31.3121710" lon="34.5002100">
<ele>89.000000</ele>
<time>2020-03-01T08:46:35.000Z</time>
</trkpt>
<trkpt lat="31.3122800" lon="34.5000550">
<ele>89.000000</ele>
<time>2020-03-01T08:46:49.000Z</time>
</trkpt>
<trkpt lat="31.3123470" lon="34.4995410">
<ele>89.000000</ele>
<time>2020-03-01T08:47:24.000Z</time>
</trkpt>
<trkpt lat="31.3124360" lon="34.4993430">
<ele>89.000000</ele>
<time>2020-03-01T08:47:40.000Z</time>
</trkpt>
<trkpt lat="31.3126280" lon="34.4990720">
<ele>89.000000</ele>
<time>2020-03-01T08:48:04.000Z</time>
</trkpt>
<trkpt lat="31.3127540" lon="34.4987820">
<ele>87.999992</ele>
<time>2020-03-01T08:48:26.000Z</time>
</trkpt>
<trkpt lat="31.3128120" lon="34.4984990">
<ele>87.999992</ele>
<time>2020-03-01T08:48:46.000Z</time>
</trkpt>
<trkpt lat="31.3128470" lon="34.4980160">
<ele>87.000000</ele>
<time>2020-03-01T08:49:19.000Z</time>
</trkpt>
<trkpt lat="31.3128920" lon="34.4978130">
<ele>86.000000</ele>
<time>2020-03-01T08:49:34.000Z</time>
</trkpt>
<trkpt lat="31.3130170" lon="34.4976480">
<ele>86.000000</ele>
<time>2020-03-01T08:49:49.000Z</time>
</trkpt>
<trkpt lat="31.3131420" lon="34.4975890">
<ele>86.000000</ele>
<time>2020-03-01T08:50:00.000Z</time>
</trkpt>
<trkpt lat="31.3132850" lon="34.4976040">
<ele>86.000000</ele>
<time>2020-03-01T08:50:11.000Z</time>
</trkpt>
<trkpt lat="31.3138420" lon="34.4978410">
<ele>87.999992</ele>
<time>2020-03-01T08:50:59.000Z</time>
</trkpt>
<trkpt lat="31.3141890" lon="34.4981000">
<ele>87.999992</ele>
<time>2020-03-01T08:51:32.000Z</time>
</trkpt>
<trkpt lat="31.3145220" lon="34.4984560">
<ele>90.000008</ele>
<time>2020-03-01T08:52:08.000Z</time>
</trkpt>
<trkpt lat="31.3148010" lon="34.4986060">
<ele>91.000000</ele>
<time>2020-03-01T08:52:33.000Z</time>
</trkpt>
<trkpt lat="31.3153900" lon="34.4986990">
<ele>90.000008</ele>
<time>2020-03-01T08:53:21.000Z</time>
</trkpt>
<trkpt lat="31.3159030" lon="34.4986060">
<ele>89.000000</ele>
<time>2020-03-01T08:54:03.000Z</time>
</trkpt>
<trkpt lat="31.3162060" lon="34.4984850">
<ele>87.999992</ele>
<time>2020-03-01T08:54:28.000Z</time>
</trkpt>
<trkpt lat="31.3164780" lon="34.4984870">
<ele>87.000000</ele>
<time>2020-03-01T08:54:50.000Z</time>
</trkpt>
<trkpt lat="31.3166060" lon="34.4986030">
<ele>87.000000</ele>
<time>2020-03-01T08:55:03.000Z</time>
</trkpt>
<trkpt lat="31.3166640" lon="34.4989640">
<ele>87.000000</ele>
<time>2020-03-01T08:55:29.000Z</time>
</trkpt>
<trkpt lat="31.3167470" lon="34.4991250">
<ele>87.000000</ele>
<time>2020-03-01T08:55:42.000Z</time>
</trkpt>
<trkpt lat="31.3171990" lon="34.4993440">
<ele>86.000000</ele>
<time>2020-03-01T08:56:21.000Z</time>
</trkpt>
<trkpt lat="31.3173880" lon="34.4997110">
<ele>87.000000</ele>
<time>2020-03-01T08:56:51.000Z</time>
</trkpt>
<trkpt lat="31.3175730" lon="34.4999360">
<ele>87.999992</ele>
<time>2020-03-01T08:57:13.000Z</time>
</trkpt>
<trkpt lat="31.3178360" lon="34.5001190">
<ele>87.999992</ele>
<time>2020-03-01T08:57:37.000Z</time>
</trkpt>
<trkpt lat="31.3178830" lon="34.5001350">
<ele>87.999992</ele>
<time>2020-03-01T08:57:41.000Z</time>
</trkpt>
<trkpt lat="31.3180320" lon="34.5000880">
<ele>87.999992</ele>
<time>2020-03-01T08:57:54.000Z</time>
</trkpt>
<trkpt lat="31.3181130" lon="34.4999910">
<ele>87.999992</ele>
<time>2020-03-01T08:58:03.000Z</time>
</trkpt>
<trkpt lat="31.3181660" lon="34.4996850">
<ele>87.000000</ele>
<time>2020-03-01T08:58:25.000Z</time>
</trkpt>
<trkpt lat="31.3181410" lon="34.4989130">
<ele>87.000000</ele>
<time>2020-03-01T08:59:18.000Z</time>
</trkpt>
<trkpt lat="31.3179650" lon="34.4980020">
<ele>87.000000</ele>
<time>2020-03-01T09:00:22.000Z</time>
</trkpt>
<trkpt lat="31.3179740" lon="34.4978910">
<ele>86.000000</ele>
<time>2020-03-01T09:00:29.000Z</time>
</trkpt>
<trkpt lat="31.3180420" lon="34.4977520">
<ele>85.000000</ele>
<time>2020-03-01T09:00:40.000Z</time>
</trkpt>
<trkpt lat="31.3181630" lon="34.4976530">
<ele>85.000000</ele>
<time>2020-03-01T09:00:52.000Z</time>
</trkpt>
<trkpt lat="31.3185040" lon="34.4976190">
<ele>87.000000</ele>
<time>2020-03-01T09:01:20.000Z</time>
</trkpt>
<trkpt lat="31.3187160" lon="34.4975390">
<ele>87.999992</ele>
<time>2020-03-01T09:01:38.000Z</time>
</trkpt>
<trkpt lat="31.3187850" lon="34.4974350">
<ele>87.999992</ele>
<time>2020-03-01T09:01:47.000Z</time>
</trkpt>
<trkpt lat="31.3187840" lon="34.4971950">
<ele>87.000000</ele>
<time>2020-03-01T09:02:04.000Z</time>
</trkpt>
<trkpt lat="31.3188580" lon="34.4969320">
<ele>87.000000</ele>
<time>2020-03-01T09:02:23.000Z</time>
</trkpt>
<trkpt lat="31.3191170" lon="34.4966010">
<ele>87.000000</ele>
<time>2020-03-01T09:02:54.000Z</time>
</trkpt>
<trkpt lat="31.3198610" lon="34.4958410">
<ele>87.000000</ele>
<time>2020-03-01T09:04:13.000Z</time>
</trkpt>
<trkpt lat="31.3202500" lon="34.4955610">
<ele>86.000000</ele>
<time>2020-03-01T09:04:50.000Z</time>
</trkpt>
<trkpt lat="31.3204500" lon="34.4955270">
<ele>86.000000</ele>
<time>2020-03-01T09:05:06.000Z</time>
</trkpt>
<trkpt lat="31.3208570" lon="34.4955480">
<ele>86.000000</ele>
<time>2020-03-01T09:05:39.000Z</time>
</trkpt>
<trkpt lat="31.3209560" lon="34.4955140">
<ele>86.000000</ele>
<time>2020-03-01T09:05:47.000Z</time>
</trkpt>
<trkpt lat="31.3210210" lon="34.4954320">
<ele>86.000000</ele>
<time>2020-03-01T09:05:55.000Z</time>
</trkpt>
<trkpt lat="31.3209880" lon="34.4950820">
<ele>86.000000</ele>
<time>2020-03-01T09:06:19.000Z</time>
</trkpt>
<trkpt lat="31.3210200" lon="34.4947850">
<ele>86.000000</ele>
<time>2020-03-01T09:06:39.000Z</time>
</trkpt>
<trkpt lat="31.3211670" lon="34.4945290">
<ele>87.000000</ele>
<time>2020-03-01T09:07:01.000Z</time>
</trkpt>
<trkpt lat="31.3213210" lon="34.4943760">
<ele>87.999992</ele>
<time>2020-03-01T09:07:17.000Z</time>
</trkpt>
<trkpt lat="31.3216440" lon="34.4941680">
<ele>87.999992</ele>
<time>2020-03-01T09:07:46.000Z</time>
</trkpt>
<trkpt lat="31.3220480" lon="34.4940510">
<ele>87.999992</ele>
<time>2020-03-01T09:08:20.000Z</time>
</trkpt>
<trkpt lat="31.3223080" lon="34.4939260">
<ele>87.000000</ele>
<time>2020-03-01T09:08:42.000Z</time>
</trkpt>
<trkpt lat="31.3231750" lon="34.4932980">
<ele>83.000000</ele>
<time>2020-03-01T09:10:04.000Z</time>
</trkpt>
<trkpt lat="31.3233300" lon="34.4931210">
<ele>83.000000</ele>
<time>2020-03-01T09:10:22.000Z</time>
</trkpt>
<trkpt lat="31.3236200" lon="34.4925060">
<ele>83.000000</ele>
<time>2020-03-01T09:11:10.000Z</time>
</trkpt>
<trkpt lat="31.3238470" lon="34.4922350">
<ele>82.000000</ele>
<time>2020-03-01T09:11:36.000Z</time>
</trkpt>
<trkpt lat="31.3239440" lon="34.4920570">
<ele>82.000000</ele>
<time>2020-03-01T09:11:50.000Z</time>
</trkpt>
<trkpt lat="31.3240490" lon="34.4917410">
<ele>82.000000</ele>
<time>2020-03-01T09:12:14.000Z</time>
</trkpt>
<trkpt lat="31.3242090" lon="34.4915620">
<ele>80.999992</ele>
<time>2020-03-01T09:12:31.000Z</time>
</trkpt>
<trkpt lat="31.3243080" lon="34.4915050">
<ele>80.999992</ele>
<time>2020-03-01T09:12:40.000Z</time>
</trkpt>
<trkpt lat="31.3245170" lon="34.4914740">
<ele>82.000000</ele>
<time>2020-03-01T09:12:57.000Z</time>
</trkpt>
<trkpt lat="31.3249250" lon="34.4915700">
<ele>83.000000</ele>
<time>2020-03-01T09:13:31.000Z</time>
</trkpt>
<trkpt lat="31.3250970" lon="34.4915520">
<ele>84.000000</ele>
<time>2020-03-01T09:13:45.000Z</time>
</trkpt>
<trkpt lat="31.3255750" lon="34.4912190">
<ele>83.000000</ele>
<time>2020-03-01T09:14:30.000Z</time>
</trkpt>
<trkpt lat="31.3258920" lon="34.4911670">
<ele>83.000000</ele>
<time>2020-03-01T09:14:55.000Z</time>
</trkpt>
<trkpt lat="31.3265680" lon="34.4911320">
<ele>83.000000</ele>
<time>2020-03-01T09:15:50.000Z</time>
</trkpt>
<trkpt lat="31.3266680" lon="34.4910910">
<ele>83.000000</ele>
<time>2020-03-01T09:15:58.000Z</time>
</trkpt>
<trkpt lat="31.3267280" lon="34.4909860">
<ele>82.000000</ele>
<time>2020-03-01T09:16:07.000Z</time>
</trkpt>
<trkpt lat="31.3267170" lon="34.4908590">
<ele>82.000000</ele>
<time>2020-03-01T09:16:16.000Z</time>
</trkpt>
<trkpt lat="31.3264650" lon="34.4904880">
<ele>82.000000</ele>
<time>2020-03-01T09:16:48.000Z</time>
</trkpt>
<trkpt lat="31.3264300" lon="34.4902570">
<ele>82.000000</ele>
<time>2020-03-01T09:17:05.000Z</time>
</trkpt>
<trkpt lat="31.3265310" lon="34.4899080">
<ele>83.000000</ele>
<time>2020-03-01T09:17:30.000Z</time>
</trkpt>
<trkpt lat="31.3266650" lon="34.4891910">
<ele>80.999992</ele>
<time>2020-03-01T09:18:20.000Z</time>
</trkpt>
<trkpt lat="31.3267290" lon="34.4890350">
<ele>80.999992</ele>
<time>2020-03-01T09:18:32.000Z</time>
</trkpt>
<trkpt lat="31.3268010" lon="34.4889560">
<ele>80.000000</ele>
<time>2020-03-01T09:18:40.000Z</time>
</trkpt>
<trkpt lat="31.3268920" lon="34.4889090">
<ele>80.000000</ele>
<time>2020-03-01T09:18:48.000Z</time>
</trkpt>
<trkpt lat="31.3279660" lon="34.4886970">
<ele>80.000000</ele>
<time>2020-03-01T09:20:15.000Z</time>
</trkpt>
<trkpt lat="31.3283920" lon="34.4884870">
<ele>80.000000</ele>
<time>2020-03-01T09:20:52.000Z</time>
</trkpt>
<trkpt lat="31.3289000" lon="34.4883490">
<ele>79.000000</ele>
<time>2020-03-01T09:21:34.000Z</time>
</trkpt>
<trkpt lat="31.3296320" lon="34.4879690">
<ele>77.000000</ele>
<time>2020-03-01T09:22:39.000Z</time>
</trkpt>
<trkpt lat="31.3297360" lon="34.4879360">
<ele>77.000000</ele>
<time>2020-03-01T09:22:47.000Z</time>
</trkpt>
<trkpt lat="31.3300890" lon="34.4879920">
<ele>78.000000</ele>
<time>2020-03-01T09:23:16.000Z</time>
</trkpt>
<trkpt lat="31.3306140" lon="34.4877270">
<ele>79.000000</ele>
<time>2020-03-01T09:24:02.000Z</time>
</trkpt>
<trkpt lat="31.3306620" lon="34.4876300">
<ele>78.000000</ele>
<time>2020-03-01T09:24:10.000Z</time>
</trkpt>
<trkpt lat="31.3306380" lon="34.4875270">
<ele>78.000000</ele>
<time>2020-03-01T09:24:17.000Z</time>
</trkpt>
<trkpt lat="31.3303570" lon="34.4871480">
<ele>78.000000</ele>
<time>2020-03-01T09:24:52.000Z</time>
</trkpt>
<trkpt lat="31.3302400" lon="34.4868110">
<ele>78.000000</ele>
<time>2020-03-01T09:25:17.000Z</time>
</trkpt>
<trkpt lat="31.3302700" lon="34.4864310">
<ele>78.000000</ele>
<time>2020-03-01T09:25:43.000Z</time>
</trkpt>
<trkpt lat="31.3302990" lon="34.4863550">
<ele>78.000000</ele>
<time>2020-03-01T09:25:49.000Z</time>
</trkpt>
<trkpt lat="31.3304080" lon="34.4862430">
<ele>78.000000</ele>
<time>2020-03-01T09:26:01.000Z</time>
</trkpt>
<trkpt lat="31.3304900" lon="34.4862240">
<ele>78.000000</ele>
<time>2020-03-01T09:26:07.000Z</time>
</trkpt>
<trkpt lat="31.3306250" lon="34.4862460">
<ele>79.000000</ele>
<time>2020-03-01T09:26:18.000Z</time>
</trkpt>
<trkpt lat="31.3308640" lon="34.4864980">
<ele>80.000000</ele>
<time>2020-03-01T09:26:44.000Z</time>
</trkpt>
<trkpt lat="31.3310540" lon="34.4866300">
<ele>79.000000</ele>
<time>2020-03-01T09:27:02.000Z</time>
</trkpt>
<trkpt lat="31.3314180" lon="34.4866760">
<ele>75.000000</ele>
<time>2020-03-01T09:27:31.000Z</time>
</trkpt>
<trkpt lat="31.3320130" lon="34.4868740">
<ele>74.000000</ele>
<time>2020-03-01T09:28:21.000Z</time>
</trkpt>
<trkpt lat="31.3322030" lon="34.4868260">
<ele>74.000000</ele>
<time>2020-03-01T09:28:37.000Z</time>
</trkpt>
<trkpt lat="31.3324510" lon="34.4866620">
<ele>74.000000</ele>
<time>2020-03-01T09:29:00.000Z</time>
</trkpt>
<trkpt lat="31.3326120" lon="34.4866290">
<ele>74.000000</ele>
<time>2020-03-01T09:29:13.000Z</time>
</trkpt>
<trkpt lat="31.3327980" lon="34.4867360">
<ele>75.000000</ele>
<time>2020-03-01T09:29:30.000Z</time>
</trkpt>
<trkpt lat="31.3330350" lon="34.4871320">
<ele>77.000000</ele>
<time>2020-03-01T09:30:03.000Z</time>
</trkpt>
<trkpt lat="31.3331620" lon="34.4875120">
<ele>80.000000</ele>
<time>2020-03-01T09:30:31.000Z</time>
</trkpt>
<trkpt lat="31.3331830" lon="34.4875630">
<ele>80.000000</ele>
<time>2020-03-01T09:30:35.000Z</time>
</trkpt>
<trkpt lat="31.3332330" lon="34.4875870">
<ele>80.000000</ele>
<time>2020-03-01T09:30:39.000Z</time>
</trkpt>
<trkpt lat="31.3332960" lon="34.4875630">
<ele>80.999992</ele>
<time>2020-03-01T09:30:45.000Z</time>
</trkpt>
<trkpt lat="31.3333950" lon="34.4873410">
<ele>80.000000</ele>
<time>2020-03-01T09:31:02.000Z</time>
</trkpt>
<trkpt lat="31.3335180" lon="34.4872680">
<ele>79.000000</ele>
<time>2020-03-01T09:31:13.000Z</time>
</trkpt>
<trkpt lat="31.3336390" lon="34.4873000">
<ele>80.000000</ele>
<time>2020-03-01T09:31:23.000Z</time>
</trkpt>
<trkpt lat="31.3339060" lon="34.4876160">
<ele>80.000000</ele>
<time>2020-03-01T09:31:54.000Z</time>
</trkpt>
<trkpt lat="31.3340580" lon="34.4877250">
<ele>79.000000</ele>
<time>2020-03-01T09:32:08.000Z</time>
</trkpt>
<trkpt lat="31.3344250" lon="34.4878680">
<ele>79.000000</ele>
<time>2020-03-01T09:32:39.000Z</time>
</trkpt>
<trkpt lat="31.3349320" lon="34.4878800">
<ele>79.000000</ele>
<time>2020-03-01T09:33:20.000Z</time>
</trkpt>
<trkpt lat="31.3350590" lon="34.4879990">
<ele>79.000000</ele>
<time>2020-03-01T09:33:34.000Z</time>
</trkpt>
<trkpt lat="31.3354550" lon="34.4886140">
<ele>78.000000</ele>
<time>2020-03-01T09:34:26.000Z</time>
</trkpt>
<trkpt lat="31.3356570" lon="34.4891030">
<ele>79.000000</ele>
<time>2020-03-01T09:35:04.000Z</time>
</trkpt>
<trkpt lat="31.3358810" lon="34.4893300">
<ele>79.000000</ele>
<time>2020-03-01T09:35:27.000Z</time>
</trkpt>
<trkpt lat="31.3361100" lon="34.4894340">
<ele>79.000000</ele>
<time>2020-03-01T09:35:47.000Z</time>
</trkpt>
<trkpt lat="31.3361890" lon="34.4894190">
<ele>79.000000</ele>
<time>2020-03-01T09:35:54.000Z</time>
</trkpt>
<trkpt lat="31.3368420" lon="34.4889700">
<ele>76.000000</ele>
<time>2020-03-01T09:36:55.000Z</time>
</trkpt>
<trkpt lat="31.3373720" lon="34.4884760">
<ele>74.000000</ele>
<time>2020-03-01T09:37:49.000Z</time>
</trkpt>
<trkpt lat="31.3375260" lon="34.4884180">
<ele>73.000000</ele>
<time>2020-03-01T09:38:02.000Z</time>
</trkpt>
<trkpt lat="31.3379410" lon="34.4884810">
<ele>75.000000</ele>
<time>2020-03-01T09:38:36.000Z</time>
</trkpt>
<trkpt lat="31.3380960" lon="34.4884170">
<ele>75.000000</ele>
<time>2020-03-01T09:38:49.000Z</time>
</trkpt>
<trkpt lat="31.3382430" lon="34.4882480">
<ele>75.000000</ele>
<time>2020-03-01T09:39:06.000Z</time>
</trkpt>
<trkpt lat="31.3386420" lon="34.4875400">
<ele>74.000000</ele>
<time>2020-03-01T09:40:04.000Z</time>
</trkpt>
<trkpt lat="31.3387560" lon="34.4874210">
<ele>75.000000</ele>
<time>2020-03-01T09:40:16.000Z</time>
</trkpt>
<trkpt lat="31.3393590" lon="34.4870340">
<ele>75.000000</ele>
<time>2020-03-01T09:41:11.000Z</time>
</trkpt>
<trkpt lat="31.3395450" lon="34.4868050">
<ele>74.000000</ele>
<time>2020-03-01T09:41:33.000Z</time>
</trkpt>
<trkpt lat="31.3396790" lon="34.4865690">
<ele>73.000000</ele>
<time>2020-03-01T09:41:52.000Z</time>
</trkpt>
<trkpt lat="31.3397900" lon="34.4864750">
<ele>73.000000</ele>
<time>2020-03-01T09:42:04.000Z</time>
</trkpt>
<trkpt lat="31.3404480" lon="34.4863550">
<ele>73.000000</ele>
<time>2020-03-01T09:42:57.000Z</time>
</trkpt>
<trkpt lat="31.3406520" lon="34.4863900">
<ele>74.000000</ele>
<time>2020-03-01T09:43:14.000Z</time>
</trkpt>
<trkpt lat="31.3408010" lon="34.4864620">
<ele>75.000000</ele>
<time>2020-03-01T09:43:27.000Z</time>
</trkpt>
<trkpt lat="31.3410170" lon="34.4866540">
<ele>75.000000</ele>
<time>2020-03-01T09:43:49.000Z</time>
</trkpt>
<trkpt lat="31.3410300" lon="34.4867750">
<ele>75.000000</ele>
<time>2020-03-01T09:43:57.000Z</time>
</trkpt>
<trkpt lat="31.3409160" lon="34.4870780">
<ele>76.000000</ele>
<time>2020-03-01T09:44:20.000Z</time>
</trkpt>
<trkpt lat="31.3408200" lon="34.4875110">
<ele>77.000000</ele>
<time>2020-03-01T09:44:50.000Z</time>
</trkpt>
<trkpt lat="31.3405780" lon="34.4877710">
<ele>77.000000</ele>
<time>2020-03-01T09:45:17.000Z</time>
</trkpt>
<trkpt lat="31.3405270" lon="34.4878580">
<ele>78.000000</ele>
<time>2020-03-01T09:45:24.000Z</time>
</trkpt>
<trkpt lat="31.3405260" lon="34.4879100">
<ele>78.000000</ele>
<time>2020-03-01T09:45:28.000Z</time>
</trkpt>
<trkpt lat="31.3405970" lon="34.4880490">
<ele>78.000000</ele>
<time>2020-03-01T09:45:39.000Z</time>
</trkpt>
<trkpt lat="31.3407940" lon="34.4880370">
<ele>78.000000</ele>
<time>2020-03-01T09:45:55.000Z</time>
</trkpt>
<trkpt lat="31.3413220" lon="34.4878830">
<ele>76.000000</ele>
<time>2020-03-01T09:46:39.000Z</time>
</trkpt>
<trkpt lat="31.3418140" lon="34.4875300">
<ele>74.000000</ele>
<time>2020-03-01T09:47:26.000Z</time>
</trkpt>
<trkpt lat="31.3424630" lon="34.4873360">
<ele>72.000000</ele>
<time>2020-03-01T09:48:19.000Z</time>
</trkpt>
<trkpt lat="31.3425770" lon="34.4872550">
<ele>72.000000</ele>
<time>2020-03-01T09:48:30.000Z</time>
</trkpt>
<trkpt lat="31.3427050" lon="34.4870770">
<ele>72.000000</ele>
<time>2020-03-01T09:48:46.000Z</time>
</trkpt>
<trkpt lat="31.3427470" lon="34.4869720">
<ele>72.000000</ele>
<time>2020-03-01T09:48:54.000Z</time>
</trkpt>
<trkpt lat="31.3428280" lon="34.4865210">
<ele>72.000000</ele>
<time>2020-03-01T09:49:25.000Z</time>
</trkpt>
<trkpt lat="31.3429190" lon="34.4862430">
<ele>71.000000</ele>
<time>2020-03-01T09:49:46.000Z</time>
</trkpt>
<trkpt lat="31.3431100" lon="34.4858720">
<ele>71.000000</ele>
<time>2020-03-01T09:50:16.000Z</time>
</trkpt>
<trkpt lat="31.3433910" lon="34.4854870">
<ele>70.000000</ele>
<time>2020-03-01T09:50:50.000Z</time>
</trkpt>
<trkpt lat="31.3434740" lon="34.4854250">
<ele>70.000000</ele>
<time>2020-03-01T09:50:58.000Z</time>
</trkpt>
<trkpt lat="31.3435740" lon="34.4853910">
<ele>70.000000</ele>
<time>2020-03-01T09:51:07.000Z</time>
</trkpt>
<trkpt lat="31.3436760" lon="34.4853970">
<ele>70.000000</ele>
<time>2020-03-01T09:51:15.000Z</time>
</trkpt>
<trkpt lat="31.3438110" lon="34.4854930">
<ele>71.000000</ele>
<time>2020-03-01T09:51:28.000Z</time>
</trkpt>
<trkpt lat="31.3441080" lon="34.4859880">
<ele>73.000000</ele>
<time>2020-03-01T09:52:09.000Z</time>
</trkpt>
<trkpt lat="31.3442440" lon="34.4860850">
<ele>73.000000</ele>
<time>2020-03-01T09:52:22.000Z</time>
</trkpt>
<trkpt lat="31.3444150" lon="34.4860670">
<ele>73.000000</ele>
<time>2020-03-01T09:52:36.000Z</time>
</trkpt>
<trkpt lat="31.3445700" lon="34.4859650">
<ele>73.000000</ele>
<time>2020-03-01T09:52:50.000Z</time>
</trkpt>
<trkpt lat="31.3448340" lon="34.4857060">
<ele>74.000000</ele>
<time>2020-03-01T09:53:18.000Z</time>
</trkpt>
<trkpt lat="31.3451640" lon="34.4851170">
<ele>74.000000</ele>
<time>2020-03-01T09:54:06.000Z</time>
</trkpt>
<trkpt lat="31.3455340" lon="34.4847210">
<ele>73.000000</ele>
<time>2020-03-01T09:54:47.000Z</time>
</trkpt>
<trkpt lat="31.3455720" lon="34.4846150">
<ele>74.000000</ele>
<time>2020-03-01T09:54:55.000Z</time>
</trkpt>
<trkpt lat="31.3455770" lon="34.4844480">
<ele>74.000000</ele>
<time>2020-03-01T09:55:06.000Z</time>
</trkpt>
<trkpt lat="31.3454450" lon="34.4839840">
<ele>74.000000</ele>
<time>2020-03-01T09:55:40.000Z</time>
</trkpt>
<trkpt lat="31.3453370" lon="34.4838610">
<ele>74.000000</ele>
<time>2020-03-01T09:55:52.000Z</time>
</trkpt>
<trkpt lat="31.3452410" lon="34.4838070">
<ele>74.000000</ele>
<time>2020-03-01T09:56:00.000Z</time>
</trkpt>
<trkpt lat="31.3451370" lon="34.4837960">
<ele>73.000000</ele>
<time>2020-03-01T09:56:09.000Z</time>
</trkpt>
<trkpt lat="31.3449900" lon="34.4838400">
<ele>73.000000</ele>
<time>2020-03-01T09:56:21.000Z</time>
</trkpt>
<trkpt lat="31.3448530" lon="34.4838090">
<ele>72.000000</ele>
<time>2020-03-01T09:56:33.000Z</time>
</trkpt>
<trkpt lat="31.3447020" lon="34.4835090">
<ele>71.000000</ele>
<time>2020-03-01T09:56:57.000Z</time>
</trkpt>
<trkpt lat="31.3444140" lon="34.4832660">
<ele>70.000000</ele>
<time>2020-03-01T09:57:25.000Z</time>
</trkpt>
<trkpt lat="31.3443400" lon="34.4830420">
<ele>70.000000</ele>
<time>2020-03-01T09:57:42.000Z</time>
</trkpt>
<trkpt lat="31.3443950" lon="34.4826220">
<ele>70.000000</ele>
<time>2020-03-01T09:58:11.000Z</time>
</trkpt>
<trkpt lat="31.3444820" lon="34.4824830">
<ele>71.000000</ele>
<time>2020-03-01T09:58:23.000Z</time>
</trkpt>
<trkpt lat="31.3451410" lon="34.4820920">
<ele>70.000000</ele>
<time>2020-03-01T09:59:23.000Z</time>
</trkpt>
<trkpt lat="31.3452870" lon="34.4821200">
<ele>70.000000</ele>
<time>2020-03-01T09:59:35.000Z</time>
</trkpt>
<trkpt lat="31.3457530" lon="34.4824690">
<ele>72.000000</ele>
<time>2020-03-01T10:00:19.000Z</time>
</trkpt>
<trkpt lat="31.3459040" lon="34.4825080">
<ele>72.000000</ele>
<time>2020-03-01T10:00:32.000Z</time>
</trkpt>
<trkpt lat="31.3460090" lon="34.4825110">
<ele>72.000000</ele>
<time>2020-03-01T10:00:40.000Z</time>
</trkpt>
<trkpt lat="31.3461110" lon="34.4824770">
<ele>73.000000</ele>
<time>2020-03-01T10:00:49.000Z</time>
</trkpt>
<trkpt lat="31.3461700" lon="34.4823780">
<ele>72.000000</ele>
<time>2020-03-01T10:00:57.000Z</time>
</trkpt>
<trkpt lat="31.3461170" lon="34.4820810">
<ele>71.000000</ele>
<time>2020-03-01T10:01:18.000Z</time>
</trkpt>
<trkpt lat="31.3461680" lon="34.4818700">
<ele>71.000000</ele>
<time>2020-03-01T10:01:33.000Z</time>
</trkpt>
<trkpt lat="31.3465760" lon="34.4814780">
<ele>72.000000</ele>
<time>2020-03-01T10:02:16.000Z</time>
</trkpt>
<trkpt lat="31.3467230" lon="34.4814170">
<ele>72.000000</ele>
<time>2020-03-01T10:02:28.000Z</time>
</trkpt>
<trkpt lat="31.3468820" lon="34.4814260">
<ele>72.000000</ele>
<time>2020-03-01T10:02:41.000Z</time>
</trkpt>
<trkpt lat="31.3472130" lon="34.4815230">
<ele>72.000000</ele>
<time>2020-03-01T10:03:08.000Z</time>
</trkpt>
<trkpt lat="31.3476150" lon="34.4815680">
<ele>72.000000</ele>
<time>2020-03-01T10:03:41.000Z</time>
</trkpt>
<trkpt lat="31.3480300" lon="34.4817790">
<ele>73.000000</ele>
<time>2020-03-01T10:04:17.000Z</time>
</trkpt>
<trkpt lat="31.3482330" lon="34.4817990">
<ele>74.000000</ele>
<time>2020-03-01T10:04:33.000Z</time>
</trkpt>
<trkpt lat="31.3489960" lon="34.4817570">
<ele>70.000000</ele>
<time>2020-03-01T10:05:35.000Z</time>
</trkpt>
<trkpt lat="31.3494200" lon="34.4815370">
<ele>69.000000</ele>
<time>2020-03-01T10:06:12.000Z</time>
</trkpt>
<trkpt lat="31.3499640" lon="34.4813850">
<ele>70.000000</ele>
<time>2020-03-01T10:06:57.000Z</time>
</trkpt>
<trkpt lat="31.3504140" lon="34.4813330">
<ele>71.000000</ele>
<time>2020-03-01T10:07:33.000Z</time>
</trkpt>
<trkpt lat="31.3506480" lon="34.4812350">
<ele>71.000000</ele>
<time>2020-03-01T10:07:53.000Z</time>
</trkpt>
<trkpt lat="31.3506610" lon="34.4811550">
<ele>71.000000</ele>
<time>2020-03-01T10:07:59.000Z</time>
</trkpt>
<trkpt lat="31.3506390" lon="34.4811200">
<ele>71.000000</ele>
<time>2020-03-01T10:08:02.000Z</time>
</trkpt>
<trkpt lat="31.3502360" lon="34.4808170">
<ele>69.000000</ele>
<time>2020-03-01T10:08:41.000Z</time>
</trkpt>
<trkpt lat="31.3498970" lon="34.4804080">
<ele>65.000000</ele>
<time>2020-03-01T10:09:20.000Z</time>
</trkpt>
<trkpt lat="31.3495940" lon="34.4802250">
<ele>64.000000</ele>
<time>2020-03-01T10:09:47.000Z</time>
</trkpt>
<trkpt lat="31.3492750" lon="34.4799750">
<ele>62.000000</ele>
<time>2020-03-01T10:10:18.000Z</time>
</trkpt>
<trkpt lat="31.3490410" lon="34.4793640">
<ele>61.000004</ele>
<time>2020-03-01T10:11:04.000Z</time>
</trkpt>
<trkpt lat="31.3482420" lon="34.4785560">
<ele>58.000000</ele>
<time>2020-03-01T10:12:29.000Z</time>
</trkpt>
<trkpt lat="31.3476540" lon="34.4778230">
<ele>54.000000</ele>
<time>2020-03-01T10:13:38.000Z</time>
</trkpt>
<trkpt lat="31.3475630" lon="34.4776260">
<ele>51.999996</ele>
<time>2020-03-01T10:13:53.000Z</time>
</trkpt>
<trkpt lat="31.3475590" lon="34.4772440">
<ele>50.000000</ele>
<time>2020-03-01T10:14:20.000Z</time>
</trkpt>
<trkpt lat="31.3475970" lon="34.4769430">
<ele>49.000000</ele>
<time>2020-03-01T10:14:41.000Z</time>
</trkpt>
<trkpt lat="31.3477100" lon="34.4766860">
<ele>48.000000</ele>
<time>2020-03-01T10:15:00.000Z</time>
</trkpt>
<trkpt lat="31.3479530" lon="34.4764810">
<ele>48.000000</ele>
<time>2020-03-01T10:15:25.000Z</time>
</trkpt>
<trkpt lat="31.3479930" lon="34.4764890">
<ele>49.000000</ele>
<time>2020-03-01T10:15:28.000Z</time>
</trkpt>
<trkpt lat="31.3481170" lon="34.4766330">
<ele>50.000000</ele>
<time>2020-03-01T10:15:42.000Z</time>
</trkpt>
<trkpt lat="31.3482430" lon="34.4766820">
<ele>51.000000</ele>
<time>2020-03-01T10:15:53.000Z</time>
</trkpt>
<trkpt lat="31.3484670" lon="34.4769930">
<ele>53.000004</ele>
<time>2020-03-01T10:16:21.000Z</time>
</trkpt>
<trkpt lat="31.3487880" lon="34.4772160">
<ele>54.000000</ele>
<time>2020-03-01T10:16:51.000Z</time>
</trkpt>
<trkpt lat="31.3489350" lon="34.4775550">
<ele>55.000000</ele>
<time>2020-03-01T10:17:17.000Z</time>
</trkpt>
<trkpt lat="31.3491030" lon="34.4778330">
<ele>57.000000</ele>
<time>2020-03-01T10:17:41.000Z</time>
</trkpt>
<trkpt lat="31.3491710" lon="34.4778690">
<ele>57.000000</ele>
<time>2020-03-01T10:17:47.000Z</time>
</trkpt>
<trkpt lat="31.3496180" lon="34.4779000">
<ele>58.000000</ele>
<time>2020-03-01T10:18:23.000Z</time>
</trkpt>
<trkpt lat="31.3497990" lon="34.4778670">
<ele>58.000000</ele>
<time>2020-03-01T10:18:37.000Z</time>
</trkpt>
<trkpt lat="31.3501470" lon="34.4780500">
<ele>59.000000</ele>
<time>2020-03-01T10:19:08.000Z</time>
</trkpt>
<trkpt lat="31.3502430" lon="34.4780080">
<ele>58.000000</ele>
<time>2020-03-01T10:19:17.000Z</time>
</trkpt>
<trkpt lat="31.3504720" lon="34.4776810">
<ele>58.000000</ele>
<time>2020-03-01T10:19:46.000Z</time>
</trkpt>
<trkpt lat="31.3505770" lon="34.4776840">
<ele>57.000000</ele>
<time>2020-03-01T10:19:55.000Z</time>
</trkpt>
<trkpt lat="31.3508220" lon="34.4775130">
<ele>56.000000</ele>
<time>2020-03-01T10:20:18.000Z</time>
</trkpt>
<trkpt lat="31.3509180" lon="34.4775030">
<ele>56.000000</ele>
<time>2020-03-01T10:20:25.000Z</time>
</trkpt>
<trkpt lat="31.3510140" lon="34.4774010">
<ele>55.000000</ele>
<time>2020-03-01T10:20:36.000Z</time>
</trkpt>
<trkpt lat="31.3511800" lon="34.4771620">
<ele>51.999996</ele>
<time>2020-03-01T10:20:57.000Z</time>
</trkpt>
<trkpt lat="31.3514310" lon="34.4772020">
<ele>51.999996</ele>
<time>2020-03-01T10:21:18.000Z</time>
</trkpt>
<trkpt lat="31.3515650" lon="34.4771450">
<ele>51.999996</ele>
<time>2020-03-01T10:21:29.000Z</time>
</trkpt>
<trkpt lat="31.3516120" lon="34.4771550">
<ele>51.999996</ele>
<time>2020-03-01T10:21:33.000Z</time>
</trkpt>
<trkpt lat="31.3519910" lon="34.4774140">
<ele>51.999996</ele>
<time>2020-03-01T10:22:08.000Z</time>
</trkpt>
<trkpt lat="31.3520700" lon="34.4774040">
<ele>51.999996</ele>
<time>2020-03-01T10:22:15.000Z</time>
</trkpt>
<trkpt lat="31.3521710" lon="34.4772760">
<ele>51.000000</ele>
<time>2020-03-01T10:22:27.000Z</time>
</trkpt>
<trkpt lat="31.3523690" lon="34.4772090">
<ele>50.000000</ele>
<time>2020-03-01T10:22:44.000Z</time>
</trkpt>
<trkpt lat="31.3524370" lon="34.4769020">
<ele>49.000000</ele>
<time>2020-03-01T10:23:05.000Z</time>
</trkpt>
<trkpt lat="31.3525780" lon="34.4766620">
<ele>49.000000</ele>
<time>2020-03-01T10:23:25.000Z</time>
</trkpt>
<trkpt lat="31.3526210" lon="34.4766420">
<ele>49.000000</ele>
<time>2020-03-01T10:23:29.000Z</time>
</trkpt>
<trkpt lat="31.3528440" lon="34.4767730">
<ele>51.000000</ele>
<time>2020-03-01T10:23:49.000Z</time>
</trkpt>
<trkpt lat="31.3529220" lon="34.4769160">
<ele>51.000000</ele>
<time>2020-03-01T10:24:01.000Z</time>
</trkpt>
<trkpt lat="31.3532530" lon="34.4772610">
<ele>54.000000</ele>
<time>2020-03-01T10:24:37.000Z</time>
</trkpt>
<trkpt lat="31.3539040" lon="34.4775330">
<ele>58.000000</ele>
<time>2020-03-01T10:25:32.000Z</time>
</trkpt>
<trkpt lat="31.3539680" lon="34.4776510">
<ele>58.000000</ele>
<time>2020-03-01T10:25:42.000Z</time>
</trkpt>
<trkpt lat="31.3539890" lon="34.4779050">
<ele>58.000000</ele>
<time>2020-03-01T10:26:00.000Z</time>
</trkpt>
<trkpt lat="31.3540440" lon="34.4780370">
<ele>58.000000</ele>
<time>2020-03-01T10:26:10.000Z</time>
</trkpt>
<trkpt lat="31.3541180" lon="34.4780700">
<ele>59.000000</ele>
<time>2020-03-01T10:26:16.000Z</time>
</trkpt>
<trkpt lat="31.3542340" lon="34.4780280">
<ele>59.000000</ele>
<time>2020-03-01T10:26:26.000Z</time>
</trkpt>
<trkpt lat="31.3544130" lon="34.4780450">
<ele>58.000000</ele>
<time>2020-03-01T10:26:41.000Z</time>
</trkpt>
<trkpt lat="31.3545600" lon="34.4780020">
<ele>58.000000</ele>
<time>2020-03-01T10:26:53.000Z</time>
</trkpt>
<trkpt lat="31.3545770" lon="34.4779490">
<ele>58.000000</ele>
<time>2020-03-01T10:26:57.000Z</time>
</trkpt>
<trkpt lat="31.3545330" lon="34.4776990">
<ele>57.000000</ele>
<time>2020-03-01T10:27:15.000Z</time>
</trkpt>
<trkpt lat="31.3546600" lon="34.4772100">
<ele>55.000000</ele>
<time>2020-03-01T10:27:50.000Z</time>
</trkpt>
<trkpt lat="31.3548320" lon="34.4770380">
<ele>53.000004</ele>
<time>2020-03-01T10:28:09.000Z</time>
</trkpt>
<trkpt lat="31.3550980" lon="34.4771550">
<ele>53.000004</ele>
<time>2020-03-01T10:28:32.000Z</time>
</trkpt>
<trkpt lat="31.3551240" lon="34.4771390">
<ele>53.000004</ele>
<time>2020-03-01T10:28:34.000Z</time>
</trkpt>
<trkpt lat="31.3551370" lon="34.4770970">
<ele>53.000004</ele>
<time>2020-03-01T10:28:37.000Z</time>
</trkpt>
<trkpt lat="31.3551230" lon="34.4769370">
<ele>51.999996</ele>
<time>2020-03-01T10:28:48.000Z</time>
</trkpt>
<trkpt lat="31.3550280" lon="34.4768010">
<ele>51.000000</ele>
<time>2020-03-01T10:29:01.000Z</time>
</trkpt>
<trkpt lat="31.3549140" lon="34.4765430">
<ele>51.000000</ele>
<time>2020-03-01T10:29:20.000Z</time>
</trkpt>
<trkpt lat="31.3547490" lon="34.4763330">
<ele>51.000000</ele>
<time>2020-03-01T10:29:40.000Z</time>
</trkpt>
<trkpt lat="31.3546110" lon="34.4760900">
<ele>51.000000</ele>
<time>2020-03-01T10:30:00.000Z</time>
</trkpt>
<trkpt lat="31.3546390" lon="34.4754940">
<ele>51.000000</ele>
<time>2020-03-01T10:30:41.000Z</time>
</trkpt>
<trkpt lat="31.3547160" lon="34.4750940">
<ele>51.999996</ele>
<time>2020-03-01T10:31:10.000Z</time>
</trkpt>
<trkpt lat="31.3546970" lon="34.4749890">
<ele>51.999996</ele>
<time>2020-03-01T10:31:17.000Z</time>
</trkpt>
<trkpt lat="31.3547890" lon="34.4749110">
<ele>51.999996</ele>
<time>2020-03-01T10:31:26.000Z</time>
</trkpt>
<trkpt lat="31.3548060" lon="34.4746790">
<ele>51.000000</ele>
<time>2020-03-01T10:31:42.000Z</time>
</trkpt>
<trkpt lat="31.3548890" lon="34.4743870">
<ele>50.000000</ele>
<time>2020-03-01T10:32:04.000Z</time>
</trkpt>
<trkpt lat="31.3551400" lon="34.4742410">
<ele>51.000000</ele>
<time>2020-03-01T10:32:26.000Z</time>
</trkpt>
<trkpt lat="31.3556260" lon="34.4742380">
<ele>51.999996</ele>
<time>2020-03-01T10:33:06.000Z</time>
</trkpt>
<trkpt lat="31.3560820" lon="34.4741590">
<ele>53.000004</ele>
<time>2020-03-01T10:33:43.000Z</time>
</trkpt>
<trkpt lat="31.3561400" lon="34.4740990">
<ele>54.000000</ele>
<time>2020-03-01T10:33:49.000Z</time>
</trkpt>
<trkpt lat="31.3562860" lon="34.4735020">
<ele>55.000000</ele>
<time>2020-03-01T10:34:32.000Z</time>
</trkpt>
<trkpt lat="31.3568780" lon="34.4727080">
<ele>57.000000</ele>
<time>2020-03-01T10:35:44.000Z</time>
</trkpt>
<trkpt lat="31.3574380" lon="34.4716850">
<ele>53.000004</ele>
<time>2020-03-01T10:37:07.000Z</time>
</trkpt>
<trkpt lat="31.3576840" lon="34.4714050">
<ele>51.999996</ele>
<time>2020-03-01T10:37:35.000Z</time>
</trkpt>
<trkpt lat="31.3583280" lon="34.4709380">
<ele>54.000000</ele>
<time>2020-03-01T10:38:36.000Z</time>
</trkpt>
<trkpt lat="31.3584490" lon="34.4707210">
<ele>55.000000</ele>
<time>2020-03-01T10:38:54.000Z</time>
</trkpt>
<trkpt lat="31.3587320" lon="34.4707980">
<ele>56.000000</ele>
<time>2020-03-01T10:39:18.000Z</time>
</trkpt>
<trkpt lat="31.3590150" lon="34.4706340">
<ele>57.000000</ele>
<time>2020-03-01T10:39:43.000Z</time>
</trkpt>
<trkpt lat="31.3591100" lon="34.4706220">
<ele>58.000000</ele>
<time>2020-03-01T10:39:51.000Z</time>
</trkpt>
<trkpt lat="31.3593800" lon="34.4707420">
<ele>58.000000</ele>
<time>2020-03-01T10:40:14.000Z</time>
</trkpt>
<trkpt lat="31.3595260" lon="34.4707680">
<ele>58.000000</ele>
<time>2020-03-01T10:40:26.000Z</time>
</trkpt>
<trkpt lat="31.3596750" lon="34.4707300">
<ele>58.000000</ele>
<time>2020-03-01T10:40:39.000Z</time>
</trkpt>
<trkpt lat="31.3597590" lon="34.4706190">
<ele>58.000000</ele>
<time>2020-03-01T10:40:49.000Z</time>
</trkpt>
<trkpt lat="31.3597990" lon="34.4704830">
<ele>58.000000</ele>
<time>2020-03-01T10:40:59.000Z</time>
</trkpt>
<trkpt lat="31.3597880" lon="34.4702770">
<ele>58.000000</ele>
<time>2020-03-01T10:41:13.000Z</time>
</trkpt>
<trkpt lat="31.3597390" lon="34.4699300">
<ele>57.000000</ele>
<time>2020-03-01T10:41:37.000Z</time>
</trkpt>
<trkpt lat="31.3596310" lon="34.4696860">
<ele>56.000000</ele>
<time>2020-03-01T10:41:56.000Z</time>
</trkpt>
<trkpt lat="31.3595200" lon="34.4690880">
<ele>53.000004</ele>
<time>2020-03-01T10:42:38.000Z</time>
</trkpt>
<trkpt lat="31.3595890" lon="34.4687730">
<ele>51.000000</ele>
<time>2020-03-01T10:43:01.000Z</time>
</trkpt>
<trkpt lat="31.3597120" lon="34.4686290">
<ele>51.000000</ele>
<time>2020-03-01T10:43:15.000Z</time>
</trkpt>
<trkpt lat="31.3597840" lon="34.4685860">
<ele>50.000000</ele>
<time>2020-03-01T10:43:21.000Z</time>
</trkpt>
<trkpt lat="31.3600500" lon="34.4686180">
<ele>51.000000</ele>
<time>2020-03-01T10:43:43.000Z</time>
</trkpt>
<trkpt lat="31.3603440" lon="34.4685740">
<ele>51.000000</ele>
<time>2020-03-01T10:44:06.000Z</time>
</trkpt>
<trkpt lat="31.3607020" lon="34.4687120">
<ele>51.999996</ele>
<time>2020-03-01T10:44:37.000Z</time>
</trkpt>
<trkpt lat="31.3608280" lon="34.4686530">
<ele>51.999996</ele>
<time>2020-03-01T10:44:48.000Z</time>
</trkpt>
<trkpt lat="31.3611280" lon="34.4682460">
<ele>49.000000</ele>
<time>2020-03-01T10:45:25.000Z</time>
</trkpt>
<trkpt lat="31.3612960" lon="34.4681060">
<ele>48.000000</ele>
<time>2020-03-01T10:45:42.000Z</time>
</trkpt>
<trkpt lat="31.3614490" lon="34.4680530">
<ele>47.000000</ele>
<time>2020-03-01T10:45:54.000Z</time>
</trkpt>
<trkpt lat="31.3618440" lon="34.4681810">
<ele>48.000000</ele>
<time>2020-03-01T10:46:28.000Z</time>
</trkpt>
<trkpt lat="31.3622610" lon="34.4680390">
<ele>47.000000</ele>
<time>2020-03-01T10:47:03.000Z</time>
</trkpt>
<trkpt lat="31.3623000" lon="34.4680410">
<ele>47.000000</ele>
<time>2020-03-01T10:47:06.000Z</time>
</trkpt>
<trkpt lat="31.3624150" lon="34.4681940">
<ele>48.000000</ele>
<time>2020-03-01T10:47:20.000Z</time>
</trkpt>
<trkpt lat="31.3630290" lon="34.4687400">
<ele>54.000000</ele>
<time>2020-03-01T10:48:22.000Z</time>
</trkpt>
<trkpt lat="31.3632290" lon="34.4691850">
<ele>57.000000</ele>
<time>2020-03-01T10:48:57.000Z</time>
</trkpt>
<trkpt lat="31.3634530" lon="34.4693300">
<ele>57.000000</ele>
<time>2020-03-01T10:49:18.000Z</time>
</trkpt>
<trkpt lat="31.3636250" lon="34.4694890">
<ele>57.000000</ele>
<time>2020-03-01T10:49:35.000Z</time>
</trkpt>
<trkpt lat="31.3637040" lon="34.4695050">
<ele>57.000000</ele>
<time>2020-03-01T10:49:42.000Z</time>
</trkpt>
<trkpt lat="31.3641450" lon="34.4693730">
<ele>56.000000</ele>
<time>2020-03-01T10:50:18.000Z</time>
</trkpt>
<trkpt lat="31.3645670" lon="34.4693170">
<ele>56.000000</ele>
<time>2020-03-01T10:50:52.000Z</time>
</trkpt>
<trkpt lat="31.3650790" lon="34.4691490">
<ele>56.000000</ele>
<time>2020-03-01T10:51:35.000Z</time>
</trkpt>
<trkpt lat="31.3650060" lon="34.4686890">
<ele>55.000000</ele>
<time>2020-03-01T10:52:07.000Z</time>
</trkpt>
<trkpt lat="31.3650350" lon="34.4684760">
<ele>54.000000</ele>
<time>2020-03-01T10:52:22.000Z</time>
</trkpt>
<trkpt lat="31.3649190" lon="34.4681440">
<ele>53.000004</ele>
<time>2020-03-01T10:52:47.000Z</time>
</trkpt>
<trkpt lat="31.3648980" lon="34.4677350">
<ele>50.000000</ele>
<time>2020-03-01T10:53:15.000Z</time>
</trkpt>
<trkpt lat="31.3648300" lon="34.4673250">
<ele>48.000000</ele>
<time>2020-03-01T10:53:44.000Z</time>
</trkpt>
<trkpt lat="31.3647220" lon="34.4670880">
<ele>47.000000</ele>
<time>2020-03-01T10:54:02.000Z</time>
</trkpt>
<trkpt lat="31.3644190" lon="34.4669400">
<ele>45.000004</ele>
<time>2020-03-01T10:54:29.000Z</time>
</trkpt>
<trkpt lat="31.3643230" lon="34.4667600">
<ele>43.999996</ele>
<time>2020-03-01T10:54:44.000Z</time>
</trkpt>
<trkpt lat="31.3643190" lon="34.4666030">
<ele>43.000000</ele>
<time>2020-03-01T10:54:54.000Z</time>
</trkpt>
<trkpt lat="31.3644110" lon="34.4664290">
<ele>43.000000</ele>
<time>2020-03-01T10:55:09.000Z</time>
</trkpt>
<trkpt lat="31.3646220" lon="34.4662660">
<ele>43.000000</ele>
<time>2020-03-01T10:55:29.000Z</time>
</trkpt>
<trkpt lat="31.3646510" lon="34.4661640">
<ele>43.000000</ele>
<time>2020-03-01T10:55:37.000Z</time>
</trkpt>
<trkpt lat="31.3646710" lon="34.4657740">
<ele>41.000000</ele>
<time>2020-03-01T10:56:03.000Z</time>
</trkpt>
<trkpt lat="31.3647640" lon="34.4655920">
<ele>41.000000</ele>
<time>2020-03-01T10:56:18.000Z</time>
</trkpt>
<trkpt lat="31.3649900" lon="34.4655150">
<ele>43.000000</ele>
<time>2020-03-01T10:56:37.000Z</time>
</trkpt>
<trkpt lat="31.3653800" lon="34.4655170">
<ele>43.999996</ele>
<time>2020-03-01T10:57:09.000Z</time>
</trkpt>
<trkpt lat="31.3660060" lon="34.4649740">
<ele>46.000000</ele>
<time>2020-03-01T10:58:11.000Z</time>
</trkpt>
<trkpt lat="31.3659670" lon="34.4648550">
<ele>47.000000</ele>
<time>2020-03-01T10:58:20.000Z</time>
</trkpt>
<trkpt lat="31.3657180" lon="34.4645420">
<ele>46.000000</ele>
<time>2020-03-01T10:58:50.000Z</time>
</trkpt>
<trkpt lat="31.3653350" lon="34.4642580">
<ele>43.999996</ele>
<time>2020-03-01T10:59:26.000Z</time>
</trkpt>
<trkpt lat="31.3649260" lon="34.4638420">
<ele>42.000000</ele>
<time>2020-03-01T11:00:10.000Z</time>
</trkpt>
<trkpt lat="31.3648500" lon="34.4636200">
<ele>42.000000</ele>
<time>2020-03-01T11:00:26.000Z</time>
</trkpt>
<trkpt lat="31.3648190" lon="34.4633330">
<ele>43.000000</ele>
<time>2020-03-01T11:00:46.000Z</time>
</trkpt>
<trkpt lat="31.3648190" lon="34.4631700">
<ele>42.000000</ele>
<time>2020-03-01T11:00:57.000Z</time>
</trkpt>
<trkpt lat="31.3648930" lon="34.4630410">
<ele>41.000000</ele>
<time>2020-03-01T11:01:08.000Z</time>
</trkpt>
<trkpt lat="31.3650720" lon="34.4629620">
<ele>41.000000</ele>
<time>2020-03-01T11:01:24.000Z</time>
</trkpt>
<trkpt lat="31.3654860" lon="34.4630920">
<ele>41.000000</ele>
<time>2020-03-01T11:01:58.000Z</time>
</trkpt>
<trkpt lat="31.3659110" lon="34.4631260">
<ele>41.000000</ele>
<time>2020-03-01T11:02:32.000Z</time>
</trkpt>
<trkpt lat="31.3657600" lon="34.4630850">
<ele>41.000000</ele>
<time>2020-03-01T11:02:45.000Z</time>
</trkpt>
<trkpt lat="31.3657720" lon="34.4627790">
<ele>39.000000</ele>
<time>2020-03-01T11:03:07.000Z</time>
</trkpt>
<trkpt lat="31.3658710" lon="34.4626260">
<ele>38.000000</ele>
<time>2020-03-01T11:03:20.000Z</time>
</trkpt>
<trkpt lat="31.3660690" lon="34.4624770">
<ele>37.000000</ele>
<time>2020-03-01T11:03:39.000Z</time>
</trkpt>
<trkpt lat="31.3667340" lon="34.4623200">
<ele>39.000000</ele>
<time>2020-03-01T11:04:33.000Z</time>
</trkpt>
<trkpt lat="31.3671530" lon="34.4622960">
<ele>39.000000</ele>
<time>2020-03-01T11:05:07.000Z</time>
</trkpt>
<trkpt lat="31.3675720" lon="34.4623500">
<ele>38.000000</ele>
<time>2020-03-01T11:05:41.000Z</time>
</trkpt>
<trkpt lat="31.3679230" lon="34.4623300">
<ele>40.000000</ele>
<time>2020-03-01T11:06:09.000Z</time>
</trkpt>
<trkpt lat="31.3689120" lon="34.4620160">
<ele>42.000000</ele>
<time>2020-03-01T11:07:31.000Z</time>
</trkpt>
<trkpt lat="31.3689740" lon="34.4619650">
<ele>42.000000</ele>
<time>2020-03-01T11:07:38.000Z</time>
</trkpt>
<trkpt lat="31.3690840" lon="34.4616420">
<ele>43.000000</ele>
<time>2020-03-01T11:08:02.000Z</time>
</trkpt>
<trkpt lat="31.3693090" lon="34.4615260">
<ele>43.000000</ele>
<time>2020-03-01T11:08:22.000Z</time>
</trkpt>
<trkpt lat="31.3694640" lon="34.4615230">
<ele>43.000000</ele>
<time>2020-03-01T11:08:35.000Z</time>
</trkpt>
<trkpt lat="31.3695730" lon="34.4614670">
<ele>43.999996</ele>
<time>2020-03-01T11:08:44.000Z</time>
</trkpt>
<trkpt lat="31.3698780" lon="34.4615120">
<ele>43.999996</ele>
<time>2020-03-01T11:09:09.000Z</time>
</trkpt>
<trkpt lat="31.3701540" lon="34.4614420">
<ele>43.000000</ele>
<time>2020-03-01T11:09:32.000Z</time>
</trkpt>
<trkpt lat="31.3702790" lon="34.4613440">
<ele>43.000000</ele>
<time>2020-03-01T11:09:44.000Z</time>
</trkpt>
<trkpt lat="31.3706380" lon="34.4607870">
<ele>42.000000</ele>
<time>2020-03-01T11:10:32.000Z</time>
</trkpt>
<trkpt lat="31.3707700" lon="34.4607490">
<ele>42.000000</ele>
<time>2020-03-01T11:10:43.000Z</time>
</trkpt>
<trkpt lat="31.3707860" lon="34.4606260">
<ele>42.000000</ele>
<time>2020-03-01T11:10:52.000Z</time>
</trkpt>
<trkpt lat="31.3708880" lon="34.4606720">
<ele>41.000000</ele>
<time>2020-03-01T11:11:02.000Z</time>
</trkpt>
<trkpt lat="31.3710180" lon="34.4603410">
<ele>41.000000</ele>
<time>2020-03-01T11:11:27.000Z</time>
</trkpt>
<trkpt lat="31.3708780" lon="34.4601340">
<ele>42.000000</ele>
<time>2020-03-01T11:11:45.000Z</time>
</trkpt>
<trkpt lat="31.3708780" lon="34.4600690">
<ele>43.000000</ele>
<time>2020-03-01T11:11:50.000Z</time>
</trkpt>
<trkpt lat="31.3710620" lon="34.4599280">
<ele>42.000000</ele>
<time>2020-03-01T11:12:07.000Z</time>
</trkpt>
<trkpt lat="31.3712250" lon="34.4599390">
<ele>40.000000</ele>
<time>2020-03-01T11:12:21.000Z</time>
</trkpt>
<trkpt lat="31.3714110" lon="34.4599980">
<ele>39.000000</ele>
<time>2020-03-01T11:12:37.000Z</time>
</trkpt>
<trkpt lat="31.3719450" lon="34.4593080">
<ele>38.000000</ele>
<time>2020-03-01T11:13:40.000Z</time>
</trkpt>
<trkpt lat="31.3720260" lon="34.4591110">
<ele>38.000000</ele>
<time>2020-03-01T11:13:55.000Z</time>
</trkpt>
<trkpt lat="31.3720670" lon="34.4588910">
<ele>39.000000</ele>
<time>2020-03-01T11:14:11.000Z</time>
</trkpt>
<trkpt lat="31.3720170" lon="34.4586900">
<ele>40.000000</ele>
<time>2020-03-01T11:14:25.000Z</time>
</trkpt>
<trkpt lat="31.3719470" lon="34.4585700">
<ele>40.000000</ele>
<time>2020-03-01T11:14:36.000Z</time>
</trkpt>
<trkpt lat="31.3719850" lon="34.4582940">
<ele>41.000000</ele>
<time>2020-03-01T11:14:55.000Z</time>
</trkpt>
<trkpt lat="31.3720570" lon="34.4581440">
<ele>42.000000</ele>
<time>2020-03-01T11:15:07.000Z</time>
</trkpt>
<trkpt lat="31.3722740" lon="34.4580400">
<ele>42.000000</ele>
<time>2020-03-01T11:15:26.000Z</time>
</trkpt>
<trkpt lat="31.3723270" lon="34.4579790">
<ele>42.000000</ele>
<time>2020-03-01T11:15:32.000Z</time>
</trkpt>
<trkpt lat="31.3724990" lon="34.4579870">
<ele>42.000000</ele>
<time>2020-03-01T11:15:46.000Z</time>
</trkpt>
<trkpt lat="31.3726990" lon="34.4578760">
<ele>42.000000</ele>
<time>2020-03-01T11:16:03.000Z</time>
</trkpt>
<trkpt lat="31.3732350" lon="34.4576800">
<ele>42.000000</ele>
<time>2020-03-01T11:16:49.000Z</time>
</trkpt>
<trkpt lat="31.3733110" lon="34.4576580">
<ele>43.000000</ele>
<time>2020-03-01T11:16:55.000Z</time>
</trkpt>
<trkpt lat="31.3734100" lon="34.4576900">
<ele>42.000000</ele>
<time>2020-03-01T11:17:03.000Z</time>
</trkpt>
<trkpt lat="31.3735330" lon="34.4576480">
<ele>42.000000</ele>
<time>2020-03-01T11:17:13.000Z</time>
</trkpt>
<trkpt lat="31.3738940" lon="34.4576290">
<ele>40.000000</ele>
<time>2020-03-01T11:17:43.000Z</time>
</trkpt>
<trkpt lat="31.3740810" lon="34.4575000">
<ele>40.000000</ele>
<time>2020-03-01T11:18:00.000Z</time>
</trkpt>
<trkpt lat="31.3742870" lon="34.4569500">
<ele>45.000004</ele>
<time>2020-03-01T11:18:42.000Z</time>
</trkpt>
<trkpt lat="31.3743920" lon="34.4568910">
<ele>45.000004</ele>
<time>2020-03-01T11:18:51.000Z</time>
</trkpt>
<trkpt lat="31.3745710" lon="34.4568550">
<ele>43.999996</ele>
<time>2020-03-01T11:19:06.000Z</time>
</trkpt>
<trkpt lat="31.3746080" lon="34.4566690">
<ele>46.000000</ele>
<time>2020-03-01T11:19:19.000Z</time>
</trkpt>
<trkpt lat="31.3746740" lon="34.4566140">
<ele>46.000000</ele>
<time>2020-03-01T11:19:26.000Z</time>
</trkpt>
<trkpt lat="31.3748950" lon="34.4564950">
<ele>45.000004</ele>
<time>2020-03-01T11:19:45.000Z</time>
</trkpt>
<trkpt lat="31.3752030" lon="34.4564320">
<ele>43.000000</ele>
<time>2020-03-01T11:20:10.000Z</time>
</trkpt>
<trkpt lat="31.3753110" lon="34.4563730">
<ele>43.000000</ele>
<time>2020-03-01T11:20:20.000Z</time>
</trkpt>
<trkpt lat="31.3754120" lon="34.4562710">
<ele>43.000000</ele>
<time>2020-03-01T11:20:31.000Z</time>
</trkpt>
<trkpt lat="31.3756020" lon="34.4562310">
<ele>43.000000</ele>
<time>2020-03-01T11:20:46.000Z</time>
</trkpt>
<trkpt lat="31.3759220" lon="34.4562400">
<ele>42.000000</ele>
<time>2020-03-01T11:21:12.000Z</time>
</trkpt>
<trkpt lat="31.3761650" lon="34.4561810">
<ele>41.000000</ele>
<time>2020-03-01T11:21:32.000Z</time>
</trkpt>
<trkpt lat="31.3763070" lon="34.4560710">
<ele>42.000000</ele>
<time>2020-03-01T11:21:46.000Z</time>
</trkpt>
<trkpt lat="31.3763830" lon="34.4558280">
<ele>42.000000</ele>
<time>2020-03-01T11:22:03.000Z</time>
</trkpt>
<trkpt lat="31.3766180" lon="34.4556210">
<ele>43.000000</ele>
<time>2020-03-01T11:22:27.000Z</time>
</trkpt>
<trkpt lat="31.3768840" lon="34.4554570">
<ele>42.000000</ele>
<time>2020-03-01T11:22:51.000Z</time>
</trkpt>
<trkpt lat="31.3771800" lon="34.4554030">
<ele>41.000000</ele>
<time>2020-03-01T11:23:15.000Z</time>
</trkpt>
<trkpt lat="31.3773650" lon="34.4551260">
<ele>41.000000</ele>
<time>2020-03-01T11:23:39.000Z</time>
</trkpt>
<trkpt lat="31.3778190" lon="34.4547630">
<ele>40.000000</ele>
<time>2020-03-01T11:24:24.000Z</time>
</trkpt>
<trkpt lat="31.3778880" lon="34.4546530">
<ele>40.000000</ele>
<time>2020-03-01T11:24:33.000Z</time>
</trkpt>
<trkpt lat="31.3779370" lon="34.4544590">
<ele>41.000000</ele>
<time>2020-03-01T11:24:47.000Z</time>
</trkpt>
<trkpt lat="31.3780950" lon="34.4543440">
<ele>41.000000</ele>
<time>2020-03-01T11:25:02.000Z</time>
</trkpt>
<trkpt lat="31.3781490" lon="34.4542490">
<ele>41.000000</ele>
<time>2020-03-01T11:25:10.000Z</time>
</trkpt>
<trkpt lat="31.3784550" lon="34.4540900">
<ele>40.000000</ele>
<time>2020-03-01T11:25:37.000Z</time>
</trkpt>
<trkpt lat="31.3786450" lon="34.4536380">
<ele>42.000000</ele>
<time>2020-03-01T11:26:12.000Z</time>
</trkpt>
<trkpt lat="31.3787110" lon="34.4531600">
<ele>43.999996</ele>
<time>2020-03-01T11:26:46.000Z</time>
</trkpt>
<trkpt lat="31.3788620" lon="34.4529630">
<ele>43.999996</ele>
<time>2020-03-01T11:27:04.000Z</time>
</trkpt>
<trkpt lat="31.3789450" lon="34.4527860">
<ele>45.000004</ele>
<time>2020-03-01T11:27:18.000Z</time>
</trkpt>
<trkpt lat="31.3790090" lon="34.4525540">
<ele>46.000000</ele>
<time>2020-03-01T11:27:34.000Z</time>
</trkpt>
<trkpt lat="31.3790740" lon="34.4525020">
<ele>46.000000</ele>
<time>2020-03-01T11:27:41.000Z</time>
</trkpt>
<trkpt lat="31.3795030" lon="34.4524060">
<ele>43.000000</ele>
<time>2020-03-01T11:28:16.000Z</time>
</trkpt>
<trkpt lat="31.3797840" lon="34.4523130">
<ele>42.000000</ele>
<time>2020-03-01T11:28:39.000Z</time>
</trkpt>
<trkpt lat="31.3806710" lon="34.4525150">
<ele>37.000000</ele>
<time>2020-03-01T11:29:52.000Z</time>
</trkpt>
<trkpt lat="31.3810870" lon="34.4525260">
<ele>36.000000</ele>
<time>2020-03-01T11:30:26.000Z</time>
</trkpt>
<trkpt lat="31.3813140" lon="34.4524110">
<ele>36.000000</ele>
<time>2020-03-01T11:30:45.000Z</time>
</trkpt>
<trkpt lat="31.3813840" lon="34.4523370">
<ele>36.000000</ele>
<time>2020-03-01T11:30:53.000Z</time>
</trkpt>
<trkpt lat="31.3815690" lon="34.4519560">
<ele>37.000000</ele>
<time>2020-03-01T11:31:23.000Z</time>
</trkpt>
<trkpt lat="31.3817210" lon="34.4517940">
<ele>37.000000</ele>
<time>2020-03-01T11:31:40.000Z</time>
</trkpt>
<trkpt lat="31.3818030" lon="34.4515440">
<ele>37.000000</ele>
<time>2020-03-01T11:31:58.000Z</time>
</trkpt>
<trkpt lat="31.3821430" lon="34.4511550">
<ele>36.000000</ele>
<time>2020-03-01T11:32:36.000Z</time>
</trkpt>
<trkpt lat="31.3822990" lon="34.4508350">
<ele>35.000000</ele>
<time>2020-03-01T11:33:02.000Z</time>
</trkpt>
<trkpt lat="31.3823010" lon="34.4507280">
<ele>36.000000</ele>
<time>2020-03-01T11:33:09.000Z</time>
</trkpt>
<trkpt lat="31.3822390" lon="34.4505480">
<ele>37.000000</ele>
<time>2020-03-01T11:33:23.000Z</time>
</trkpt>
<trkpt lat="31.3819950" lon="34.4503720">
<ele>38.000000</ele>
<time>2020-03-01T11:33:46.000Z</time>
</trkpt>
<trkpt lat="31.3819990" lon="34.4501150">
<ele>38.000000</ele>
<time>2020-03-01T11:34:04.000Z</time>
</trkpt>
<trkpt lat="31.3818320" lon="34.4498050">
<ele>39.000000</ele>
<time>2020-03-01T11:34:29.000Z</time>
</trkpt>
<trkpt lat="31.3817860" lon="34.4496560">
<ele>39.000000</ele>
<time>2020-03-01T11:34:40.000Z</time>
</trkpt>
<trkpt lat="31.3816450" lon="34.4494420">
<ele>40.000000</ele>
<time>2020-03-01T11:34:58.000Z</time>
</trkpt>
<trkpt lat="31.3816200" lon="34.4493270">
<ele>40.000000</ele>
<time>2020-03-01T11:35:07.000Z</time>
</trkpt>
<trkpt lat="31.3816560" lon="34.4492890">
<ele>40.000000</ele>
<time>2020-03-01T11:35:11.000Z</time>
</trkpt>
<trkpt lat="31.3818490" lon="34.4492800">
<ele>39.000000</ele>
<time>2020-03-01T11:35:26.000Z</time>
</trkpt>
<trkpt lat="31.3821600" lon="34.4494730">
<ele>39.000000</ele>
<time>2020-03-01T11:35:55.000Z</time>
</trkpt>
<trkpt lat="31.3822400" lon="34.4494650">
<ele>39.000000</ele>
<time>2020-03-01T11:36:01.000Z</time>
</trkpt>
<trkpt lat="31.3824420" lon="34.4493420">
<ele>38.000000</ele>
<time>2020-03-01T11:36:20.000Z</time>
</trkpt>
<trkpt lat="31.3825820" lon="34.4493540">
<ele>38.000000</ele>
<time>2020-03-01T11:36:31.000Z</time>
</trkpt>
<trkpt lat="31.3829870" lon="34.4496270">
<ele>38.000000</ele>
<time>2020-03-01T11:37:09.000Z</time>
</trkpt>
<trkpt lat="31.3833320" lon="34.4499880">
<ele>37.000000</ele>
<time>2020-03-01T11:37:46.000Z</time>
</trkpt>
<trkpt lat="31.3836800" lon="34.4502350">
<ele>37.000000</ele>
<time>2020-03-01T11:38:18.000Z</time>
</trkpt>
<trkpt lat="31.3839240" lon="34.4503530">
<ele>37.000000</ele>
<time>2020-03-01T11:38:40.000Z</time>
</trkpt>
<trkpt lat="31.3841780" lon="34.4503570">
<ele>37.000000</ele>
<time>2020-03-01T11:39:00.000Z</time>
</trkpt>
<trkpt lat="31.3844900" lon="34.4503010">
<ele>37.000000</ele>
<time>2020-03-01T11:39:26.000Z</time>
</trkpt>
<trkpt lat="31.3847690" lon="34.4502150">
<ele>38.000000</ele>
<time>2020-03-01T11:39:49.000Z</time>
</trkpt>
<trkpt lat="31.3849850" lon="34.4501810">
<ele>38.000000</ele>
<time>2020-03-01T11:40:06.000Z</time>
</trkpt>
<trkpt lat="31.3856400" lon="34.4499640">
<ele>36.000000</ele>
<time>2020-03-01T11:41:01.000Z</time>
</trkpt>
<trkpt lat="31.3856620" lon="34.4499200">
<ele>36.000000</ele>
<time>2020-03-01T11:41:04.000Z</time>
</trkpt>
<trkpt lat="31.3855960" lon="34.4494930">
<ele>38.000000</ele>
<time>2020-03-01T11:41:34.000Z</time>
</trkpt>
<trkpt lat="31.3856470" lon="34.4494370">
<ele>38.000000</ele>
<time>2020-03-01T11:41:41.000Z</time>
</trkpt>
<trkpt lat="31.3859850" lon="34.4499460">
<ele>35.000000</ele>
<time>2020-03-01T11:42:25.000Z</time>
</trkpt>
<trkpt lat="31.3860800" lon="34.4500550">
<ele>35.000000</ele>
<time>2020-03-01T11:42:36.000Z</time>
</trkpt>
<trkpt lat="31.3862680" lon="34.4501510">
<ele>35.000000</ele>
<time>2020-03-01T11:42:52.000Z</time>
</trkpt>
<trkpt lat="31.3866230" lon="34.4500730">
<ele>35.000000</ele>
<time>2020-03-01T11:43:21.000Z</time>
</trkpt>
<trkpt lat="31.3872220" lon="34.4497540">
<ele>34.000000</ele>
<time>2020-03-01T11:44:14.000Z</time>
</trkpt>
<trkpt lat="31.3877630" lon="34.4493700">
<ele>34.000000</ele>
<time>2020-03-01T11:45:05.000Z</time>
</trkpt>
<trkpt lat="31.3880500" lon="34.4489760">
<ele>35.000000</ele>
<time>2020-03-01T11:45:41.000Z</time>
</trkpt>
<trkpt lat="31.3882040" lon="34.4484150">
<ele>37.000000</ele>
<time>2020-03-01T11:46:21.000Z</time>
</trkpt>
<trkpt lat="31.3881780" lon="34.4474380">
<ele>35.000000</ele>
<time>2020-03-01T11:47:28.000Z</time>
</trkpt>
<trkpt lat="31.3880870" lon="34.4468960">
<ele>34.000000</ele>
<time>2020-03-01T11:48:06.000Z</time>
</trkpt>
<trkpt lat="31.3882460" lon="34.4463070">
<ele>33.000000</ele>
<time>2020-03-01T11:48:48.000Z</time>
</trkpt>
<trkpt lat="31.3882900" lon="34.4459770">
<ele>33.000000</ele>
<time>2020-03-01T11:49:11.000Z</time>
</trkpt>
<trkpt lat="31.3883300" lon="34.4459140">
<ele>32.000000</ele>
<time>2020-03-01T11:49:16.000Z</time>
</trkpt>
<trkpt lat="31.3886020" lon="34.4458010">
<ele>32.000000</ele>
<time>2020-03-01T11:49:40.000Z</time>
</trkpt>
<trkpt lat="31.3896510" lon="34.4451120">
<ele>31.000000</ele>
<time>2020-03-01T11:51:16.000Z</time>
</trkpt>
<trkpt lat="31.3909160" lon="34.4449040">
<ele>31.000000</ele>
<time>2020-03-01T11:52:59.000Z</time>
</trkpt>
<trkpt lat="31.3911340" lon="34.4447790">
<ele>32.000000</ele>
<time>2020-03-01T11:53:18.000Z</time>
</trkpt>
<trkpt lat="31.3913240" lon="34.4448810">
<ele>32.000000</ele>
<time>2020-03-01T11:53:36.000Z</time>
</trkpt>
<trkpt lat="31.3914050" lon="34.4449130">
<ele>32.000000</ele>
<time>2020-03-01T11:53:43.000Z</time>
</trkpt>
<trkpt lat="31.3914910" lon="34.4448920">
<ele>32.000000</ele>
<time>2020-03-01T11:53:50.000Z</time>
</trkpt>
<trkpt lat="31.3918940" lon="34.4447330">
<ele>33.000000</ele>
<time>2020-03-01T11:54:24.000Z</time>
</trkpt>
<trkpt lat="31.3920180" lon="34.4446250">
<ele>33.000000</ele>
<time>2020-03-01T11:54:36.000Z</time>
</trkpt>
<trkpt lat="31.3922150" lon="34.4443670">
<ele>33.000000</ele>
<time>2020-03-01T11:55:00.000Z</time>
</trkpt>
<trkpt lat="31.3922700" lon="34.4439800">
<ele>34.000000</ele>
<time>2020-03-01T11:55:27.000Z</time>
</trkpt>
<trkpt lat="31.3922450" lon="34.4437350">
<ele>34.000000</ele>
<time>2020-03-01T11:55:44.000Z</time>
</trkpt>
<trkpt lat="31.3921690" lon="34.4435030">
<ele>33.000000</ele>
<time>2020-03-01T11:56:01.000Z</time>
</trkpt>
<trkpt lat="31.3917620" lon="34.4425500">
<ele>32.000000</ele>
<time>2020-03-01T11:57:14.000Z</time>
</trkpt>
<trkpt lat="31.3916490" lon="34.4423810">
<ele>32.000000</ele>
<time>2020-03-01T11:57:29.000Z</time>
</trkpt>
<trkpt lat="31.3913830" lon="34.4422000">
<ele>32.000000</ele>
<time>2020-03-01T11:57:53.000Z</time>
</trkpt>
<trkpt lat="31.3909690" lon="34.4411930">
<ele>29.000000</ele>
<time>2020-03-01T11:59:10.000Z</time>
</trkpt>
<trkpt lat="31.3908340" lon="34.4403870">
<ele>29.000000</ele>
<time>2020-03-01T12:00:07.000Z</time>
</trkpt>
<trkpt lat="31.3908000" lon="34.4399830">
<ele>29.000000</ele>
<time>2020-03-01T12:00:34.000Z</time>
</trkpt>
<trkpt lat="31.3908290" lon="34.4398080">
<ele>29.000000</ele>
<time>2020-03-01T12:00:47.000Z</time>
</trkpt>
<trkpt lat="31.3910000" lon="34.4393820">
<ele>30.000000</ele>
<time>2020-03-01T12:01:19.000Z</time>
</trkpt>
<trkpt lat="31.3910280" lon="34.4392130">
<ele>30.000000</ele>
<time>2020-03-01T12:01:31.000Z</time>
</trkpt>
<trkpt lat="31.3911980" lon="34.4390400">
<ele>31.000000</ele>
<time>2020-03-01T12:01:49.000Z</time>
</trkpt>
<trkpt lat="31.3915460" lon="34.4385140">
<ele>30.000000</ele>
<time>2020-03-01T12:02:34.000Z</time>
</trkpt>
<trkpt lat="31.3924600" lon="34.4373880">
<ele>32.000000</ele>
<time>2020-03-01T12:04:21.000Z</time>
</trkpt>
<trkpt lat="31.3927700" lon="34.4369510">
<ele>31.000000</ele>
<time>2020-03-01T12:05:00.000Z</time>
</trkpt>
<trkpt lat="31.3931200" lon="34.4368410">
<ele>31.000000</ele>
<time>2020-03-01T12:05:29.000Z</time>
</trkpt>
<trkpt lat="31.3934310" lon="34.4367080">
<ele>30.000000</ele>
<time>2020-03-01T12:05:55.000Z</time>
</trkpt>
<trkpt lat="31.3937010" lon="34.4365270">
<ele>30.000000</ele>
<time>2020-03-01T12:06:20.000Z</time>
</trkpt>
<trkpt lat="31.3942880" lon="34.4362990">
<ele>28.000000</ele>
<time>2020-03-01T12:07:10.000Z</time>
</trkpt>
<trkpt lat="31.3945710" lon="34.4362950">
<ele>28.000000</ele>
<time>2020-03-01T12:07:33.000Z</time>
</trkpt>
<trkpt lat="31.3957060" lon="34.4360520">
<ele>29.000000</ele>
<time>2020-03-01T12:09:05.000Z</time>
</trkpt>
<trkpt lat="31.3962700" lon="34.4360240">
<ele>29.000000</ele>
<time>2020-03-01T12:09:51.000Z</time>
</trkpt>
<trkpt lat="31.3965080" lon="34.4360440">
<ele>30.000000</ele>
<time>2020-03-01T12:10:10.000Z</time>
</trkpt>
<trkpt lat="31.3970730" lon="34.4362390">
<ele>31.000000</ele>
<time>2020-03-01T12:10:57.000Z</time>
</trkpt>
<trkpt lat="31.3974500" lon="34.4362430">
<ele>31.000000</ele>
<time>2020-03-01T12:11:27.000Z</time>
</trkpt>
<trkpt lat="31.3979650" lon="34.4365240">
<ele>29.000000</ele>
<time>2020-03-01T12:12:14.000Z</time>
</trkpt>
<trkpt lat="31.3979540" lon="34.4367950">
<ele>30.000000</ele>
<time>2020-03-01T12:12:33.000Z</time>
</trkpt>
<trkpt lat="31.3977610" lon="34.4371470">
<ele>31.000000</ele>
<time>2020-03-01T12:13:02.000Z</time>
</trkpt>
<trkpt lat="31.3976010" lon="34.4371400">
<ele>31.000000</ele>
<time>2020-03-01T12:13:15.000Z</time>
</trkpt>
<trkpt lat="31.3974500" lon="34.4370810">
<ele>32.000000</ele>
<time>2020-03-01T12:13:28.000Z</time>
</trkpt>
<trkpt lat="31.3972770" lon="34.4371260">
<ele>32.000000</ele>
<time>2020-03-01T12:13:42.000Z</time>
</trkpt>
<trkpt lat="31.3971670" lon="34.4371000">
<ele>33.000000</ele>
<time>2020-03-01T12:13:51.000Z</time>
</trkpt>
<trkpt lat="31.3971030" lon="34.4371430">
<ele>33.000000</ele>
<time>2020-03-01T12:13:57.000Z</time>
</trkpt>
<trkpt lat="31.3970970" lon="34.4373400">
<ele>33.000000</ele>
<time>2020-03-01T12:14:11.000Z</time>
</trkpt>
<trkpt lat="31.3971080" lon="34.4373830">
<ele>33.000000</ele>
<time>2020-03-01T12:14:14.000Z</time>
</trkpt>
<trkpt lat="31.3971870" lon="34.4374370">
<ele>33.000000</ele>
<time>2020-03-01T12:14:21.000Z</time>
</trkpt>
<trkpt lat="31.3974320" lon="34.4374850">
<ele>32.000000</ele>
<time>2020-03-01T12:14:41.000Z</time>
</trkpt>
<trkpt lat="31.3975850" lon="34.4375770">
<ele>32.000000</ele>
<time>2020-03-01T12:14:55.000Z</time>
</trkpt>
<trkpt lat="31.3977000" lon="34.4376850">
<ele>32.000000</ele>
<time>2020-03-01T12:15:07.000Z</time>
</trkpt>
<trkpt lat="31.3977780" lon="34.4378510">
<ele>31.000000</ele>
<time>2020-03-01T12:15:20.000Z</time>
</trkpt>
<trkpt lat="31.3978040" lon="34.4380940">
<ele>31.000000</ele>
<time>2020-03-01T12:15:37.000Z</time>
</trkpt>
<trkpt lat="31.3976410" lon="34.4386090">
<ele>32.000000</ele>
<time>2020-03-01T12:16:15.000Z</time>
</trkpt>
<trkpt lat="31.3976650" lon="34.4386790">
<ele>32.000000</ele>
<time>2020-03-01T12:16:20.000Z</time>
</trkpt>
<trkpt lat="31.3978200" lon="34.4388440">
<ele>31.000000</ele>
<time>2020-03-01T12:16:37.000Z</time>
</trkpt>
<trkpt lat="31.3979590" lon="34.4391140">
<ele>31.000000</ele>
<time>2020-03-01T12:16:59.000Z</time>
</trkpt>
<trkpt lat="31.3979590" lon="34.4392060">
<ele>31.000000</ele>
<time>2020-03-01T12:17:05.000Z</time>
</trkpt>
<trkpt lat="31.3978760" lon="34.4394100">
<ele>31.000000</ele>
<time>2020-03-01T12:17:20.000Z</time>
</trkpt>
<trkpt lat="31.3978300" lon="34.4394220">
<ele>31.000000</ele>
<time>2020-03-01T12:17:24.000Z</time>
</trkpt>
<trkpt lat="31.3978110" lon="34.4394760">
<ele>31.000000</ele>
<time>2020-03-01T12:17:28.000Z</time>
</trkpt>
<trkpt lat="31.3978640" lon="34.4396140">
<ele>31.000000</ele>
<time>2020-03-01T12:17:39.000Z</time>
</trkpt>
<trkpt lat="31.3978510" lon="34.4397780">
<ele>31.000000</ele>
<time>2020-03-01T12:17:50.000Z</time>
</trkpt>
<trkpt lat="31.3980030" lon="34.4399650">
<ele>31.000000</ele>
<time>2020-03-01T12:18:08.000Z</time>
</trkpt>
<trkpt lat="31.3980170" lon="34.4400240">
<ele>31.000000</ele>
<time>2020-03-01T12:18:12.000Z</time>
</trkpt>
<trkpt lat="31.3979890" lon="34.4401930">
<ele>31.000000</ele>
<time>2020-03-01T12:18:25.000Z</time>
</trkpt>
<trkpt lat="31.3981540" lon="34.4402530">
<ele>31.000000</ele>
<time>2020-03-01T12:18:39.000Z</time>
</trkpt>
<trkpt lat="31.3982020" lon="34.4403470">
<ele>31.000000</ele>
<time>2020-03-01T12:18:46.000Z</time>
</trkpt>
<trkpt lat="31.3982330" lon="34.4404880">
<ele>31.000000</ele>
<time>2020-03-01T12:18:56.000Z</time>
</trkpt>
<trkpt lat="31.3981920" lon="34.4408140">
<ele>31.000000</ele>
<time>2020-03-01T12:19:19.000Z</time>
</trkpt>
<trkpt lat="31.3982910" lon="34.4409950">
<ele>32.000000</ele>
<time>2020-03-01T12:19:34.000Z</time>
</trkpt>
<trkpt lat="31.3983890" lon="34.4410460">
<ele>32.000000</ele>
<time>2020-03-01T12:19:43.000Z</time>
</trkpt>
<trkpt lat="31.3984720" lon="34.4411500">
<ele>32.000000</ele>
<time>2020-03-01T12:19:53.000Z</time>
</trkpt>
<trkpt lat="31.3986720" lon="34.4412360">
<ele>32.000000</ele>
<time>2020-03-01T12:20:10.000Z</time>
</trkpt>
<trkpt lat="31.3988970" lon="34.4415380">
<ele>32.000000</ele>
<time>2020-03-01T12:20:37.000Z</time>
</trkpt>
<trkpt lat="31.3989620" lon="34.4415900">
<ele>32.000000</ele>
<time>2020-03-01T12:20:44.000Z</time>
</trkpt>
<trkpt lat="31.3990300" lon="34.4418530">
<ele>32.000000</ele>
<time>2020-03-01T12:21:03.000Z</time>
</trkpt>
<trkpt lat="31.3992720" lon="34.4421860">
<ele>32.000000</ele>
<time>2020-03-01T12:21:33.000Z</time>
</trkpt>
<trkpt lat="31.3993530" lon="34.4424580">
<ele>33.000000</ele>
<time>2020-03-01T12:21:53.000Z</time>
</trkpt>
<trkpt lat="31.3993860" lon="34.4425350">
<ele>33.000000</ele>
<time>2020-03-01T12:21:59.000Z</time>
</trkpt>
<trkpt lat="31.3995260" lon="34.4426640">
<ele>33.000000</ele>
<time>2020-03-01T12:22:13.000Z</time>
</trkpt>
<trkpt lat="31.3995660" lon="34.4428730">
<ele>34.000000</ele>
<time>2020-03-01T12:22:28.000Z</time>
</trkpt>
<trkpt lat="31.3996940" lon="34.4431240">
<ele>34.000000</ele>
<time>2020-03-01T12:22:48.000Z</time>
</trkpt>
<trkpt lat="31.3997250" lon="34.4432630">
<ele>34.000000</ele>
<time>2020-03-01T12:22:58.000Z</time>
</trkpt>
<trkpt lat="31.3996810" lon="34.4435230">
<ele>34.000000</ele>
<time>2020-03-01T12:23:16.000Z</time>
</trkpt>
<trkpt lat="31.3997170" lon="34.4438280">
<ele>34.000000</ele>
<time>2020-03-01T12:23:37.000Z</time>
</trkpt>
<trkpt lat="31.3998170" lon="34.4440120">
<ele>33.000000</ele>
<time>2020-03-01T12:23:53.000Z</time>
</trkpt>
<trkpt lat="31.4000510" lon="34.4448930">
<ele>33.000000</ele>
<time>2020-03-01T12:24:56.000Z</time>
</trkpt>
<trkpt lat="31.4000670" lon="34.4450710">
<ele>33.000000</ele>
<time>2020-03-01T12:25:09.000Z</time>
</trkpt>
<trkpt lat="31.4000530" lon="34.4453560">
<ele>34.000000</ele>
<time>2020-03-01T12:25:29.000Z</time>
</trkpt>
<trkpt lat="31.3999770" lon="34.4457040">
<ele>34.000000</ele>
<time>2020-03-01T12:25:53.000Z</time>
</trkpt>
<trkpt lat="31.3999810" lon="34.4458390">
<ele>34.000000</ele>
<time>2020-03-01T12:26:03.000Z</time>
</trkpt>
<trkpt lat="31.4001740" lon="34.4458100">
<ele>34.000000</ele>
<time>2020-03-01T12:26:19.000Z</time>
</trkpt>
<trkpt lat="31.4004320" lon="34.4455550">
<ele>35.000000</ele>
<time>2020-03-01T12:26:47.000Z</time>
</trkpt>
<trkpt lat="31.4004750" lon="34.4456650">
<ele>35.000000</ele>
<time>2020-03-01T12:26:56.000Z</time>
</trkpt>
<trkpt lat="31.4007580" lon="34.4458650">
<ele>36.000000</ele>
<time>2020-03-01T12:27:23.000Z</time>
</trkpt>
<trkpt lat="31.4009410" lon="34.4459180">
<ele>37.000000</ele>
<time>2020-03-01T12:27:38.000Z</time>
</trkpt>
<trkpt lat="31.4012130" lon="34.4459250">
<ele>38.000000</ele>
<time>2020-03-01T12:28:00.000Z</time>
</trkpt>
<trkpt lat="31.4014830" lon="34.4460560">
<ele>40.000000</ele>
<time>2020-03-01T12:28:24.000Z</time>
</trkpt>
<trkpt lat="31.4018080" lon="34.4464300">
<ele>45.000004</ele>
<time>2020-03-01T12:29:00.000Z</time>
</trkpt>
<trkpt lat="31.4019290" lon="34.4466720">
<ele>47.000000</ele>
<time>2020-03-01T12:29:20.000Z</time>
</trkpt>
<trkpt lat="31.4020010" lon="34.4470170">
<ele>47.000000</ele>
<time>2020-03-01T12:29:44.000Z</time>
</trkpt>
<trkpt lat="31.4020970" lon="34.4471940">
<ele>48.000000</ele>
<time>2020-03-01T12:29:58.000Z</time>
</trkpt>
<trkpt lat="31.4022450" lon="34.4473720">
<ele>49.000000</ele>
<time>2020-03-01T12:30:16.000Z</time>
</trkpt>
<trkpt lat="31.4024260" lon="34.4479840">
<ele>51.000000</ele>
<time>2020-03-01T12:31:00.000Z</time>
</trkpt>
<trkpt lat="31.4025790" lon="34.4482900">
<ele>51.999996</ele>
<time>2020-03-01T12:31:24.000Z</time>
</trkpt>
<trkpt lat="31.4026140" lon="34.4485780">
<ele>53.000004</ele>
<time>2020-03-01T12:31:44.000Z</time>
</trkpt>
<trkpt lat="31.4025320" lon="34.4491710">
<ele>56.000000</ele>
<time>2020-03-01T12:32:26.000Z</time>
</trkpt>
<trkpt lat="31.4024370" lon="34.4494800">
<ele>55.000000</ele>
<time>2020-03-01T12:32:48.000Z</time>
</trkpt>
<trkpt lat="31.4021090" lon="34.4498610">
<ele>51.000000</ele>
<time>2020-03-01T12:33:25.000Z</time>
</trkpt>
<trkpt lat="31.4018600" lon="34.4500230">
<ele>49.000000</ele>
<time>2020-03-01T12:33:48.000Z</time>
</trkpt>
<trkpt lat="31.4016590" lon="34.4503130">
<ele>46.000000</ele>
<time>2020-03-01T12:34:14.000Z</time>
</trkpt>
<trkpt lat="31.4014370" lon="34.4505360">
<ele>43.000000</ele>
<time>2020-03-01T12:34:38.000Z</time>
</trkpt>
<trkpt lat="31.4010830" lon="34.4510650">
<ele>40.000000</ele>
<time>2020-03-01T12:35:24.000Z</time>
</trkpt>
<trkpt lat="31.4007790" lon="34.4516530">
<ele>39.000000</ele>
<time>2020-03-01T12:36:11.000Z</time>
</trkpt>
<trkpt lat="31.4008130" lon="34.4518410">
<ele>39.000000</ele>
<time>2020-03-01T12:36:24.000Z</time>
</trkpt>
<trkpt lat="31.4009260" lon="34.4521050">
<ele>40.000000</ele>
<time>2020-03-01T12:36:45.000Z</time>
</trkpt>
<trkpt lat="31.4009560" lon="34.4523400">
<ele>41.000000</ele>
<time>2020-03-01T12:37:01.000Z</time>
</trkpt>
<trkpt lat="31.4011490" lon="34.4527240">
<ele>43.999996</ele>
<time>2020-03-01T12:37:31.000Z</time>
</trkpt>
<trkpt lat="31.4012390" lon="34.4530730">
<ele>45.000004</ele>
<time>2020-03-01T12:37:57.000Z</time>
</trkpt>
<trkpt lat="31.4012300" lon="34.4531770">
<ele>45.000004</ele>
<time>2020-03-01T12:38:04.000Z</time>
</trkpt>
<trkpt lat="31.4011030" lon="34.4534280">
<ele>45.000004</ele>
<time>2020-03-01T12:38:24.000Z</time>
</trkpt>
<trkpt lat="31.4010940" lon="34.4535900">
<ele>46.000000</ele>
<time>2020-03-01T12:38:35.000Z</time>
</trkpt>
<trkpt lat="31.4010080" lon="34.4539020">
<ele>46.000000</ele>
<time>2020-03-01T12:38:58.000Z</time>
</trkpt>
<trkpt lat="31.4009840" lon="34.4540740">
<ele>46.000000</ele>
<time>2020-03-01T12:39:10.000Z</time>
</trkpt>
<trkpt lat="31.4010070" lon="34.4545850">
<ele>47.000000</ele>
<time>2020-03-01T12:39:45.000Z</time>
</trkpt>
<trkpt lat="31.4009610" lon="34.4549990">
<ele>47.000000</ele>
<time>2020-03-01T12:40:13.000Z</time>
</trkpt>
<trkpt lat="31.4011430" lon="34.4558850">
<ele>47.000000</ele>
<time>2020-03-01T12:41:16.000Z</time>
</trkpt>
<trkpt lat="31.4012700" lon="34.4562560">
<ele>46.000000</ele>
<time>2020-03-01T12:41:43.000Z</time>
</trkpt>
<trkpt lat="31.4015700" lon="34.4573860">
<ele>45.000004</ele>
<time>2020-03-01T12:43:04.000Z</time>
</trkpt>
<trkpt lat="31.4016360" lon="34.4576910">
<ele>45.000004</ele>
<time>2020-03-01T12:43:26.000Z</time>
</trkpt>
<trkpt lat="31.4017240" lon="34.4585210">
<ele>48.000000</ele>
<time>2020-03-01T12:44:23.000Z</time>
</trkpt>
<trkpt lat="31.4015590" lon="34.4588380">
<ele>49.000000</ele>
<time>2020-03-01T12:44:49.000Z</time>
</trkpt>
<trkpt lat="31.4012920" lon="34.4595470">
<ele>49.000000</ele>
<time>2020-03-01T12:45:42.000Z</time>
</trkpt>
<trkpt lat="31.4012830" lon="34.4602750">
<ele>49.000000</ele>
<time>2020-03-01T12:46:32.000Z</time>
</trkpt>
<trkpt lat="31.4010440" lon="34.4609720">
<ele>47.000000</ele>
<time>2020-03-01T12:47:23.000Z</time>
</trkpt>
<trkpt lat="31.4008330" lon="34.4612430">
<ele>46.000000</ele>
<time>2020-03-01T12:47:49.000Z</time>
</trkpt>
<trkpt lat="31.4004090" lon="34.4616900">
<ele>46.000000</ele>
<time>2020-03-01T12:48:35.000Z</time>
</trkpt>
<trkpt lat="31.4001380" lon="34.4618510">
<ele>45.000004</ele>
<time>2020-03-01T12:48:59.000Z</time>
</trkpt>
<trkpt lat="31.3999130" lon="34.4625100">
<ele>46.000000</ele>
<time>2020-03-01T12:49:48.000Z</time>
</trkpt>
<trkpt lat="31.3998720" lon="34.4626800">
<ele>46.000000</ele>
<time>2020-03-01T12:50:00.000Z</time>
</trkpt>
<trkpt lat="31.3998850" lon="34.4629480">
<ele>47.000000</ele>
<time>2020-03-01T12:50:18.000Z</time>
</trkpt>
<trkpt lat="31.4001820" lon="34.4631630">
<ele>48.000000</ele>
<time>2020-03-01T12:50:46.000Z</time>
</trkpt>
<trkpt lat="31.4002440" lon="34.4632560">
<ele>49.000000</ele>
<time>2020-03-01T12:50:54.000Z</time>
</trkpt>
<trkpt lat="31.4002140" lon="34.4634750">
<ele>48.000000</ele>
<time>2020-03-01T12:51:10.000Z</time>
</trkpt>
<trkpt lat="31.3996090" lon="34.4641020">
<ele>42.000000</ele>
<time>2020-03-01T12:52:15.000Z</time>
</trkpt>
<trkpt lat="31.3996570" lon="34.4642210">
<ele>42.000000</ele>
<time>2020-03-01T12:52:24.000Z</time>
</trkpt>
<trkpt lat="31.3998900" lon="34.4643850">
<ele>42.000000</ele>
<time>2020-03-01T12:52:46.000Z</time>
</trkpt>
<trkpt lat="31.3999860" lon="34.4645760">
<ele>41.000000</ele>
<time>2020-03-01T12:53:01.000Z</time>
</trkpt>
<trkpt lat="31.4001410" lon="34.4647670">
<ele>41.000000</ele>
<time>2020-03-01T12:53:19.000Z</time>
</trkpt>
<trkpt lat="31.4002550" lon="34.4648390">
<ele>42.000000</ele>
<time>2020-03-01T12:53:30.000Z</time>
</trkpt>
<trkpt lat="31.4004910" lon="34.4652630">
<ele>42.000000</ele>
<time>2020-03-01T12:54:05.000Z</time>
</trkpt>
<trkpt lat="31.4006370" lon="34.4654620">
<ele>42.000000</ele>
<time>2020-03-01T12:54:23.000Z</time>
</trkpt>
<trkpt lat="31.4009420" lon="34.4657450">
<ele>42.000000</ele>
<time>2020-03-01T12:54:54.000Z</time>
</trkpt>
<trkpt lat="31.4010390" lon="34.4658730">
<ele>42.000000</ele>
<time>2020-03-01T12:55:06.000Z</time>
</trkpt>
<trkpt lat="31.4011040" lon="34.4661190">
<ele>42.000000</ele>
<time>2020-03-01T12:55:24.000Z</time>
</trkpt>
<trkpt lat="31.4011590" lon="34.4661970">
<ele>42.000000</ele>
<time>2020-03-01T12:55:30.000Z</time>
</trkpt>
<trkpt lat="31.4012870" lon="34.4662670">
<ele>42.000000</ele>
<time>2020-03-01T12:55:43.000Z</time>
</trkpt>
<trkpt lat="31.4013960" lon="34.4664530">
<ele>41.000000</ele>
<time>2020-03-01T12:55:58.000Z</time>
</trkpt>
<trkpt lat="31.4015970" lon="34.4665540">
<ele>41.000000</ele>
<time>2020-03-01T12:56:16.000Z</time>
</trkpt>
<trkpt lat="31.4016740" lon="34.4666930">
<ele>40.000000</ele>
<time>2020-03-01T12:56:28.000Z</time>
</trkpt>
<trkpt lat="31.4017840" lon="34.4666670">
<ele>41.000000</ele>
<time>2020-03-01T12:56:37.000Z</time>
</trkpt>
<trkpt lat="31.4019170" lon="34.4666840">
<ele>41.000000</ele>
<time>2020-03-01T12:56:48.000Z</time>
</trkpt>
<trkpt lat="31.4019930" lon="34.4667110">
<ele>42.000000</ele>
<time>2020-03-01T12:56:54.000Z</time>
</trkpt>
<trkpt lat="31.4020590" lon="34.4668080">
<ele>42.000000</ele>
<time>2020-03-01T12:57:02.000Z</time>
</trkpt>
<trkpt lat="31.4022000" lon="34.4669040">
<ele>43.000000</ele>
<time>2020-03-01T12:57:16.000Z</time>
</trkpt>
<trkpt lat="31.4024030" lon="34.4668780">
<ele>43.999996</ele>
<time>2020-03-01T12:57:32.000Z</time>
</trkpt>
<trkpt lat="31.4026300" lon="34.4667730">
<ele>46.000000</ele>
<time>2020-03-01T12:57:52.000Z</time>
</trkpt>
<trkpt lat="31.4029000" lon="34.4667930">
<ele>48.000000</ele>
<time>2020-03-01T12:58:14.000Z</time>
</trkpt>
<trkpt lat="31.4031190" lon="34.4667680">
<ele>49.000000</ele>
<time>2020-03-01T12:58:31.000Z</time>
</trkpt>
<trkpt lat="31.4032520" lon="34.4668190">
<ele>50.000000</ele>
<time>2020-03-01T12:58:43.000Z</time>
</trkpt>
<trkpt lat="31.4034390" lon="34.4666730">
<ele>51.999996</ele>
<time>2020-03-01T12:59:01.000Z</time>
</trkpt>
<trkpt lat="31.4035710" lon="34.4667200">
<ele>51.999996</ele>
<time>2020-03-01T12:59:13.000Z</time>
</trkpt>
<trkpt lat="31.4036780" lon="34.4668830">
<ele>51.999996</ele>
<time>2020-03-01T12:59:27.000Z</time>
</trkpt>
<trkpt lat="31.4037990" lon="34.4669710">
<ele>53.000004</ele>
<time>2020-03-01T12:59:38.000Z</time>
</trkpt>
<trkpt lat="31.4038750" lon="34.4670780">
<ele>53.000004</ele>
<time>2020-03-01T12:59:48.000Z</time>
</trkpt>
<trkpt lat="31.4039020" lon="34.4674570">
<ele>51.999996</ele>
<time>2020-03-01T13:00:14.000Z</time>
</trkpt>
<trkpt lat="31.4038190" lon="34.4679840">
<ele>50.000000</ele>
<time>2020-03-01T13:00:51.000Z</time>
</trkpt>
<trkpt lat="31.4038290" lon="34.4683070">
<ele>48.000000</ele>
<time>2020-03-01T13:01:13.000Z</time>
</trkpt>
<trkpt lat="31.4038930" lon="34.4686240">
<ele>47.000000</ele>
<time>2020-03-01T13:01:35.000Z</time>
</trkpt>
<trkpt lat="31.4038090" lon="34.4689660">
<ele>46.000000</ele>
<time>2020-03-01T13:02:00.000Z</time>
</trkpt>
<trkpt lat="31.4036840" lon="34.4691450">
<ele>46.000000</ele>
<time>2020-03-01T13:02:16.000Z</time>
</trkpt>
<trkpt lat="31.4033010" lon="34.4694080">
<ele>46.000000</ele>
<time>2020-03-01T13:02:52.000Z</time>
</trkpt>
<trkpt lat="31.4031160" lon="34.4694690">
<ele>45.000004</ele>
<time>2020-03-01T13:03:07.000Z</time>
</trkpt>
<trkpt lat="31.4028000" lon="34.4694770">
<ele>43.999996</ele>
<time>2020-03-01T13:03:32.000Z</time>
</trkpt>
<trkpt lat="31.4027400" lon="34.4695720">
<ele>43.000000</ele>
<time>2020-03-01T13:03:41.000Z</time>
</trkpt>
<trkpt lat="31.4025320" lon="34.4696080">
<ele>43.000000</ele>
<time>2020-03-01T13:03:58.000Z</time>
</trkpt>
<trkpt lat="31.4024710" lon="34.4697060">
<ele>43.000000</ele>
<time>2020-03-01T13:04:06.000Z</time>
</trkpt>
<trkpt lat="31.4020520" lon="34.4699540">
<ele>42.000000</ele>
<time>2020-03-01T13:04:44.000Z</time>
</trkpt>
<trkpt lat="31.4020080" lon="34.4700190">
<ele>42.000000</ele>
<time>2020-03-01T13:04:50.000Z</time>
</trkpt>
<trkpt lat="31.4019640" lon="34.4702670">
<ele>42.000000</ele>
<time>2020-03-01T13:05:07.000Z</time>
</trkpt>
<trkpt lat="31.4019810" lon="34.4703920">
<ele>43.000000</ele>
<time>2020-03-01T13:05:16.000Z</time>
</trkpt>
<trkpt lat="31.4020660" lon="34.4705190">
<ele>43.000000</ele>
<time>2020-03-01T13:05:27.000Z</time>
</trkpt>
<trkpt lat="31.4024390" lon="34.4708380">
<ele>43.999996</ele>
<time>2020-03-01T13:06:04.000Z</time>
</trkpt>
<trkpt lat="31.4027260" lon="34.4713020">
<ele>43.999996</ele>
<time>2020-03-01T13:06:44.000Z</time>
</trkpt>
<trkpt lat="31.4027650" lon="34.4716450">
<ele>43.999996</ele>
<time>2020-03-01T13:07:07.000Z</time>
</trkpt>
<trkpt lat="31.4029430" lon="34.4720330">
<ele>43.999996</ele>
<time>2020-03-01T13:07:38.000Z</time>
</trkpt>
<trkpt lat="31.4031180" lon="34.4725940">
<ele>45.000004</ele>
<time>2020-03-01T13:08:19.000Z</time>
</trkpt>
<trkpt lat="31.4031980" lon="34.4729770">
<ele>45.000004</ele>
<time>2020-03-01T13:08:46.000Z</time>
</trkpt>
<trkpt lat="31.4031940" lon="34.4733320">
<ele>45.000004</ele>
<time>2020-03-01T13:09:10.000Z</time>
</trkpt>
<trkpt lat="31.4032560" lon="34.4734290">
<ele>46.000000</ele>
<time>2020-03-01T13:09:18.000Z</time>
</trkpt>
<trkpt lat="31.4036310" lon="34.4737470">
<ele>47.000000</ele>
<time>2020-03-01T13:09:56.000Z</time>
</trkpt>
<trkpt lat="31.4036820" lon="34.4738270">
<ele>47.000000</ele>
<time>2020-03-01T13:10:03.000Z</time>
</trkpt>
<trkpt lat="31.4037390" lon="34.4741580">
<ele>46.000000</ele>
<time>2020-03-01T13:10:26.000Z</time>
</trkpt>
<trkpt lat="31.4040620" lon="34.4745670">
<ele>46.000000</ele>
<time>2020-03-01T13:11:04.000Z</time>
</trkpt>
<trkpt lat="31.4041190" lon="34.4746100">
<ele>46.000000</ele>
<time>2020-03-01T13:11:10.000Z</time>
</trkpt>
<trkpt lat="31.4044080" lon="34.4745810">
<ele>47.000000</ele>
<time>2020-03-01T13:11:33.000Z</time>
</trkpt>
<trkpt lat="31.4048950" lon="34.4749740">
<ele>48.000000</ele>
<time>2020-03-01T13:12:21.000Z</time>
</trkpt>
<trkpt lat="31.4047610" lon="34.4751510">
<ele>48.000000</ele>
<time>2020-03-01T13:12:37.000Z</time>
</trkpt>
<trkpt lat="31.4046070" lon="34.4752210">
<ele>47.000000</ele>
<time>2020-03-01T13:12:51.000Z</time>
</trkpt>
<trkpt lat="31.4040310" lon="34.4753120">
<ele>47.000000</ele>
<time>2020-03-01T13:13:37.000Z</time>
</trkpt>
<trkpt lat="31.4037810" lon="34.4752610">
<ele>48.000000</ele>
<time>2020-03-01T13:13:58.000Z</time>
</trkpt>
<trkpt lat="31.4036470" lon="34.4755000">
<ele>49.000000</ele>
<time>2020-03-01T13:14:18.000Z</time>
</trkpt>
<trkpt lat="31.4034990" lon="34.4756580">
<ele>51.000000</ele>
<time>2020-03-01T13:14:34.000Z</time>
</trkpt>
<trkpt lat="31.4034850" lon="34.4758090">
<ele>51.999996</ele>
<time>2020-03-01T13:14:45.000Z</time>
</trkpt>
<trkpt lat="31.4037690" lon="34.4761930">
<ele>51.000000</ele>
<time>2020-03-01T13:15:20.000Z</time>
</trkpt>
<trkpt lat="31.4044350" lon="34.4761610">
<ele>50.000000</ele>
<time>2020-03-01T13:16:14.000Z</time>
</trkpt>
<trkpt lat="31.4048760" lon="34.4761010">
<ele>49.000000</ele>
<time>2020-03-01T13:16:50.000Z</time>
</trkpt>
<trkpt lat="31.4050000" lon="34.4761270">
<ele>49.000000</ele>
<time>2020-03-01T13:17:00.000Z</time>
</trkpt>
<trkpt lat="31.4051550" lon="34.4762200">
<ele>49.000000</ele>
<time>2020-03-01T13:17:14.000Z</time>
</trkpt>
<trkpt lat="31.4052180" lon="34.4766020">
<ele>49.000000</ele>
<time>2020-03-01T13:17:41.000Z</time>
</trkpt>
<trkpt lat="31.4054740" lon="34.4771330">
<ele>49.000000</ele>
<time>2020-03-01T13:18:23.000Z</time>
</trkpt>
<trkpt lat="31.4058790" lon="34.4778500">
<ele>51.000000</ele>
<time>2020-03-01T13:19:22.000Z</time>
</trkpt>
<trkpt lat="31.4060500" lon="34.4782900">
<ele>51.999996</ele>
<time>2020-03-01T13:19:55.000Z</time>
</trkpt>
<trkpt lat="31.4061070" lon="34.4783660">
<ele>51.999996</ele>
<time>2020-03-01T13:20:02.000Z</time>
</trkpt>
<trkpt lat="31.4061900" lon="34.4784230">
<ele>51.999996</ele>
<time>2020-03-01T13:20:10.000Z</time>
</trkpt>
<trkpt lat="31.4062220" lon="34.4784920">
<ele>53.000004</ele>
<time>2020-03-01T13:20:16.000Z</time>
</trkpt>
<trkpt lat="31.4065000" lon="34.4788130">
<ele>54.000000</ele>
<time>2020-03-01T13:20:47.000Z</time>
</trkpt>
<trkpt lat="31.4067690" lon="34.4790310">
<ele>54.000000</ele>
<time>2020-03-01T13:21:13.000Z</time>
</trkpt>
<trkpt lat="31.4068020" lon="34.4790910">
<ele>54.000000</ele>
<time>2020-03-01T13:21:18.000Z</time>
</trkpt>
<trkpt lat="31.4068400" lon="34.4792250">
<ele>55.000000</ele>
<time>2020-03-01T13:21:28.000Z</time>
</trkpt>
<trkpt lat="31.4068220" lon="34.4795260">
<ele>54.000000</ele>
<time>2020-03-01T13:21:49.000Z</time>
</trkpt>
<trkpt lat="31.4068700" lon="34.4797360">
<ele>54.000000</ele>
<time>2020-03-01T13:22:04.000Z</time>
</trkpt>
<trkpt lat="31.4073510" lon="34.4805010">
<ele>54.000000</ele>
<time>2020-03-01T13:23:09.000Z</time>
</trkpt>
<trkpt lat="31.4074580" lon="34.4805920">
<ele>54.000000</ele>
<time>2020-03-01T13:23:20.000Z</time>
</trkpt>
<trkpt lat="31.4075410" lon="34.4807220">
<ele>54.000000</ele>
<time>2020-03-01T13:23:31.000Z</time>
</trkpt>
<trkpt lat="31.4075510" lon="34.4814660">
<ele>53.000004</ele>
<time>2020-03-01T13:24:22.000Z</time>
</trkpt>
<trkpt lat="31.4076400" lon="34.4816400">
<ele>53.000004</ele>
<time>2020-03-01T13:24:36.000Z</time>
</trkpt>
<trkpt lat="31.4079660" lon="34.4818900">
<ele>53.000004</ele>
<time>2020-03-01T13:25:08.000Z</time>
</trkpt>
<trkpt lat="31.4086670" lon="34.4823260">
<ele>53.000004</ele>
<time>2020-03-01T13:26:11.000Z</time>
</trkpt>
<trkpt lat="31.4088930" lon="34.4824090">
<ele>53.000004</ele>
<time>2020-03-01T13:26:30.000Z</time>
</trkpt>
<trkpt lat="31.4092510" lon="34.4827550">
<ele>53.000004</ele>
<time>2020-03-01T13:27:08.000Z</time>
</trkpt>
<trkpt lat="31.4094830" lon="34.4829110">
<ele>53.000004</ele>
<time>2020-03-01T13:27:30.000Z</time>
</trkpt>
<trkpt lat="31.4095910" lon="34.4829590">
<ele>54.000000</ele>
<time>2020-03-01T13:27:39.000Z</time>
</trkpt>
<trkpt lat="31.4097730" lon="34.4829500">
<ele>54.000000</ele>
<time>2020-03-01T13:27:53.000Z</time>
</trkpt>
<trkpt lat="31.4100650" lon="34.4832100">
<ele>54.000000</ele>
<time>2020-03-01T13:28:23.000Z</time>
</trkpt>
<trkpt lat="31.4108210" lon="34.4834540">
<ele>57.000000</ele>
<time>2020-03-01T13:29:27.000Z</time>
</trkpt>
<trkpt lat="31.4110040" lon="34.4836640">
<ele>57.000000</ele>
<time>2020-03-01T13:29:47.000Z</time>
</trkpt>
<trkpt lat="31.4111570" lon="34.4839520">
<ele>57.000000</ele>
<time>2020-03-01T13:30:10.000Z</time>
</trkpt>
<trkpt lat="31.4122140" lon="34.4845400">
<ele>59.000000</ele>
<time>2020-03-01T13:31:45.000Z</time>
</trkpt>
<trkpt lat="31.4123050" lon="34.4845830">
<ele>59.000000</ele>
<time>2020-03-01T13:31:52.000Z</time>
</trkpt>
<trkpt lat="31.4125650" lon="34.4845260">
<ele>59.000000</ele>
<time>2020-03-01T13:32:14.000Z</time>
</trkpt>
<trkpt lat="31.4128560" lon="34.4846670">
<ele>60.000000</ele>
<time>2020-03-01T13:32:40.000Z</time>
</trkpt>
<trkpt lat="31.4131940" lon="34.4845320">
<ele>61.000004</ele>
<time>2020-03-01T13:33:09.000Z</time>
</trkpt>
<trkpt lat="31.4132930" lon="34.4844460">
<ele>61.000004</ele>
<time>2020-03-01T13:33:19.000Z</time>
</trkpt>
<trkpt lat="31.4133650" lon="34.4844320">
<ele>61.000004</ele>
<time>2020-03-01T13:33:25.000Z</time>
</trkpt>
<trkpt lat="31.4134150" lon="34.4844900">
<ele>61.000004</ele>
<time>2020-03-01T13:33:30.000Z</time>
</trkpt>
<trkpt lat="31.4134220" lon="34.4846330">
<ele>61.000004</ele>
<time>2020-03-01T13:33:40.000Z</time>
</trkpt>
<trkpt lat="31.4133500" lon="34.4849650">
<ele>60.000000</ele>
<time>2020-03-01T13:34:04.000Z</time>
</trkpt>
<trkpt lat="31.4133900" lon="34.4850500">
<ele>60.000000</ele>
<time>2020-03-01T13:34:11.000Z</time>
</trkpt>
<trkpt lat="31.4135130" lon="34.4851620">
<ele>61.000004</ele>
<time>2020-03-01T13:34:23.000Z</time>
</trkpt>
<trkpt lat="31.4135860" lon="34.4851730">
<ele>61.000004</ele>
<time>2020-03-01T13:34:29.000Z</time>
</trkpt>
<trkpt lat="31.4136410" lon="34.4851260">
<ele>61.000004</ele>
<time>2020-03-01T13:34:35.000Z</time>
</trkpt>
<trkpt lat="31.4137990" lon="34.4848360">
<ele>61.000004</ele>
<time>2020-03-01T13:34:59.000Z</time>
</trkpt>
<trkpt lat="31.4140280" lon="34.4846850">
<ele>62.000000</ele>
<time>2020-03-01T13:35:21.000Z</time>
</trkpt>
<trkpt lat="31.4140580" lon="34.4846820">
<ele>62.000000</ele>
<time>2020-03-01T13:35:23.000Z</time>
</trkpt>
<trkpt lat="31.4141620" lon="34.4847930">
<ele>61.000004</ele>
<time>2020-03-01T13:35:35.000Z</time>
</trkpt>
<trkpt lat="31.4142830" lon="34.4848000">
<ele>62.000000</ele>
<time>2020-03-01T13:35:45.000Z</time>
</trkpt>
<trkpt lat="31.4143110" lon="34.4848930">
<ele>62.000000</ele>
<time>2020-03-01T13:35:52.000Z</time>
</trkpt>
<trkpt lat="31.4144010" lon="34.4849770">
<ele>62.000000</ele>
<time>2020-03-01T13:36:01.000Z</time>
</trkpt>
<trkpt lat="31.4147780" lon="34.4846940">
<ele>63.000000</ele>
<time>2020-03-01T13:36:38.000Z</time>
</trkpt>
<trkpt lat="31.4150460" lon="34.4845990">
<ele>63.000000</ele>
<time>2020-03-01T13:37:01.000Z</time>
</trkpt>
<trkpt lat="31.4153050" lon="34.4845570">
<ele>64.000000</ele>
<time>2020-03-01T13:37:22.000Z</time>
</trkpt>
<trkpt lat="31.4154690" lon="34.4844410">
<ele>64.000000</ele>
<time>2020-03-01T13:37:37.000Z</time>
</trkpt>
<trkpt lat="31.4156380" lon="34.4842210">
<ele>64.000000</ele>
<time>2020-03-01T13:37:57.000Z</time>
</trkpt>
<trkpt lat="31.4160370" lon="34.4840090">
<ele>65.000000</ele>
<time>2020-03-01T13:38:33.000Z</time>
</trkpt>
<trkpt lat="31.4164060" lon="34.4835780">
<ele>67.000000</ele>
<time>2020-03-01T13:39:15.000Z</time>
</trkpt>
<trkpt lat="31.4165320" lon="34.4834970">
<ele>68.000000</ele>
<time>2020-03-01T13:39:26.000Z</time>
</trkpt>
<trkpt lat="31.4166370" lon="34.4834900">
<ele>68.000000</ele>
<time>2020-03-01T13:39:35.000Z</time>
</trkpt>
<trkpt lat="31.4170840" lon="34.4835980">
<ele>68.000000</ele>
<time>2020-03-01T13:40:11.000Z</time>
</trkpt>
<trkpt lat="31.4172290" lon="34.4837030">
<ele>68.000000</ele>
<time>2020-03-01T13:40:25.000Z</time>
</trkpt>
<trkpt lat="31.4173440" lon="34.4836870">
<ele>68.000000</ele>
<time>2020-03-01T13:40:34.000Z</time>
</trkpt>
<trkpt lat="31.4174990" lon="34.4837820">
<ele>67.000000</ele>
<time>2020-03-01T13:40:49.000Z</time>
</trkpt>
<trkpt lat="31.4176710" lon="34.4837750">
<ele>68.000000</ele>
<time>2020-03-01T13:41:02.000Z</time>
</trkpt>
<trkpt lat="31.4179350" lon="34.4838740">
<ele>69.000000</ele>
<time>2020-03-01T13:41:25.000Z</time>
</trkpt>
<trkpt lat="31.4182100" lon="34.4838860">
<ele>69.000000</ele>
<time>2020-03-01T13:41:47.000Z</time>
</trkpt>
<trkpt lat="31.4183350" lon="34.4838210">
<ele>70.000000</ele>
<time>2020-03-01T13:41:58.000Z</time>
</trkpt>
<trkpt lat="31.4184100" lon="34.4836800">
<ele>70.000000</ele>
<time>2020-03-01T13:42:10.000Z</time>
</trkpt>
<trkpt lat="31.4185400" lon="34.4835770">
<ele>70.000000</ele>
<time>2020-03-01T13:42:23.000Z</time>
</trkpt>
<trkpt lat="31.4186770" lon="34.4834160">
<ele>70.000000</ele>
<time>2020-03-01T13:42:38.000Z</time>
</trkpt>
<trkpt lat="31.4187810" lon="34.4834570">
<ele>71.000000</ele>
<time>2020-03-01T13:42:47.000Z</time>
</trkpt>
<trkpt lat="31.4188910" lon="34.4834440">
<ele>71.000000</ele>
<time>2020-03-01T13:42:56.000Z</time>
</trkpt>
<trkpt lat="31.4190460" lon="34.4835270">
<ele>71.000000</ele>
<time>2020-03-01T13:43:10.000Z</time>
</trkpt>
<trkpt lat="31.4192540" lon="34.4834700">
<ele>72.000000</ele>
<time>2020-03-01T13:43:27.000Z</time>
</trkpt>
<trkpt lat="31.4195090" lon="34.4834630">
<ele>72.000000</ele>
<time>2020-03-01T13:43:48.000Z</time>
</trkpt>
<trkpt lat="31.4198210" lon="34.4833340">
<ele>73.000000</ele>
<time>2020-03-01T13:44:15.000Z</time>
</trkpt>
<trkpt lat="31.4203890" lon="34.4829130">
<ele>75.000000</ele>
<time>2020-03-01T13:45:09.000Z</time>
</trkpt>
<trkpt lat="31.4206090" lon="34.4828060">
<ele>76.000000</ele>
<time>2020-03-01T13:45:28.000Z</time>
</trkpt>
<trkpt lat="31.4206740" lon="34.4826430">
<ele>77.000000</ele>
<time>2020-03-01T13:45:40.000Z</time>
</trkpt>
<trkpt lat="31.4211560" lon="34.4821760">
<ele>79.000000</ele>
<time>2020-03-01T13:46:30.000Z</time>
</trkpt>
<trkpt lat="31.4212230" lon="34.4821520">
<ele>80.000000</ele>
<time>2020-03-01T13:46:36.000Z</time>
</trkpt>
<trkpt lat="31.4223390" lon="34.4827880">
<ele>80.999992</ele>
<time>2020-03-01T13:48:16.000Z</time>
</trkpt>
<trkpt lat="31.4230340" lon="34.4830780">
<ele>84.000000</ele>
<time>2020-03-01T13:49:15.000Z</time>
</trkpt>
<trkpt lat="31.4241390" lon="34.4837400">
<ele>85.000000</ele>
<time>2020-03-01T13:50:55.000Z</time>
</trkpt>
<trkpt lat="31.4242440" lon="34.4838980">
<ele>86.000000</ele>
<time>2020-03-01T13:51:09.000Z</time>
</trkpt>
<trkpt lat="31.4247510" lon="34.4853760">
<ele>87.999992</ele>
<time>2020-03-01T13:52:58.000Z</time>
</trkpt>
<trkpt lat="31.4251730" lon="34.4870360">
<ele>91.000000</ele>
<time>2020-03-01T13:54:56.000Z</time>
</trkpt>
<trkpt lat="31.4253720" lon="34.4876130">
<ele>91.000000</ele>
<time>2020-03-01T13:55:39.000Z</time>
</trkpt>
<trkpt lat="31.4255630" lon="34.4880050">
<ele>92.000000</ele>
<time>2020-03-01T13:56:10.000Z</time>
</trkpt>
<trkpt lat="31.4259040" lon="34.4878610">
<ele>93.000000</ele>
<time>2020-03-01T13:56:39.000Z</time>
</trkpt>
<trkpt lat="31.4268100" lon="34.4871210">
<ele>93.000000</ele>
<time>2020-03-01T13:58:07.000Z</time>
</trkpt>
<trkpt lat="31.4269390" lon="34.4871420">
<ele>93.000000</ele>
<time>2020-03-01T13:58:18.000Z</time>
</trkpt>
<trkpt lat="31.4270030" lon="34.4874100">
<ele>94.000000</ele>
<time>2020-03-01T13:58:37.000Z</time>
</trkpt>
<trkpt lat="31.4271030" lon="34.4875070">
<ele>93.000000</ele>
<time>2020-03-01T13:58:47.000Z</time>
</trkpt>
<trkpt lat="31.4270850" lon="34.4877860">
<ele>93.000000</ele>
<time>2020-03-01T13:59:06.000Z</time>
</trkpt>
<trkpt lat="31.4272770" lon="34.4878400">
<ele>92.000000</ele>
<time>2020-03-01T13:59:22.000Z</time>
</trkpt>
<trkpt lat="31.4274060" lon="34.4878180">
<ele>91.000000</ele>
<time>2020-03-01T13:59:33.000Z</time>
</trkpt>
<trkpt lat="31.4275890" lon="34.4878930">
<ele>90.000008</ele>
<time>2020-03-01T13:59:48.000Z</time>
</trkpt>
<trkpt lat="31.4278360" lon="34.4878180">
<ele>87.999992</ele>
<time>2020-03-01T14:00:09.000Z</time>
</trkpt>
<trkpt lat="31.4281200" lon="34.4881080">
<ele>86.000000</ele>
<time>2020-03-01T14:00:39.000Z</time>
</trkpt>
<trkpt lat="31.4283480" lon="34.4884410">
<ele>84.000000</ele>
<time>2020-03-01T14:01:08.000Z</time>
</trkpt>
<trkpt lat="31.4286510" lon="34.4887730">
<ele>82.000000</ele>
<time>2020-03-01T14:01:41.000Z</time>
</trkpt>
<trkpt lat="31.4286320" lon="34.4891050">
<ele>80.999992</ele>
<time>2020-03-01T14:02:04.000Z</time>
</trkpt>
<trkpt lat="31.4284710" lon="34.4894090">
<ele>82.000000</ele>
<time>2020-03-01T14:02:28.000Z</time>
</trkpt>
<trkpt lat="31.4290720" lon="34.4900070">
<ele>86.000000</ele>
<time>2020-03-01T14:03:32.000Z</time>
</trkpt>
<trkpt lat="31.4290810" lon="34.4903290">
<ele>86.000000</ele>
<time>2020-03-01T14:03:54.000Z</time>
</trkpt>
<trkpt lat="31.4289440" lon="34.4904790">
<ele>86.000000</ele>
<time>2020-03-01T14:04:09.000Z</time>
</trkpt>
<trkpt lat="31.4290530" lon="34.4908550">
<ele>87.999992</ele>
<time>2020-03-01T14:04:36.000Z</time>
</trkpt>
<trkpt lat="31.4289530" lon="34.4912190">
<ele>87.999992</ele>
<time>2020-03-01T14:05:02.000Z</time>
</trkpt>
<trkpt lat="31.4286690" lon="34.4912940">
<ele>87.999992</ele>
<time>2020-03-01T14:05:25.000Z</time>
</trkpt>
<trkpt lat="31.4283030" lon="34.4914660">
<ele>87.999992</ele>
<time>2020-03-01T14:05:57.000Z</time>
</trkpt>
<trkpt lat="31.4281840" lon="34.4916800">
<ele>90.000008</ele>
<time>2020-03-01T14:06:14.000Z</time>
</trkpt>
<trkpt lat="31.4282040" lon="34.4920330">
<ele>91.000000</ele>
<time>2020-03-01T14:06:39.000Z</time>
</trkpt>
<trkpt lat="31.4280500" lon="34.4920410">
<ele>91.000000</ele>
<time>2020-03-01T14:06:51.000Z</time>
</trkpt>
<trkpt lat="31.4280190" lon="34.4921100">
<ele>92.000000</ele>
<time>2020-03-01T14:06:56.000Z</time>
</trkpt>
<trkpt lat="31.4280320" lon="34.4931000">
<ele>93.000000</ele>
<time>2020-03-01T14:08:04.000Z</time>
</trkpt>
<trkpt lat="31.4282110" lon="34.4933870">
<ele>93.000000</ele>
<time>2020-03-01T14:08:28.000Z</time>
</trkpt>
<trkpt lat="31.4283970" lon="34.4942580">
<ele>92.000000</ele>
<time>2020-03-01T14:09:30.000Z</time>
</trkpt>
<trkpt lat="31.4281320" lon="34.4945610">
<ele>91.000000</ele>
<time>2020-03-01T14:09:59.000Z</time>
</trkpt>
<trkpt lat="31.4279410" lon="34.4942680">
<ele>91.000000</ele>
<time>2020-03-01T14:10:25.000Z</time>
</trkpt>
<trkpt lat="31.4278310" lon="34.4939280">
<ele>91.000000</ele>
<time>2020-03-01T14:10:50.000Z</time>
</trkpt>
</trkseg>
</trk>
</gpx>
